GEFSMW_prec_meanprecacc_036.txt.gz
Total_Precipitation_Accumulation
0.42 0.62 0.91 1.24 1.60 2.23 2.91 3.13 2.73 2.32 1.92 1.64 1.38 1.13 0.92 0.83 0.72 0.53 0.43 0.39 0.35 0.34 0.40 0.27 0.28 0.42 0.43 0.37 0.40 0.43 0.35 0.24 0.40 0.42 0.19 0.07 0.04 0.06 0.05 0.04 0.03 0.04 0.06
0.63 0.92 1.30 1.53 1.78 2.19 2.66 2.65 2.21 1.77 1.30 1.01 0.91 0.79 0.65 0.55 0.42 0.33 0.30 0.25 0.25 0.27 0.32 0.25 0.18 0.23 0.24 0.18 0.19 0.29 0.30 0.25 0.39 0.44 0.31 0.12 0.06 0.04 0.03 0.03 0.03 0.04 0.08
0.68 1.13 1.63 1.90 2.01 2.03 1.92 1.77 1.34 0.86 0.64 0.48 0.46 0.41 0.37 0.36 0.27 0.20 0.18 0.16 0.16 0.15 0.15 0.14 0.13 0.18 0.25 0.23 0.23 0.27 0.29 0.23 0.23 0.32 0.36 0.22 0.08 0.05 0.06 0.08 0.08 0.10 0.16
0.70 1.24 1.57 1.62 1.62 1.51 1.17 0.88 0.68 0.44 0.31 0.29 0.31 0.32 0.28 0.28 0.23 0.19 0.18 0.16 0.14 0.13 0.13 0.11 0.09 0.12 0.18 0.18 0.15 0.17 0.20 0.20 0.15 0.18 0.24 0.25 0.22 0.18 0.09 0.09 0.13 0.17 0.24
0.51 0.76 0.86 0.93 0.94 0.83 0.67 0.53 0.45 0.34 0.34 0.34 0.37 0.38 0.28 0.22 0.20 0.19 0.17 0.17 0.19 0.18 0.17 0.15 0.12 0.10 0.11 0.10 0.10 0.10 0.12 0.13 0.11 0.11 0.16 0.27 0.33 0.35 0.26 0.15 0.14 0.17 0.19
0.36 0.48 0.46 0.44 0.42 0.34 0.35 0.36 0.40 0.44 0.41 0.34 0.31 0.31 0.26 0.22 0.20 0.17 0.17 0.18 0.20 0.22 0.23 0.22 0.20 0.19 0.16 0.13 0.12 0.12 0.12 0.13 0.13 0.14 0.17 0.23 0.31 0.36 0.39 0.32 0.24 0.23 0.24
0.35 0.39 0.43 0.41 0.31 0.24 0.25 0.24 0.22 0.25 0.29 0.27 0.26 0.26 0.26 0.24 0.22 0.20 0.16 0.16 0.18 0.21 0.24 0.27 0.28 0.29 0.25 0.21 0.19 0.17 0.14 0.15 0.17 0.18 0.19 0.23 0.29 0.37 0.43 0.40 0.34 0.36 0.39
0.25 0.25 0.25 0.24 0.19 0.14 0.10 0.09 0.10 0.11 0.12 0.13 0.15 0.18 0.21 0.20 0.20 0.23 0.19 0.17 0.20 0.24 0.27 0.27 0.27 0.29 0.29 0.28 0.25 0.19 0.16 0.20 0.24 0.25 0.27 0.29 0.32 0.46 0.49 0.47 0.49 0.46 0.53
0.09 0.09 0.08 0.07 0.06 0.05 0.04 0.04 0.05 0.05 0.05 0.06 0.08 0.11 0.16 0.18 0.18 0.20 0.19 0.19 0.24 0.26 0.28 0.28 0.29 0.29 0.29 0.30 0.29 0.26 0.26 0.29 0.28 0.31 0.39 0.42 0.44 0.50 0.54 0.56 0.60 0.61 0.58
0.03 0.03 0.03 0.03 0.02 0.02 0.02 0.02 0.02 0.03 0.03 0.04 0.05 0.07 0.09 0.13 0.15 0.14 0.17 0.21 0.20 0.21 0.26 0.32 0.33 0.32 0.32 0.37 0.41 0.38 0.33 0.36 0.41 0.48 0.52 0.53 0.56 0.58 0.56 0.57 0.61 0.62 0.64
0.01 0.01 0.01 0.01 0.01 0.01 0.01 0.01 0.02 0.02 0.02 0.02 0.03 0.04 0.06 0.08 0.10 0.13 0.16 0.18 0.18 0.20 0.23 0.29 0.33 0.34 0.40 0.57 0.71 0.68 0.56 0.55 0.58 0.60 0.64 0.67 0.69 0.67 0.58 0.56 0.55 0.57 0.62
0.00 0.00 0.00 0.00 0.00 0.01 0.01 0.01 0.02 0.02 0.02 0.02 0.02 0.02 0.04 0.06 0.07 0.09 0.12 0.16 0.17 0.17 0.16 0.19 0.23 0.26 0.32 0.47 0.77 0.92 0.92 0.84 0.70 0.67 0.75 0.75 0.68 0.59 0.53 0.51 0.51 0.53 0.58
0.00 0.00 0.00 0.00 0.00 0.01 0.01 0.01 0.01 0.01 0.01 0.01 0.02 0.02 0.02 0.03 0.04 0.06 0.09 0.12 0.15 0.16 0.16 0.17 0.21 0.26 0.27 0.34 0.54 0.75 0.86 0.86 0.77 0.73 0.69 0.65 0.62 0.54 0.47 0.42 0.40 0.42 0.52
0.00 0.00 0.00 0.00 0.00 0.00 0.00 0.00 0.00 0.00 0.00 0.00 0.01 0.01 0.01 0.02 0.04 0.05 0.07 0.10 0.12 0.14 0.17 0.21 0.25 0.26 0.23 0.25 0.37 0.52 0.61 0.66 0.68 0.68 0.63 0.56 0.49 0.49 0.46 0.39 0.34 0.34 0.35
0.00 0.00 0.00 0.00 0.00 0.00 0.00 0.00 0.01 0.01 0.01 0.02 0.04 0.03 0.03 0.03 0.03 0.04 0.06 0.07 0.08 0.09 0.14 0.21 0.23 0.21 0.19 0.25 0.37 0.40 0.36 0.39 0.45 0.46 0.43 0.44 0.48 0.45 0.44 0.37 0.31 0.29 0.27
0.02 0.02 0.02 0.02 0.03 0.02 0.03 0.03 0.03 0.04 0.04 0.07 0.09 0.07 0.07 0.07 0.06 0.07 0.07 0.07 0.08 0.10 0.12 0.14 0.18 0.17 0.16 0.23 0.26 0.23 0.21 0.22 0.25 0.28 0.25 0.23 0.29 0.35 0.36 0.30 0.26 0.24 0.22
0.08 0.07 0.07 0.05 0.04 0.03 0.02 0.02 0.02 0.02 0.03 0.05 0.10 0.10 0.10 0.09 0.07 0.06 0.06 0.06 0.08 0.11 0.13 0.14 0.16 0.17 0.18 0.16 0.13 0.11 0.10 0.12 0.16 0.18 0.18 0.15 0.15 0.21 0.22 0.18 0.14 0.14 0.15
0.07 0.04 0.03 0.01 0.01 0.00 0.01 0.01 0.01 0.02 0.02 0.03 0.09 0.14 0.15 0.13 0.10 0.10 0.10 0.10 0.11 0.12 0.14 0.16 0.18 0.21 0.23 0.18 0.12 0.09 0.08 0.09 0.13 0.14 0.13 0.12 0.13 0.14 0.15 0.15 0.12 0.09 0.08
0.02 0.01 0.01 0.01 0.01 0.01 0.01 0.02 0.03 0.03 0.04 0.06 0.09 0.14 0.20 0.20 0.18 0.17 0.18 0.18 0.19 0.18 0.17 0.17 0.20 0.24 0.27 0.23 0.17 0.13 0.10 0.13 0.14 0.15 0.14 0.12 0.09 0.10 0.11 0.12 0.11 0.08 0.07
0.00 0.01 0.01 0.01 0.02 0.02 0.03 0.04 0.05 0.07 0.09 0.10 0.14 0.19 0.25 0.27 0.26 0.25 0.26 0.26 0.27 0.25 0.22 0.19 0.20 0.25 0.33 0.30 0.22 0.17 0.14 0.18 0.18 0.18 0.17 0.15 0.11 0.09 0.08 0.10 0.09 0.07 0.04
0.00 0.01 0.01 0.02 0.04 0.06 0.10 0.14 0.16 0.18 0.18 0.19 0.22 0.26 0.30 0.34 0.32 0.31 0.31 0.31 0.32 0.32 0.31 0.28 0.26 0.27 0.36 0.37 0.27 0.23 0.21 0.24 0.26 0.22 0.20 0.17 0.14 0.11 0.09 0.08 0.09 0.06 0.04
0.00 0.01 0.02 0.02 0.04 0.09 0.16 0.22 0.23 0.23 0.25 0.29 0.29 0.32 0.37 0.37 0.35 0.41 0.46 0.48 0.47 0.44 0.40 0.43 0.40 0.35 0.38 0.39 0.32 0.26 0.24 0.30 0.33 0.31 0.25 0.22 0.19 0.14 0.13 0.10 0.09 0.07 0.05
0.00 0.01 0.02 0.03 0.05 0.08 0.13 0.19 0.21 0.22 0.25 0.28 0.30 0.34 0.42 0.45 0.46 0.48 0.51 0.58 0.61 0.57 0.52 0.53 0.55 0.50 0.46 0.46 0.40 0.32 0.26 0.32 0.40 0.41 0.39 0.32 0.27 0.23 0.18 0.17 0.14 0.09 0.05
0.00 0.01 0.03 0.06 0.06 0.07 0.10 0.15 0.21 0.28 0.32 0.33 0.34 0.36 0.42 0.47 0.54 0.60 0.58 0.59 0.62 0.64 0.64 0.60 0.55 0.53 0.52 0.54 0.46 0.37 0.30 0.34 0.47 0.51 0.50 0.44 0.39 0.35 0.29 0.26 0.22 0.14 0.08
0.01 0.04 0.07 0.10 0.09 0.09 0.10 0.12 0.18 0.30 0.37 0.36 0.35 0.39 0.42 0.47 0.57 0.66 0.66 0.62 0.63 0.68 0.66 0.57 0.49 0.47 0.47 0.55 0.55 0.41 0.36 0.43 0.54 0.62 0.64 0.59 0.52 0.48 0.41 0.33 0.28 0.21 0.15
0.06 0.10 0.12 0.13 0.13 0.12 0.13 0.14 0.19 0.31 0.40 0.39 0.37 0.39 0.42 0.47 0.54 0.63 0.66 0.56 0.50 0.51 0.51 0.45 0.37 0.32 0.34 0.47 0.54 0.50 0.45 0.50 0.60 0.71 0.73 0.64 0.55 0.50 0.44 0.36 0.31 0.27 0.20

GEFSMW_prec_meanprecacc_042.txt.gz
Total_Precipitation_Accumulation
0.43 0.64 0.93 1.27 1.64 2.28 2.95 3.16 2.76 2.33 1.93 1.64 1.39 1.15 0.95 0.89 0.84 0.70 0.66 0.66 0.67 0.68 0.73 0.54 0.50 0.59 0.57 0.48 0.48 0.51 0.43 0.30 0.46 0.49 0.25 0.12 0.08 0.09 0.08 0.06 0.05 0.05 0.06
0.64 0.93 1.32 1.56 1.81 2.23 2.68 2.67 2.22 1.77 1.30 1.01 0.92 0.81 0.69 0.60 0.50 0.47 0.50 0.47 0.53 0.59 0.64 0.52 0.39 0.40 0.38 0.29 0.27 0.35 0.35 0.29 0.42 0.46 0.34 0.14 0.08 0.05 0.04 0.04 0.04 0.04 0.08
0.68 1.14 1.64 1.92 2.03 2.04 1.94 1.78 1.35 0.87 0.64 0.49 0.47 0.42 0.40 0.40 0.32 0.28 0.31 0.31 0.34 0.37 0.41 0.38 0.33 0.34 0.38 0.33 0.31 0.34 0.36 0.28 0.26 0.34 0.37 0.23 0.09 0.06 0.06 0.09 0.08 0.10 0.16
0.70 1.24 1.58 1.63 1.63 1.51 1.17 0.88 0.68 0.44 0.31 0.29 0.32 0.32 0.29 0.30 0.25 0.23 0.24 0.23 0.24 0.26 0.28 0.27 0.24 0.25 0.29 0.30 0.24 0.24 0.26 0.25 0.18 0.20 0.25 0.26 0.22 0.18 0.10 0.10 0.13 0.17 0.24
0.52 0.76 0.86 0.93 0.94 0.83 0.67 0.53 0.45 0.34 0.34 0.34 0.37 0.38 0.28 0.23 0.21 0.20 0.20 0.20 0.23 0.26 0.26 0.25 0.23 0.22 0.22 0.22 0.19 0.18 0.18 0.17 0.14 0.13 0.18 0.28 0.34 0.35 0.27 0.15 0.15 0.17 0.19
0.36 0.48 0.47 0.44 0.42 0.34 0.35 0.36 0.40 0.44 0.41 0.34 0.31 0.31 0.27 0.22 0.20 0.17 0.18 0.19 0.22 0.26 0.28 0.30 0.29 0.30 0.27 0.25 0.23 0.21 0.18 0.17 0.16 0.17 0.19 0.25 0.32 0.36 0.39 0.32 0.24 0.23 0.24
0.35 0.39 0.43 0.41 0.32 0.24 0.25 0.24 0.22 0.25 0.29 0.27 0.26 0.26 0.26 0.24 0.22 0.20 0.16 0.17 0.19 0.23 0.27 0.31 0.33 0.36 0.34 0.33 0.31 0.28 0.23 0.22 0.23 0.22 0.22 0.25 0.30 0.38 0.43 0.40 0.34 0.36 0.39
0.25 0.25 0.26 0.24 0.19 0.14 0.10 0.09 0.10 0.11 0.12 0.13 0.16 0.18 0.22 0.20 0.20 0.23 0.19 0.17 0.20 0.24 0.28 0.29 0.30 0.33 0.35 0.36 0.37 0.32 0.28 0.31 0.33 0.31 0.32 0.32 0.33 0.47 0.49 0.48 0.49 0.47 0.53
0.09 0.09 0.08 0.07 0.06 0.05 0.04 0.04 0.05 0.05 0.05 0.06 0.09 0.12 0.16 0.18 0.18 0.20 0.19 0.19 0.24 0.26 0.28 0.29 0.30 0.31 0.33 0.36 0.37 0.38 0.40 0.44 0.43 0.44 0.49 0.48 0.47 0.52 0.55 0.57 0.61 0.61 0.59
0.03 0.03 0.03 0.03 0.02 0.02 0.02 0.02 0.02 0.03 0.03 0.04 0.05 0.07 0.09 0.13 0.15 0.14 0.17 0.21 0.21 0.21 0.26 0.32 0.33 0.33 0.34 0.41 0.47 0.46 0.46 0.52 0.59 0.67 0.70 0.66 0.64 0.63 0.58 0.58 0.62 0.62 0.64
0.01 0.01 0.01 0.01 0.01 0.01 0.01 0.01 0.02 0.02 0.02 0.02 0.03 0.04 0.06 0.08 0.10 0.13 0.16 0.18 0.18 0.20 0.23 0.29 0.33 0.34 0.41 0.58 0.74 0.73 0.65 0.70 0.77 0.83 0.89 0.87 0.84 0.78 0.65 0.60 0.56 0.58 0.63
0.00 0.00 0.00 0.00 0.00 0.01 0.01 0.01 0.02 0.02 0.02 0.02 0.02 0.03 0.04 0.06 0.07 0.09 0.12 0.16 0.18 0.17 0.16 0.19 0.23 0.26 0.32 0.47 0.78 0.95 0.97 0.94 0.86 0.89 1.00 1.03 0.93 0.77 0.65 0.59 0.55 0.55 0.60
0.00 0.00 0.00 0.00 0.00 0.01 0.01 0.01 0.01 0.01 0.01 0.01 0.02 0.02 0.02 0.03 0.05 0.06 0.09 0.13 0.15 0.16 0.16 0.17 0.21 0.26 0.27 0.34 0.54 0.76 0.88 0.90 0.86 0.91 0.93 0.92 0.93 0.82 0.69 0.55 0.48 0.47 0.56
0.00 0.00 0.00 0.00 0.00 0.00 0.00 0.00 0.00 0.00 0.00 0.00 0.01 0.01 0.01 0.02 0.04 0.05 0.08 0.11 0.13 0.15 0.17 0.21 0.25 0.26 0.23 0.25 0.37 0.52 0.61 0.67 0.72 0.77 0.81 0.82 0.82 0.82 0.77 0.64 0.51 0.45 0.43
0.00 0.00 0.00 0.00 0.00 0.00 0.00 0.00 0.01 0.01 0.01 0.02 0.04 0.03 0.03 0.03 0.03 0.05 0.07 0.08 0.09 0.10 0.15 0.22 0.24 0.21 0.19 0.25 0.37 0.40 0.36 0.40 0.46 0.49 0.51 0.61 0.75 0.81 0.81 0.70 0.57 0.49 0.40
0.02 0.02 0.02 0.02 0.03 0.02 0.03 0.03 0.03 0.04 0.05 0.07 0.09 0.07 0.08 0.08 0.07 0.08 0.09 0.09 0.10 0.12 0.15 0.17 0.20 0.19 0.17 0.23 0.26 0.24 0.21 0.22 0.26 0.29 0.28 0.30 0.43 0.59 0.69 0.68 0.60 0.51 0.43
0.08 0.07 0.07 0.05 0.04 0.03 0.02 0.02 0.02 0.03 0.04 0.06 0.11 0.11 0.12 0.11 0.09 0.08 0.09 0.10 0.13 0.16 0.18 0.19 0.20 0.21 0.21 0.18 0.14 0.11 0.11 0.13 0.17 0.20 0.19 0.17 0.20 0.31 0.41 0.49 0.52 0.47 0.39
0.07 0.04 0.03 0.01 0.01 0.00 0.01 0.01 0.02 0.02 0.03 0.04 0.10 0.15 0.17 0.15 0.13 0.14 0.15 0.16 0.18 0.20 0.23 0.24 0.26 0.28 0.28 0.21 0.14 0.10 0.09 0.11 0.15 0.16 0.14 0.14 0.15 0.19 0.23 0.31 0.39 0.42 0.37
0.02 0.01 0.01 0.01 0.01 0.01 0.01 0.02 0.03 0.04 0.05 0.07 0.11 0.16 0.23 0.24 0.22 0.23 0.25 0.27 0.28 0.27 0.26 0.27 0.29 0.33 0.36 0.27 0.19 0.14 0.12 0.15 0.16 0.17 0.15 0.13 0.11 0.12 0.15 0.20 0.25 0.30 0.34
0.00 0.01 0.01 0.01 0.02 0.02 0.03 0.04 0.06 0.08 0.10 0.11 0.15 0.21 0.28 0.32 0.31 0.31 0.34 0.35 0.37 0.35 0.32 0.30 0.30 0.34 0.41 0.36 0.25 0.19 0.17 0.21 0.22 0.22 0.19 0.16 0.12 0.10 0.10 0.14 0.18 0.20 0.21
0.00 0.01 0.01 0.02 0.05 0.07 0.11 0.15 0.17 0.19 0.19 0.21 0.23 0.27 0.33 0.38 0.37 0.37 0.38 0.40 0.41 0.41 0.41 0.39 0.35 0.36 0.44 0.44 0.31 0.25 0.25 0.28 0.29 0.25 0.23 0.19 0.14 0.11 0.09 0.10 0.14 0.15 0.17
0.00 0.01 0.02 0.03 0.05 0.09 0.16 0.23 0.24 0.24 0.26 0.30 0.31 0.34 0.39 0.40 0.39 0.47 0.51 0.55 0.55 0.52 0.49 0.53 0.49 0.43 0.45 0.45 0.36 0.28 0.26 0.33 0.38 0.35 0.28 0.24 0.19 0.14 0.13 0.11 0.12 0.14 0.16
0.00 0.01 0.02 0.03 0.05 0.08 0.14 0.20 0.22 0.23 0.26 0.29 0.31 0.36 0.44 0.48 0.49 0.53 0.56 0.64 0.67 0.65 0.61 0.61 0.64 0.58 0.53 0.52 0.43 0.33 0.27 0.33 0.42 0.45 0.42 0.33 0.28 0.23 0.19 0.18 0.17 0.15 0.14
0.00 0.01 0.03 0.06 0.07 0.08 0.11 0.15 0.22 0.29 0.33 0.34 0.35 0.38 0.43 0.49 0.57 0.64 0.63 0.65 0.69 0.71 0.71 0.67 0.62 0.61 0.59 0.61 0.51 0.41 0.31 0.35 0.47 0.53 0.52 0.44 0.39 0.35 0.30 0.28 0.25 0.19 0.16
0.02 0.04 0.07 0.10 0.10 0.09 0.10 0.12 0.19 0.31 0.38 0.38 0.37 0.40 0.44 0.49 0.59 0.69 0.70 0.65 0.67 0.72 0.70 0.63 0.56 0.55 0.54 0.61 0.59 0.47 0.42 0.47 0.57 0.65 0.68 0.61 0.53 0.49 0.43 0.37 0.32 0.29 0.25
0.06 0.10 0.12 0.13 0.13 0.13 0.13 0.14 0.20 0.32 0.41 0.41 0.38 0.41 0.44 0.49 0.56 0.65 0.69 0.59 0.51 0.52 0.53 0.46 0.40 0.36 0.37 0.49 0.54 0.50 0.47 0.52 0.61 0.73 0.77 0.68 0.58 0.52 0.48 0.43 0.39 0.37 0.32

GEFSMW_prec_meanprecacc_048.txt.gz
Total_Precipitation_Accumulation
0.43 0.64 0.93 1.27 1.65 2.30 2.97 3.18 2.77 2.34 1.94 1.65 1.39 1.16 0.96 0.91 0.86 0.73 0.68 0.69 0.70 0.73 0.82 0.72 0.79 0.94 0.93 0.89 0.93 0.95 0.83 0.64 0.77 0.77 0.47 0.30 0.25 0.25 0.21 0.18 0.16 0.13 0.13
0.64 0.93 1.32 1.56 1.81 2.23 2.69 2.68 2.23 1.78 1.31 1.02 0.92 0.81 0.69 0.60 0.51 0.48 0.51 0.48 0.55 0.62 0.71 0.66 0.58 0.63 0.65 0.59 0.62 0.74 0.74 0.63 0.71 0.73 0.56 0.31 0.24 0.20 0.14 0.15 0.13 0.11 0.14
0.68 1.14 1.64 1.92 2.03 2.05 1.94 1.78 1.35 0.87 0.65 0.49 0.47 0.42 0.41 0.40 0.32 0.29 0.32 0.32 0.35 0.39 0.46 0.49 0.50 0.54 0.62 0.59 0.58 0.61 0.63 0.56 0.52 0.55 0.55 0.37 0.20 0.17 0.15 0.15 0.12 0.14 0.20
0.70 1.24 1.58 1.63 1.63 1.51 1.17 0.89 0.69 0.44 0.32 0.29 0.32 0.32 0.30 0.30 0.25 0.23 0.24 0.23 0.24 0.27 0.30 0.33 0.33 0.40 0.51 0.57 0.51 0.50 0.51 0.49 0.39 0.40 0.40 0.37 0.32 0.27 0.19 0.16 0.16 0.20 0.26
0.52 0.76 0.86 0.93 0.94 0.83 0.67 0.53 0.45 0.35 0.34 0.35 0.37 0.38 0.28 0.23 0.21 0.20 0.20 0.20 0.23 0.26 0.27 0.27 0.27 0.30 0.35 0.38 0.40 0.45 0.46 0.44 0.35 0.32 0.36 0.42 0.43 0.42 0.34 0.25 0.21 0.20 0.20
0.36 0.48 0.47 0.44 0.42 0.34 0.35 0.36 0.40 0.44 0.42 0.35 0.31 0.31 0.27 0.23 0.20 0.18 0.18 0.19 0.22 0.26 0.29 0.30 0.30 0.32 0.32 0.33 0.35 0.38 0.41 0.43 0.42 0.37 0.39 0.45 0.47 0.43 0.44 0.37 0.30 0.27 0.25
0.35 0.39 0.43 0.41 0.32 0.24 0.25 0.24 0.22 0.25 0.29 0.28 0.27 0.26 0.27 0.24 0.22 0.20 0.16 0.17 0.19 0.23 0.27 0.32 0.34 0.36 0.37 0.36 0.37 0.37 0.38 0.44 0.48 0.48 0.44 0.43 0.45 0.48 0.49 0.44 0.37 0.39 0.41
0.25 0.25 0.26 0.24 0.19 0.14 0.10 0.09 0.10 0.11 0.12 0.13 0.16 0.18 0.22 0.20 0.20 0.23 0.19 0.17 0.20 0.24 0.28 0.29 0.30 0.33 0.35 0.37 0.39 0.35 0.35 0.44 0.51 0.54 0.60 0.57 0.49 0.59 0.61 0.54 0.53 0.51 0.58
0.09 0.09 0.08 0.07 0.06 0.05 0.04 0.04 0.05 0.05 0.05 0.06 0.09 0.12 0.16 0.18 0.18 0.20 0.19 0.19 0.24 0.26 0.28 0.29 0.30 0.32 0.33 0.36 0.38 0.40 0.44 0.50 0.54 0.61 0.72 0.74 0.70 0.69 0.69 0.67 0.67 0.68 0.66
0.03 0.03 0.03 0.03 0.02 0.02 0.02 0.02 0.02 0.03 0.03 0.04 0.05 0.07 0.09 0.13 0.15 0.15 0.18 0.21 0.21 0.22 0.26 0.32 0.33 0.33 0.34 0.41 0.47 0.47 0.48 0.56 0.66 0.77 0.86 0.88 0.89 0.87 0.77 0.74 0.73 0.69 0.71
0.01 0.01 0.01 0.01 0.01 0.01 0.01 0.01 0.02 0.02 0.02 0.02 0.03 0.04 0.06 0.08 0.11 0.14 0.16 0.18 0.18 0.20 0.24 0.29 0.33 0.34 0.41 0.59 0.75 0.74 0.66 0.72 0.81 0.90 1.00 1.04 1.06 1.05 0.93 0.82 0.73 0.70 0.73
0.00 0.00 0.00 0.00 0.00 0.01 0.01 0.01 0.02 0.02 0.02 0.02 0.02 0.03 0.04 0.06 0.07 0.09 0.13 0.16 0.18 0.18 0.17 0.19 0.23 0.26 0.33 0.48 0.79 0.96 0.98 0.95 0.88 0.93 1.08 1.16 1.12 1.01 0.94 0.90 0.81 0.76 0.77
0.00 0.00 0.00 0.00 0.00 0.01 0.01 0.01 0.01 0.01 0.01 0.01 0.02 0.02 0.02 0.04 0.05 0.07 0.10 0.13 0.16 0.18 0.17 0.18 0.23 0.28 0.29 0.35 0.55 0.77 0.89 0.92 0.88 0.93 0.98 1.00 1.06 1.03 0.94 0.85 0.80 0.76 0.81
0.00 0.00 0.00 0.00 0.00 0.00 0.00 0.00 0.00 0.00 0.00 0.01 0.01 0.02 0.02 0.03 0.05 0.06 0.09 0.12 0.15 0.16 0.19 0.23 0.28 0.29 0.25 0.26 0.39 0.53 0.63 0.68 0.73 0.79 0.84 0.87 0.90 0.95 0.98 0.91 0.83 0.81 0.79
0.00 0.00 0.00 0.00 0.00 0.00 0.00 0.00 0.01 0.01 0.02 0.02 0.04 0.04 0.04 0.04 0.05 0.06 0.09 0.10 0.11 0.12 0.18 0.25 0.27 0.25 0.23 0.27 0.39 0.43 0.39 0.43 0.48 0.51 0.52 0.64 0.80 0.90 0.95 0.91 0.86 0.84 0.78
0.02 0.02 0.02 0.02 0.03 0.03 0.03 0.03 0.04 0.04 0.05 0.08 0.10 0.08 0.09 0.09 0.09 0.10 0.11 0.11 0.13 0.16 0.19 0.21 0.24 0.24 0.20 0.25 0.29 0.27 0.25 0.27 0.31 0.33 0.31 0.32 0.46 0.65 0.78 0.81 0.80 0.81 0.79
0.08 0.07 0.07 0.05 0.04 0.03 0.03 0.03 0.03 0.03 0.04 0.07 0.12 0.13 0.13 0.13 0.10 0.10 0.11 0.14 0.18 0.22 0.24 0.25 0.27 0.27 0.27 0.22 0.18 0.15 0.16 0.19 0.25 0.27 0.26 0.21 0.21 0.33 0.46 0.57 0.63 0.66 0.63
0.07 0.04 0.03 0.01 0.01 0.01 0.01 0.02 0.02 0.03 0.03 0.05 0.12 0.16 0.18 0.17 0.15 0.16 0.19 0.22 0.25 0.28 0.30 0.31 0.34 0.38 0.37 0.26 0.18 0.14 0.13 0.17 0.23 0.25 0.23 0.20 0.20 0.22 0.27 0.36 0.45 0.51 0.51
0.02 0.01 0.01 0.01 0.01 0.01 0.02 0.03 0.04 0.04 0.06 0.08 0.13 0.18 0.25 0.26 0.25 0.27 0.30 0.34 0.36 0.35 0.35 0.37 0.40 0.45 0.49 0.37 0.24 0.18 0.17 0.21 0.24 0.25 0.24 0.22 0.18 0.17 0.18 0.25 0.30 0.36 0.44
0.00 0.01 0.01 0.01 0.02 0.03 0.04 0.05 0.07 0.09 0.12 0.13 0.17 0.23 0.31 0.36 0.35 0.36 0.40 0.42 0.45 0.43 0.41 0.39 0.41 0.47 0.56 0.47 0.29 0.22 0.23 0.30 0.31 0.33 0.30 0.24 0.20 0.16 0.12 0.17 0.23 0.26 0.29
0.00 0.01 0.01 0.03 0.05 0.08 0.12 0.16 0.18 0.21 0.21 0.22 0.25 0.29 0.36 0.42 0.42 0.43 0.46 0.48 0.48 0.49 0.49 0.48 0.46 0.50 0.57 0.53 0.34 0.27 0.31 0.39 0.43 0.38 0.35 0.29 0.20 0.15 0.11 0.12 0.18 0.21 0.25
0.00 0.01 0.03 0.03 0.05 0.11 0.18 0.24 0.26 0.26 0.28 0.32 0.32 0.36 0.42 0.44 0.43 0.53 0.59 0.63 0.64 0.61 0.58 0.62 0.59 0.56 0.57 0.53 0.41 0.29 0.28 0.40 0.53 0.53 0.45 0.38 0.28 0.17 0.14 0.13 0.13 0.16 0.20
0.00 0.01 0.02 0.04 0.06 0.10 0.16 0.22 0.24 0.26 0.27 0.31 0.33 0.38 0.47 0.53 0.56 0.62 0.66 0.75 0.78 0.75 0.70 0.71 0.75 0.70 0.66 0.62 0.46 0.34 0.27 0.35 0.51 0.63 0.59 0.47 0.36 0.27 0.20 0.19 0.18 0.15 0.16
0.00 0.01 0.03 0.06 0.07 0.09 0.12 0.17 0.23 0.31 0.35 0.36 0.36 0.40 0.47 0.54 0.65 0.75 0.74 0.76 0.79 0.81 0.80 0.77 0.74 0.74 0.73 0.75 0.62 0.46 0.34 0.37 0.51 0.62 0.63 0.52 0.44 0.38 0.32 0.28 0.25 0.20 0.17
0.02 0.04 0.08 0.10 0.10 0.10 0.11 0.13 0.20 0.32 0.39 0.39 0.38 0.42 0.48 0.55 0.67 0.80 0.82 0.73 0.73 0.76 0.73 0.68 0.65 0.66 0.67 0.72 0.67 0.57 0.54 0.56 0.64 0.74 0.81 0.71 0.59 0.52 0.46 0.39 0.34 0.30 0.27
0.06 0.10 0.13 0.14 0.13 0.13 0.14 0.15 0.21 0.33 0.42 0.43 0.40 0.43 0.47 0.55 0.65 0.78 0.83 0.68 0.55 0.53 0.53 0.47 0.41 0.40 0.42 0.52 0.56 0.52 0.50 0.55 0.64 0.79 0.91 0.81 0.68 0.58 0.52 0.47 0.42 0.39 0.35

GEFSMW_prec_meanprecacc_054.txt.gz
Total_Precipitation_Accumulation
0.44 0.64 0.93 1.28 1.66 2.30 2.98 3.19 2.78 2.35 1.95 1.67 1.41 1.17 0.97 0.91 0.87 0.73 0.69 0.69 0.71 0.73 0.82 0.72 0.79 0.94 0.94 0.91 0.97 1.03 0.95 0.80 0.96 1.01 0.72 0.53 0.46 0.46 0.39 0.32 0.30 0.25 0.26
0.64 0.94 1.32 1.56 1.81 2.23 2.70 2.68 2.23 1.79 1.32 1.02 0.92 0.82 0.69 0.60 0.51 0.48 0.51 0.49 0.55 0.63 0.72 0.66 0.58 0.63 0.65 0.60 0.64 0.81 0.83 0.73 0.85 0.93 0.79 0.54 0.47 0.39 0.26 0.26 0.23 0.20 0.25
0.68 1.14 1.64 1.92 2.03 2.05 1.94 1.78 1.35 0.88 0.65 0.49 0.47 0.42 0.41 0.40 0.33 0.29 0.32 0.32 0.35 0.39 0.46 0.49 0.50 0.55 0.62 0.60 0.60 0.64 0.68 0.62 0.63 0.76 0.83 0.62 0.40 0.34 0.30 0.28 0.23 0.23 0.31
0.70 1.24 1.58 1.63 1.63 1.52 1.17 0.89 0.69 0.45 0.32 0.29 0.32 0.32 0.30 0.30 0.26 0.23 0.25 0.23 0.24 0.27 0.30 0.33 0.34 0.41 0.52 0.58 0.54 0.54 0.57 0.56 0.48 0.52 0.59 0.58 0.52 0.44 0.33 0.31 0.31 0.31 0.38
0.52 0.76 0.86 0.93 0.94 0.83 0.67 0.53 0.45 0.35 0.34 0.35 0.37 0.39 0.28 0.23 0.21 0.20 0.20 0.20 0.23 0.26 0.27 0.28 0.28 0.31 0.35 0.39 0.42 0.48 0.52 0.53 0.48 0.47 0.52 0.59 0.60 0.56 0.47 0.37 0.36 0.33 0.29
0.36 0.48 0.47 0.44 0.42 0.34 0.35 0.36 0.40 0.44 0.42 0.35 0.31 0.31 0.27 0.23 0.20 0.18 0.18 0.19 0.22 0.26 0.29 0.30 0.30 0.32 0.32 0.33 0.36 0.39 0.43 0.48 0.52 0.50 0.54 0.63 0.65 0.59 0.56 0.49 0.42 0.39 0.34
0.35 0.39 0.43 0.41 0.32 0.24 0.25 0.24 0.22 0.25 0.29 0.28 0.27 0.26 0.27 0.24 0.22 0.20 0.16 0.17 0.19 0.23 0.27 0.32 0.34 0.37 0.37 0.37 0.37 0.38 0.40 0.46 0.54 0.54 0.53 0.55 0.60 0.65 0.64 0.57 0.48 0.51 0.52
0.25 0.25 0.26 0.24 0.19 0.14 0.10 0.09 0.10 0.11 0.12 0.13 0.16 0.18 0.22 0.20 0.20 0.23 0.19 0.17 0.20 0.24 0.28 0.29 0.30 0.34 0.35 0.37 0.39 0.36 0.36 0.45 0.54 0.59 0.67 0.65 0.58 0.72 0.78 0.71 0.69 0.66 0.71
0.09 0.09 0.08 0.07 0.06 0.05 0.04 0.04 0.05 0.05 0.05 0.06 0.09 0.12 0.16 0.18 0.18 0.20 0.19 0.19 0.24 0.26 0.28 0.29 0.30 0.32 0.34 0.36 0.38 0.40 0.44 0.50 0.54 0.62 0.76 0.81 0.77 0.77 0.82 0.85 0.86 0.88 0.84
0.03 0.03 0.03 0.03 0.02 0.02 0.02 0.02 0.02 0.03 0.03 0.04 0.05 0.07 0.09 0.13 0.15 0.15 0.18 0.21 0.21 0.22 0.26 0.32 0.33 0.33 0.35 0.41 0.48 0.47 0.48 0.56 0.66 0.78 0.87 0.91 0.95 0.93 0.86 0.89 0.90 0.90 0.93
0.01 0.01 0.01 0.01 0.01 0.01 0.01 0.01 0.02 0.02 0.02 0.02 0.03 0.04 0.06 0.08 0.11 0.14 0.16 0.18 0.18 0.20 0.24 0.29 0.34 0.34 0.41 0.59 0.75 0.75 0.66 0.72 0.81 0.90 1.00 1.05 1.09 1.09 1.00 0.94 0.90 0.87 0.93
0.00 0.00 0.00 0.00 0.00 0.01 0.01 0.01 0.02 0.02 0.02 0.02 0.02 0.03 0.05 0.06 0.07 0.09 0.13 0.16 0.18 0.18 0.17 0.19 0.23 0.27 0.33 0.48 0.79 0.96 0.99 0.96 0.88 0.93 1.09 1.17 1.13 1.04 0.99 0.98 0.94 0.91 0.96
0.00 0.00 0.00 0.00 0.00 0.01 0.01 0.01 0.01 0.01 0.01 0.01 0.02 0.02 0.02 0.04 0.05 0.07 0.10 0.13 0.16 0.18 0.17 0.18 0.23 0.28 0.29 0.35 0.55 0.77 0.90 0.92 0.89 0.94 0.98 1.01 1.07 1.05 0.97 0.91 0.89 0.88 0.97
0.00 0.00 0.00 0.00 0.00 0.00 0.00 0.00 0.00 0.00 0.00 0.01 0.01 0.02 0.02 0.03 0.05 0.06 0.09 0.12 0.15 0.17 0.20 0.23 0.28 0.29 0.26 0.27 0.39 0.54 0.64 0.69 0.74 0.79 0.84 0.87 0.91 0.96 1.00 0.94 0.89 0.91 0.92
0.00 0.00 0.00 0.00 0.00 0.00 0.00 0.00 0.01 0.01 0.02 0.03 0.04 0.04 0.04 0.04 0.05 0.06 0.09 0.10 0.11 0.12 0.18 0.25 0.27 0.25 0.23 0.27 0.39 0.43 0.39 0.43 0.49 0.52 0.53 0.64 0.81 0.91 0.96 0.93 0.89 0.91 0.90
0.02 0.02 0.02 0.02 0.03 0.03 0.03 0.03 0.04 0.04 0.05 0.08 0.10 0.08 0.09 0.09 0.09 0.10 0.11 0.11 0.13 0.16 0.19 0.21 0.24 0.24 0.20 0.25 0.30 0.28 0.26 0.28 0.32 0.34 0.32 0.33 0.47 0.66 0.80 0.83 0.83 0.86 0.88
0.08 0.07 0.07 0.05 0.04 0.03 0.03 0.03 0.03 0.03 0.04 0.07 0.12 0.13 0.13 0.13 0.10 0.10 0.12 0.14 0.18 0.22 0.24 0.25 0.27 0.27 0.27 0.22 0.19 0.16 0.18 0.21 0.27 0.30 0.28 0.22 0.22 0.35 0.48 0.59 0.66 0.69 0.68
0.07 0.04 0.03 0.01 0.01 0.01 0.01 0.02 0.02 0.03 0.03 0.05 0.12 0.17 0.18 0.17 0.15 0.17 0.20 0.22 0.25 0.28 0.30 0.31 0.34 0.39 0.37 0.27 0.18 0.14 0.14 0.18 0.25 0.28 0.25 0.22 0.21 0.24 0.29 0.39 0.48 0.54 0.54
0.02 0.01 0.01 0.01 0.01 0.01 0.02 0.03 0.04 0.04 0.06 0.08 0.13 0.18 0.25 0.26 0.25 0.27 0.31 0.34 0.37 0.35 0.35 0.37 0.40 0.46 0.49 0.38 0.24 0.18 0.18 0.23 0.26 0.28 0.26 0.24 0.19 0.19 0.21 0.28 0.33 0.38 0.47
0.00 0.01 0.01 0.01 0.02 0.03 0.04 0.05 0.07 0.09 0.12 0.13 0.17 0.23 0.31 0.36 0.35 0.36 0.40 0.42 0.46 0.44 0.42 0.39 0.42 0.48 0.57 0.48 0.29 0.22 0.25 0.32 0.33 0.36 0.34 0.27 0.23 0.19 0.16 0.21 0.26 0.29 0.32
0.00 0.01 0.01 0.03 0.05 0.08 0.12 0.16 0.18 0.21 0.21 0.22 0.25 0.30 0.36 0.42 0.42 0.44 0.46 0.49 0.49 0.50 0.50 0.49 0.47 0.51 0.58 0.53 0.34 0.28 0.32 0.40 0.45 0.41 0.39 0.33 0.24 0.19 0.16 0.16 0.22 0.24 0.30
0.00 0.01 0.03 0.03 0.05 0.11 0.18 0.24 0.26 0.26 0.28 0.32 0.33 0.36 0.42 0.44 0.43 0.54 0.60 0.65 0.66 0.63 0.60 0.63 0.60 0.57 0.58 0.53 0.41 0.29 0.29 0.42 0.56 0.58 0.52 0.44 0.33 0.23 0.20 0.17 0.18 0.20 0.25
0.00 0.01 0.02 0.04 0.06 0.10 0.16 0.22 0.24 0.26 0.28 0.31 0.33 0.38 0.47 0.53 0.57 0.63 0.67 0.76 0.80 0.77 0.72 0.72 0.76 0.72 0.67 0.63 0.46 0.34 0.28 0.36 0.53 0.67 0.66 0.54 0.42 0.33 0.25 0.24 0.22 0.20 0.20
0.00 0.01 0.03 0.06 0.07 0.09 0.12 0.17 0.24 0.31 0.35 0.36 0.36 0.40 0.47 0.54 0.66 0.76 0.76 0.78 0.81 0.83 0.82 0.79 0.75 0.75 0.74 0.76 0.62 0.47 0.35 0.38 0.53 0.65 0.67 0.58 0.52 0.46 0.37 0.32 0.29 0.23 0.20
0.02 0.04 0.08 0.10 0.10 0.10 0.11 0.13 0.20 0.32 0.39 0.39 0.38 0.42 0.48 0.55 0.68 0.81 0.84 0.75 0.75 0.78 0.75 0.69 0.66 0.67 0.68 0.72 0.68 0.58 0.55 0.57 0.66 0.77 0.86 0.77 0.66 0.59 0.51 0.42 0.36 0.32 0.28
0.06 0.10 0.13 0.14 0.13 0.13 0.14 0.15 0.21 0.33 0.42 0.43 0.40 0.43 0.48 0.56 0.66 0.79 0.84 0.69 0.56 0.54 0.54 0.48 0.43 0.41 0.43 0.53 0.56 0.52 0.50 0.55 0.65 0.81 0.95 0.86 0.74 0.64 0.57 0.50 0.44 0.42 0.37

GEFSMW_prec_meanprecacc_060.txt.gz
Total_Precipitation_Accumulation
0.45 0.66 0.96 1.30 1.68 2.32 2.99 3.20 2.80 2.37 1.96 1.68 1.41 1.17 0.98 0.92 0.87 0.74 0.69 0.69 0.71 0.74 0.83 0.72 0.79 0.94 0.94 0.91 0.97 1.03 0.96 0.80 0.97 1.03 0.75 0.59 0.55 0.55 0.48 0.43 0.41 0.34 0.33
0.65 0.95 1.33 1.57 1.81 2.24 2.70 2.69 2.24 1.79 1.32 1.03 0.93 0.82 0.69 0.60 0.51 0.48 0.51 0.49 0.55 0.63 0.72 0.66 0.58 0.63 0.65 0.60 0.64 0.81 0.83 0.73 0.86 0.95 0.82 0.57 0.51 0.46 0.33 0.34 0.32 0.28 0.34
0.69 1.14 1.64 1.92 2.03 2.05 1.94 1.78 1.35 0.88 0.65 0.49 0.47 0.42 0.41 0.40 0.33 0.29 0.32 0.32 0.35 0.39 0.46 0.49 0.50 0.55 0.62 0.60 0.60 0.64 0.68 0.62 0.63 0.78 0.88 0.67 0.44 0.38 0.34 0.32 0.28 0.30 0.40
0.70 1.24 1.58 1.63 1.63 1.52 1.17 0.89 0.69 0.45 0.32 0.29 0.32 0.32 0.30 0.30 0.26 0.23 0.25 0.23 0.24 0.27 0.30 0.33 0.34 0.41 0.52 0.58 0.54 0.54 0.57 0.56 0.49 0.55 0.64 0.64 0.57 0.50 0.38 0.35 0.35 0.38 0.47
0.52 0.76 0.86 0.93 0.94 0.83 0.67 0.53 0.45 0.35 0.34 0.35 0.37 0.39 0.28 0.23 0.21 0.20 0.20 0.20 0.23 0.26 0.27 0.28 0.28 0.31 0.35 0.39 0.42 0.48 0.52 0.53 0.49 0.48 0.54 0.62 0.64 0.62 0.53 0.43 0.40 0.38 0.34
0.36 0.48 0.47 0.44 0.42 0.34 0.35 0.36 0.40 0.44 0.42 0.35 0.31 0.31 0.27 0.23 0.20 0.18 0.18 0.19 0.22 0.26 0.29 0.30 0.30 0.32 0.32 0.33 0.36 0.39 0.43 0.49 0.52 0.51 0.55 0.64 0.68 0.64 0.62 0.54 0.46 0.43 0.38
0.35 0.39 0.43 0.41 0.32 0.24 0.25 0.24 0.22 0.25 0.29 0.28 0.27 0.26 0.27 0.24 0.22 0.20 0.16 0.17 0.19 0.23 0.27 0.32 0.34 0.37 0.37 0.37 0.37 0.38 0.40 0.47 0.54 0.54 0.53 0.56 0.62 0.68 0.70 0.63 0.53 0.55 0.56
0.25 0.25 0.26 0.24 0.19 0.14 0.10 0.09 0.10 0.11 0.12 0.13 0.16 0.18 0.22 0.20 0.20 0.23 0.19 0.17 0.20 0.24 0.28 0.29 0.30 0.34 0.35 0.37 0.39 0.36 0.36 0.45 0.54 0.59 0.67 0.65 0.58 0.74 0.81 0.76 0.74 0.71 0.76
0.09 0.09 0.08 0.07 0.06 0.05 0.04 0.04 0.05 0.05 0.05 0.06 0.09 0.12 0.16 0.18 0.18 0.20 0.19 0.19 0.24 0.26 0.28 0.29 0.30 0.32 0.34 0.36 0.38 0.40 0.44 0.50 0.54 0.62 0.76 0.81 0.78 0.78 0.83 0.88 0.92 0.95 0.91
0.03 0.03 0.03 0.03 0.02 0.02 0.02 0.02 0.02 0.03 0.03 0.04 0.05 0.07 0.09 0.13 0.15 0.15 0.18 0.21 0.21 0.22 0.26 0.32 0.33 0.33 0.35 0.41 0.48 0.47 0.48 0.56 0.66 0.78 0.87 0.91 0.95 0.93 0.86 0.90 0.95 0.96 1.00
0.01 0.01 0.01 0.01 0.01 0.01 0.01 0.01 0.02 0.02 0.02 0.02 0.03 0.04 0.06 0.08 0.11 0.14 0.16 0.18 0.18 0.20 0.24 0.29 0.34 0.34 0.41 0.59 0.75 0.75 0.66 0.72 0.81 0.90 1.00 1.05 1.09 1.09 1.00 0.95 0.92 0.92 1.00
0.00 0.00 0.00 0.00 0.00 0.01 0.01 0.01 0.02 0.02 0.02 0.02 0.02 0.03 0.05 0.06 0.07 0.09 0.13 0.16 0.18 0.18 0.17 0.19 0.23 0.27 0.33 0.48 0.79 0.96 0.99 0.96 0.88 0.93 1.09 1.17 1.13 1.04 0.99 0.99 0.95 0.94 1.02
0.00 0.00 0.00 0.00 0.00 0.01 0.01 0.01 0.01 0.01 0.01 0.01 0.02 0.02 0.02 0.04 0.05 0.07 0.10 0.13 0.16 0.18 0.17 0.18 0.23 0.28 0.29 0.35 0.55 0.77 0.90 0.92 0.89 0.94 0.98 1.01 1.07 1.05 0.97 0.91 0.90 0.91 1.02
0.00 0.00 0.00 0.00 0.00 0.00 0.00 0.00 0.00 0.00 0.00 0.01 0.01 0.02 0.02 0.03 0.05 0.06 0.09 0.12 0.15 0.17 0.20 0.23 0.28 0.29 0.26 0.27 0.39 0.54 0.64 0.69 0.74 0.79 0.84 0.87 0.91 0.96 1.00 0.94 0.90 0.93 0.96
0.00 0.00 0.00 0.00 0.00 0.00 0.00 0.00 0.01 0.01 0.02 0.03 0.04 0.04 0.04 0.04 0.05 0.06 0.09 0.10 0.11 0.12 0.18 0.25 0.27 0.25 0.23 0.27 0.39 0.43 0.39 0.43 0.49 0.52 0.53 0.64 0.81 0.91 0.96 0.93 0.90 0.93 0.93
0.02 0.02 0.02 0.02 0.03 0.03 0.03 0.03 0.04 0.04 0.05 0.08 0.10 0.08 0.09 0.09 0.09 0.10 0.11 0.11 0.13 0.16 0.19 0.21 0.24 0.24 0.20 0.25 0.30 0.28 0.26 0.28 0.32 0.34 0.32 0.33 0.47 0.67 0.80 0.83 0.83 0.87 0.90
0.08 0.07 0.07 0.05 0.04 0.03 0.03 0.03 0.03 0.03 0.04 0.07 0.12 0.13 0.13 0.13 0.10 0.10 0.12 0.14 0.18 0.22 0.24 0.25 0.27 0.27 0.27 0.22 0.19 0.16 0.18 0.21 0.27 0.30 0.28 0.22 0.22 0.35 0.48 0.59 0.67 0.70 0.71
0.07 0.04 0.03 0.01 0.01 0.01 0.01 0.02 0.02 0.03 0.03 0.05 0.12 0.17 0.18 0.17 0.15 0.17 0.20 0.22 0.25 0.28 0.30 0.31 0.34 0.39 0.37 0.27 0.18 0.14 0.14 0.18 0.25 0.28 0.25 0.22 0.22 0.25 0.30 0.39 0.48 0.54 0.56
0.02 0.01 0.01 0.01 0.01 0.01 0.02 0.03 0.04 0.04 0.06 0.08 0.13 0.18 0.25 0.26 0.25 0.27 0.31 0.34 0.37 0.35 0.35 0.37 0.41 0.46 0.50 0.38 0.24 0.18 0.18 0.23 0.26 0.28 0.26 0.24 0.20 0.19 0.22 0.29 0.33 0.39 0.48
0.00 0.01 0.01 0.01 0.02 0.03 0.04 0.05 0.07 0.09 0.12 0.13 0.17 0.23 0.31 0.36 0.35 0.36 0.40 0.42 0.46 0.44 0.42 0.40 0.42 0.48 0.57 0.48 0.30 0.23 0.25 0.32 0.33 0.36 0.34 0.28 0.24 0.20 0.16 0.22 0.27 0.30 0.33
0.00 0.01 0.01 0.03 0.05 0.08 0.12 0.16 0.18 0.21 0.21 0.22 0.25 0.30 0.36 0.42 0.42 0.44 0.46 0.49 0.49 0.51 0.50 0.49 0.47 0.51 0.58 0.53 0.35 0.28 0.33 0.41 0.46 0.41 0.40 0.35 0.25 0.20 0.17 0.17 0.23 0.24 0.31
0.00 0.01 0.03 0.03 0.05 0.11 0.18 0.24 0.26 0.26 0.28 0.32 0.33 0.36 0.42 0.44 0.43 0.54 0.60 0.65 0.66 0.63 0.60 0.63 0.60 0.57 0.59 0.54 0.42 0.30 0.30 0.42 0.57 0.59 0.53 0.47 0.36 0.25 0.22 0.19 0.19 0.21 0.26
0.00 0.01 0.02 0.04 0.06 0.10 0.16 0.22 0.24 0.26 0.28 0.31 0.33 0.38 0.47 0.53 0.57 0.63 0.67 0.76 0.80 0.77 0.72 0.73 0.77 0.72 0.68 0.64 0.48 0.35 0.28 0.36 0.54 0.68 0.68 0.57 0.46 0.36 0.28 0.26 0.25 0.23 0.22
0.00 0.01 0.03 0.06 0.07 0.09 0.12 0.17 0.24 0.31 0.35 0.36 0.36 0.40 0.47 0.54 0.66 0.76 0.76 0.78 0.81 0.83 0.82 0.79 0.76 0.76 0.76 0.78 0.64 0.48 0.36 0.39 0.54 0.66 0.70 0.62 0.58 0.51 0.41 0.36 0.33 0.28 0.23
0.02 0.04 0.08 0.10 0.10 0.10 0.11 0.13 0.20 0.32 0.39 0.39 0.38 0.42 0.48 0.55 0.68 0.81 0.84 0.75 0.75 0.78 0.75 0.70 0.67 0.69 0.70 0.75 0.70 0.60 0.57 0.59 0.68 0.78 0.88 0.81 0.72 0.66 0.58 0.49 0.43 0.38 0.33
0.06 0.10 0.13 0.14 0.13 0.13 0.14 0.15 0.21 0.33 0.42 0.43 0.40 0.43 0.48 0.56 0.66 0.79 0.84 0.69 0.56 0.54 0.55 0.49 0.44 0.43 0.47 0.56 0.59 0.54 0.51 0.56 0.67 0.83 0.98 0.91 0.79 0.72 0.66 0.60 0.53 0.48 0.41

GEFSMW_prec_meanprecacc_066.txt.gz
Total_Precipitation_Accumulation
0.47 0.68 0.98 1.31 1.68 2.33 3.00 3.21 2.81 2.38 1.98 1.69 1.43 1.18 0.98 0.92 0.87 0.74 0.69 0.69 0.71 0.74 0.83 0.72 0.80 0.95 0.94 0.92 0.97 1.03 0.96 0.80 0.98 1.03 0.75 0.60 0.56 0.57 0.52 0.48 0.46 0.39 0.38
0.69 0.97 1.34 1.57 1.82 2.24 2.70 2.69 2.25 1.80 1.32 1.03 0.93 0.82 0.69 0.60 0.51 0.48 0.51 0.49 0.55 0.63 0.72 0.66 0.58 0.63 0.65 0.60 0.65 0.81 0.83 0.73 0.87 0.95 0.82 0.58 0.53 0.48 0.36 0.38 0.37 0.34 0.41
0.71 1.15 1.65 1.92 2.04 2.05 1.95 1.78 1.35 0.88 0.65 0.49 0.47 0.42 0.41 0.40 0.33 0.29 0.32 0.32 0.35 0.39 0.46 0.49 0.50 0.55 0.62 0.60 0.60 0.65 0.68 0.62 0.64 0.78 0.89 0.68 0.46 0.39 0.36 0.35 0.32 0.36 0.47
0.71 1.25 1.58 1.63 1.63 1.52 1.17 0.89 0.69 0.45 0.32 0.29 0.32 0.33 0.30 0.30 0.26 0.23 0.25 0.23 0.24 0.27 0.30 0.33 0.34 0.41 0.52 0.58 0.54 0.54 0.57 0.56 0.49 0.55 0.64 0.65 0.60 0.52 0.40 0.38 0.39 0.42 0.51
0.52 0.77 0.87 0.93 0.94 0.84 0.68 0.54 0.46 0.36 0.34 0.35 0.38 0.39 0.28 0.23 0.21 0.20 0.20 0.20 0.23 0.26 0.27 0.28 0.28 0.31 0.35 0.39 0.42 0.49 0.52 0.54 0.49 0.48 0.55 0.62 0.65 0.64 0.56 0.45 0.43 0.41 0.38
0.36 0.48 0.47 0.44 0.42 0.34 0.35 0.36 0.40 0.45 0.42 0.35 0.31 0.31 0.27 0.23 0.20 0.18 0.18 0.19 0.22 0.26 0.29 0.30 0.30 0.32 0.33 0.34 0.36 0.39 0.43 0.49 0.53 0.52 0.56 0.65 0.69 0.65 0.64 0.56 0.49 0.45 0.41
0.35 0.39 0.43 0.41 0.32 0.24 0.25 0.24 0.22 0.26 0.29 0.28 0.27 0.26 0.27 0.24 0.22 0.20 0.16 0.17 0.19 0.23 0.27 0.32 0.34 0.37 0.37 0.37 0.38 0.38 0.40 0.47 0.54 0.55 0.53 0.56 0.62 0.69 0.71 0.65 0.56 0.58 0.58
0.25 0.25 0.26 0.24 0.19 0.14 0.10 0.09 0.10 0.11 0.12 0.13 0.16 0.18 0.22 0.20 0.20 0.23 0.19 0.17 0.20 0.24 0.28 0.29 0.30 0.34 0.36 0.37 0.39 0.36 0.36 0.46 0.54 0.60 0.68 0.65 0.58 0.74 0.81 0.77 0.76 0.73 0.78
0.09 0.09 0.08 0.07 0.06 0.05 0.04 0.04 0.05 0.05 0.05 0.06 0.09 0.12 0.16 0.18 0.18 0.20 0.19 0.19 0.24 0.26 0.28 0.29 0.30 0.32 0.34 0.37 0.39 0.40 0.44 0.51 0.55 0.63 0.76 0.82 0.78 0.78 0.83 0.89 0.93 0.97 0.93
0.03 0.03 0.03 0.03 0.02 0.02 0.02 0.02 0.02 0.03 0.03 0.04 0.05 0.07 0.09 0.13 0.15 0.15 0.18 0.21 0.21 0.22 0.26 0.32 0.33 0.33 0.35 0.42 0.48 0.48 0.49 0.57 0.66 0.78 0.87 0.91 0.95 0.93 0.87 0.91 0.95 0.97 1.03
0.01 0.01 0.01 0.01 0.01 0.01 0.01 0.01 0.02 0.02 0.02 0.02 0.03 0.04 0.06 0.08 0.11 0.14 0.16 0.18 0.19 0.20 0.24 0.29 0.34 0.34 0.41 0.59 0.76 0.75 0.66 0.72 0.82 0.91 1.01 1.05 1.10 1.10 1.00 0.95 0.93 0.93 1.01
0.00 0.00 0.00 0.00 0.00 0.01 0.01 0.01 0.02 0.02 0.02 0.02 0.02 0.03 0.05 0.06 0.07 0.09 0.13 0.16 0.18 0.18 0.17 0.19 0.24 0.27 0.33 0.48 0.80 0.97 0.99 0.96 0.89 0.94 1.10 1.18 1.14 1.05 0.99 0.99 0.96 0.95 1.03
0.00 0.00 0.00 0.00 0.00 0.01 0.01 0.01 0.01 0.01 0.01 0.01 0.02 0.02 0.02 0.04 0.05 0.07 0.10 0.13 0.16 0.18 0.17 0.18 0.23 0.28 0.29 0.35 0.56 0.78 0.90 0.93 0.89 0.95 0.99 1.02 1.08 1.06 0.98 0.92 0.91 0.91 1.02
0.00 0.00 0.00 0.00 0.00 0.00 0.00 0.00 0.00 0.00 0.00 0.01 0.01 0.02 0.02 0.03 0.05 0.06 0.09 0.12 0.15 0.17 0.20 0.23 0.28 0.29 0.26 0.27 0.40 0.55 0.65 0.70 0.75 0.81 0.85 0.89 0.92 0.97 1.01 0.96 0.91 0.94 0.96
0.00 0.00 0.00 0.00 0.00 0.00 0.00 0.00 0.01 0.01 0.02 0.03 0.04 0.04 0.04 0.04 0.05 0.06 0.09 0.10 0.11 0.13 0.18 0.25 0.28 0.26 0.23 0.27 0.39 0.44 0.40 0.45 0.50 0.53 0.54 0.66 0.82 0.92 0.97 0.94 0.91 0.94 0.94
0.02 0.02 0.02 0.02 0.03 0.03 0.03 0.03 0.04 0.04 0.05 0.08 0.10 0.08 0.09 0.09 0.09 0.10 0.11 0.11 0.14 0.17 0.20 0.22 0.25 0.24 0.20 0.25 0.30 0.28 0.26 0.29 0.34 0.36 0.34 0.35 0.48 0.67 0.80 0.83 0.83 0.88 0.92
0.08 0.07 0.07 0.05 0.04 0.03 0.03 0.03 0.03 0.03 0.04 0.07 0.12 0.13 0.13 0.13 0.10 0.10 0.12 0.14 0.18 0.22 0.25 0.26 0.28 0.28 0.28 0.22 0.19 0.16 0.18 0.22 0.29 0.32 0.30 0.24 0.23 0.36 0.49 0.60 0.67 0.70 0.71
0.07 0.04 0.03 0.01 0.01 0.01 0.01 0.02 0.02 0.03 0.03 0.05 0.12 0.17 0.18 0.17 0.15 0.17 0.20 0.22 0.26 0.28 0.31 0.32 0.35 0.39 0.37 0.27 0.18 0.14 0.14 0.19 0.27 0.30 0.28 0.25 0.25 0.27 0.32 0.42 0.51 0.57 0.57
0.02 0.01 0.01 0.01 0.01 0.01 0.02 0.03 0.04 0.04 0.06 0.08 0.13 0.18 0.25 0.26 0.25 0.27 0.31 0.35 0.37 0.36 0.36 0.38 0.41 0.47 0.50 0.39 0.24 0.18 0.18 0.24 0.27 0.30 0.28 0.27 0.23 0.21 0.22 0.30 0.37 0.42 0.51
0.00 0.01 0.01 0.01 0.02 0.03 0.04 0.05 0.07 0.09 0.12 0.13 0.17 0.23 0.31 0.36 0.35 0.37 0.41 0.43 0.46 0.44 0.42 0.40 0.43 0.49 0.58 0.49 0.30 0.23 0.25 0.33 0.35 0.39 0.37 0.29 0.25 0.20 0.17 0.23 0.31 0.34 0.37
0.00 0.01 0.01 0.03 0.05 0.08 0.12 0.16 0.18 0.21 0.21 0.22 0.25 0.30 0.36 0.42 0.42 0.44 0.47 0.49 0.50 0.51 0.51 0.49 0.48 0.52 0.59 0.54 0.35 0.28 0.33 0.43 0.48 0.45 0.43 0.38 0.27 0.21 0.17 0.18 0.26 0.28 0.34
0.00 0.01 0.03 0.03 0.05 0.11 0.18 0.24 0.26 0.26 0.28 0.32 0.33 0.36 0.42 0.44 0.43 0.54 0.60 0.65 0.66 0.63 0.60 0.64 0.61 0.58 0.59 0.55 0.42 0.30 0.30 0.43 0.59 0.61 0.56 0.51 0.38 0.25 0.22 0.19 0.20 0.22 0.27
0.00 0.01 0.02 0.04 0.06 0.10 0.16 0.22 0.24 0.26 0.28 0.31 0.33 0.38 0.47 0.53 0.57 0.64 0.68 0.76 0.80 0.78 0.73 0.73 0.77 0.72 0.68 0.65 0.48 0.37 0.30 0.38 0.56 0.71 0.70 0.59 0.46 0.36 0.29 0.27 0.25 0.23 0.24
0.00 0.01 0.03 0.06 0.07 0.09 0.12 0.17 0.24 0.31 0.35 0.36 0.37 0.40 0.47 0.54 0.66 0.76 0.77 0.78 0.82 0.84 0.83 0.80 0.77 0.77 0.77 0.80 0.67 0.51 0.38 0.41 0.56 0.69 0.72 0.64 0.59 0.52 0.43 0.38 0.35 0.30 0.27
0.02 0.04 0.08 0.10 0.10 0.10 0.11 0.13 0.20 0.32 0.39 0.39 0.38 0.42 0.48 0.55 0.68 0.82 0.84 0.75 0.76 0.79 0.75 0.71 0.68 0.70 0.71 0.76 0.71 0.62 0.59 0.61 0.70 0.81 0.92 0.87 0.78 0.71 0.63 0.55 0.49 0.44 0.38
0.06 0.10 0.13 0.14 0.13 0.13 0.14 0.15 0.21 0.33 0.42 0.43 0.40 0.43 0.48 0.56 0.66 0.79 0.85 0.70 0.56 0.54 0.55 0.49 0.44 0.43 0.47 0.57 0.60 0.55 0.53 0.57 0.68 0.84 1.01 0.96 0.86 0.80 0.75 0.69 0.62 0.56 0.50

GEFSMW_prec_meanprecacc_072.txt.gz
Total_Precipitation_Accumulation
0.51 0.71 1.02 1.35 1.73 2.36 3.03 3.23 2.82 2.39 1.99 1.70 1.44 1.19 0.99 0.93 0.87 0.74 0.69 0.69 0.71 0.74 0.83 0.72 0.80 0.95 0.95 0.92 0.98 1.04 0.96 0.81 0.98 1.04 0.75 0.60 0.56 0.58 0.54 0.50 0.49 0.43 0.44
0.73 1.01 1.39 1.61 1.84 2.26 2.72 2.70 2.26 1.81 1.33 1.04 0.93 0.82 0.70 0.60 0.51 0.48 0.52 0.49 0.55 0.63 0.72 0.66 0.58 0.63 0.65 0.60 0.65 0.82 0.84 0.74 0.87 0.96 0.83 0.58 0.53 0.49 0.37 0.41 0.41 0.39 0.47
0.74 1.19 1.69 1.94 2.06 2.07 1.95 1.79 1.36 0.88 0.66 0.50 0.48 0.43 0.41 0.41 0.33 0.30 0.33 0.32 0.35 0.39 0.47 0.50 0.50 0.55 0.62 0.61 0.61 0.65 0.69 0.63 0.64 0.79 0.89 0.69 0.47 0.40 0.37 0.39 0.37 0.42 0.54
0.74 1.28 1.60 1.64 1.64 1.52 1.17 0.89 0.69 0.45 0.33 0.30 0.33 0.34 0.31 0.31 0.27 0.24 0.25 0.24 0.24 0.27 0.30 0.33 0.34 0.41 0.52 0.59 0.54 0.55 0.58 0.57 0.50 0.56 0.65 0.66 0.60 0.53 0.41 0.39 0.43 0.47 0.57
0.53 0.78 0.87 0.93 0.94 0.84 0.68 0.54 0.47 0.37 0.36 0.36 0.39 0.40 0.29 0.24 0.22 0.21 0.20 0.21 0.24 0.26 0.27 0.28 0.28 0.31 0.35 0.39 0.42 0.49 0.52 0.54 0.50 0.49 0.55 0.63 0.66 0.65 0.56 0.45 0.44 0.44 0.41
0.36 0.48 0.47 0.44 0.42 0.34 0.35 0.37 0.44 0.48 0.44 0.36 0.32 0.32 0.28 0.24 0.21 0.18 0.19 0.20 0.22 0.26 0.29 0.30 0.30 0.32 0.33 0.34 0.36 0.40 0.44 0.50 0.54 0.52 0.56 0.65 0.69 0.65 0.65 0.57 0.49 0.47 0.42
0.35 0.40 0.44 0.41 0.32 0.25 0.26 0.26 0.25 0.29 0.31 0.28 0.27 0.27 0.27 0.25 0.23 0.20 0.16 0.17 0.19 0.23 0.27 0.32 0.34 0.37 0.37 0.37 0.38 0.38 0.41 0.47 0.55 0.56 0.54 0.57 0.62 0.69 0.71 0.65 0.56 0.59 0.59
0.25 0.26 0.26 0.24 0.19 0.14 0.11 0.10 0.11 0.12 0.13 0.14 0.16 0.18 0.22 0.20 0.20 0.23 0.19 0.17 0.20 0.24 0.28 0.29 0.30 0.34 0.36 0.38 0.40 0.36 0.36 0.46 0.55 0.60 0.68 0.66 0.59 0.74 0.82 0.77 0.77 0.74 0.78
0.09 0.10 0.08 0.07 0.07 0.05 0.04 0.04 0.05 0.05 0.06 0.07 0.09 0.12 0.16 0.18 0.18 0.20 0.19 0.19 0.25 0.26 0.28 0.29 0.30 0.32 0.35 0.38 0.40 0.41 0.45 0.52 0.56 0.63 0.77 0.82 0.78 0.78 0.83 0.89 0.93 0.98 0.94
0.03 0.04 0.04 0.03 0.02 0.02 0.02 0.02 0.02 0.03 0.03 0.04 0.05 0.07 0.09 0.13 0.15 0.15 0.18 0.21 0.21 0.22 0.27 0.32 0.34 0.34 0.35 0.43 0.49 0.49 0.50 0.58 0.68 0.79 0.88 0.93 0.95 0.94 0.87 0.91 0.96 0.98 1.03
0.01 0.01 0.01 0.01 0.01 0.01 0.01 0.01 0.02 0.02 0.02 0.02 0.03 0.04 0.06 0.08 0.11 0.14 0.16 0.19 0.19 0.21 0.24 0.30 0.34 0.35 0.42 0.60 0.78 0.76 0.68 0.74 0.83 0.92 1.03 1.07 1.12 1.11 1.01 0.96 0.93 0.93 1.02
0.00 0.00 0.00 0.00 0.00 0.01 0.01 0.01 0.02 0.02 0.02 0.02 0.02 0.03 0.05 0.06 0.07 0.09 0.13 0.16 0.19 0.18 0.18 0.20 0.24 0.27 0.34 0.50 0.81 0.98 1.01 0.98 0.91 0.96 1.12 1.20 1.17 1.08 1.02 1.01 0.97 0.96 1.04
0.00 0.00 0.00 0.00 0.00 0.01 0.01 0.01 0.01 0.01 0.01 0.01 0.02 0.02 0.02 0.04 0.05 0.07 0.10 0.13 0.17 0.18 0.18 0.19 0.24 0.29 0.30 0.37 0.57 0.80 0.92 0.95 0.92 0.97 1.02 1.05 1.12 1.10 1.02 0.96 0.94 0.93 1.03
0.00 0.00 0.00 0.00 0.00 0.00 0.00 0.00 0.00 0.00 0.00 0.01 0.01 0.02 0.02 0.03 0.05 0.06 0.09 0.12 0.15 0.17 0.21 0.24 0.29 0.31 0.27 0.28 0.41 0.56 0.67 0.73 0.78 0.84 0.89 0.92 0.95 1.02 1.07 1.00 0.96 0.97 0.99
0.00 0.00 0.00 0.00 0.00 0.00 0.00 0.00 0.01 0.01 0.02 0.03 0.04 0.04 0.04 0.04 0.05 0.06 0.09 0.11 0.12 0.13 0.19 0.26 0.29 0.27 0.24 0.28 0.41 0.46 0.42 0.47 0.53 0.56 0.58 0.69 0.85 0.95 1.00 0.96 0.94 0.98 0.98
0.02 0.02 0.02 0.02 0.03 0.03 0.03 0.03 0.04 0.04 0.05 0.08 0.10 0.08 0.09 0.09 0.09 0.10 0.11 0.12 0.14 0.17 0.20 0.23 0.26 0.25 0.20 0.26 0.30 0.28 0.27 0.30 0.35 0.38 0.37 0.38 0.50 0.69 0.81 0.84 0.84 0.89 0.93
0.08 0.07 0.07 0.05 0.04 0.03 0.03 0.03 0.03 0.03 0.04 0.07 0.12 0.13 0.13 0.13 0.10 0.10 0.12 0.14 0.18 0.22 0.26 0.27 0.29 0.29 0.30 0.23 0.19 0.16 0.18 0.22 0.29 0.33 0.33 0.26 0.25 0.39 0.54 0.65 0.69 0.71 0.71
0.07 0.04 0.03 0.01 0.01 0.01 0.01 0.02 0.02 0.03 0.03 0.05 0.12 0.17 0.18 0.17 0.15 0.17 0.20 0.23 0.26 0.29 0.32 0.33 0.36 0.42 0.39 0.27 0.18 0.14 0.15 0.20 0.27 0.32 0.32 0.31 0.31 0.33 0.39 0.51 0.59 0.64 0.62
0.02 0.01 0.01 0.01 0.01 0.01 0.02 0.03 0.04 0.04 0.06 0.08 0.13 0.18 0.25 0.26 0.25 0.27 0.31 0.35 0.38 0.37 0.37 0.39 0.43 0.49 0.53 0.40 0.25 0.19 0.19 0.25 0.28 0.32 0.33 0.33 0.32 0.29 0.25 0.34 0.41 0.48 0.57
0.00 0.01 0.01 0.01 0.02 0.03 0.04 0.05 0.07 0.09 0.12 0.13 0.17 0.23 0.31 0.36 0.35 0.37 0.41 0.43 0.47 0.45 0.43 0.41 0.45 0.51 0.62 0.52 0.31 0.23 0.26 0.34 0.38 0.44 0.44 0.35 0.28 0.23 0.18 0.26 0.35 0.39 0.42
0.00 0.01 0.01 0.03 0.05 0.08 0.12 0.16 0.18 0.21 0.21 0.22 0.25 0.30 0.36 0.43 0.42 0.44 0.47 0.50 0.51 0.52 0.52 0.50 0.50 0.56 0.63 0.56 0.36 0.29 0.33 0.44 0.51 0.48 0.48 0.44 0.30 0.21 0.17 0.19 0.29 0.32 0.39
0.00 0.01 0.03 0.03 0.05 0.11 0.18 0.24 0.26 0.26 0.28 0.32 0.33 0.36 0.42 0.44 0.43 0.54 0.61 0.66 0.68 0.65 0.63 0.68 0.64 0.61 0.63 0.57 0.43 0.31 0.30 0.44 0.60 0.63 0.59 0.55 0.39 0.26 0.22 0.19 0.20 0.22 0.27
0.00 0.01 0.02 0.04 0.06 0.10 0.16 0.22 0.24 0.26 0.28 0.31 0.33 0.38 0.47 0.53 0.57 0.64 0.68 0.77 0.82 0.79 0.75 0.76 0.80 0.74 0.71 0.68 0.49 0.37 0.30 0.38 0.56 0.72 0.72 0.60 0.47 0.36 0.29 0.27 0.25 0.23 0.24
0.01 0.01 0.03 0.06 0.07 0.09 0.12 0.17 0.24 0.31 0.35 0.36 0.37 0.41 0.47 0.54 0.66 0.77 0.77 0.79 0.83 0.85 0.85 0.82 0.79 0.79 0.79 0.84 0.72 0.56 0.41 0.42 0.57 0.71 0.75 0.65 0.60 0.52 0.44 0.40 0.36 0.31 0.29
0.02 0.04 0.08 0.10 0.11 0.10 0.11 0.13 0.20 0.32 0.39 0.39 0.39 0.43 0.48 0.55 0.69 0.82 0.85 0.76 0.77 0.79 0.76 0.71 0.69 0.71 0.73 0.78 0.72 0.62 0.59 0.62 0.72 0.83 0.95 0.90 0.82 0.76 0.67 0.61 0.56 0.51 0.45
0.06 0.10 0.13 0.14 0.13 0.13 0.14 0.16 0.21 0.33 0.43 0.43 0.41 0.43 0.48 0.56 0.66 0.79 0.85 0.70 0.57 0.55 0.55 0.49 0.44 0.43 0.47 0.57 0.60 0.55 0.53 0.57 0.68 0.84 1.02 0.98 0.90 0.87 0.84 0.80 0.73 0.67 0.60

GEFSMW_prec_meanprecacc_078.txt.gz
Total_Precipitation_Accumulation
0.72 0.88 1.16 1.46 1.83 2.46 3.12 3.29 2.85 2.40 1.99 1.71 1.45 1.20 0.99 0.93 0.88 0.74 0.69 0.69 0.71 0.74 0.83 0.72 0.80 0.95 0.95 0.92 0.98 1.04 0.96 0.81 0.98 1.04 0.75 0.60 0.56 0.58 0.54 0.50 0.50 0.45 0.48
0.98 1.21 1.54 1.72 1.96 2.35 2.77 2.73 2.27 1.82 1.34 1.04 0.93 0.82 0.70 0.61 0.51 0.48 0.52 0.49 0.55 0.63 0.72 0.66 0.58 0.63 0.65 0.60 0.65 0.82 0.84 0.74 0.87 0.96 0.83 0.58 0.53 0.49 0.37 0.42 0.42 0.41 0.51
0.93 1.38 1.84 2.03 2.11 2.10 1.97 1.80 1.37 0.89 0.66 0.50 0.48 0.43 0.41 0.41 0.33 0.30 0.33 0.32 0.35 0.39 0.47 0.50 0.50 0.55 0.62 0.61 0.61 0.65 0.69 0.63 0.64 0.79 0.90 0.69 0.47 0.40 0.37 0.39 0.39 0.45 0.57
0.83 1.39 1.68 1.68 1.66 1.53 1.18 0.89 0.70 0.46 0.33 0.30 0.33 0.34 0.31 0.31 0.27 0.24 0.25 0.24 0.24 0.27 0.30 0.33 0.34 0.41 0.52 0.59 0.54 0.55 0.58 0.57 0.50 0.56 0.65 0.66 0.60 0.53 0.41 0.39 0.44 0.48 0.59
0.58 0.82 0.90 0.95 0.95 0.84 0.68 0.55 0.49 0.40 0.38 0.37 0.39 0.40 0.29 0.24 0.22 0.21 0.20 0.21 0.24 0.26 0.27 0.28 0.28 0.31 0.35 0.39 0.42 0.49 0.52 0.54 0.50 0.49 0.56 0.63 0.66 0.65 0.57 0.45 0.45 0.44 0.41
0.38 0.50 0.48 0.45 0.43 0.35 0.36 0.39 0.49 0.53 0.46 0.36 0.32 0.32 0.28 0.24 0.21 0.18 0.19 0.20 0.22 0.26 0.29 0.30 0.30 0.32 0.33 0.34 0.36 0.40 0.44 0.50 0.54 0.53 0.56 0.65 0.70 0.65 0.65 0.57 0.49 0.47 0.42
0.37 0.41 0.44 0.42 0.32 0.25 0.27 0.29 0.29 0.32 0.32 0.29 0.27 0.27 0.27 0.25 0.23 0.20 0.16 0.17 0.19 0.23 0.27 0.32 0.34 0.37 0.37 0.37 0.38 0.38 0.41 0.47 0.55 0.56 0.54 0.57 0.63 0.69 0.71 0.65 0.56 0.59 0.59
0.26 0.27 0.27 0.25 0.19 0.15 0.11 0.10 0.12 0.13 0.14 0.14 0.16 0.18 0.22 0.20 0.20 0.23 0.19 0.17 0.20 0.24 0.28 0.29 0.30 0.34 0.36 0.38 0.40 0.37 0.36 0.46 0.55 0.60 0.68 0.66 0.59 0.74 0.82 0.78 0.77 0.74 0.78
0.10 0.11 0.09 0.07 0.07 0.07 0.05 0.05 0.05 0.06 0.06 0.07 0.09 0.12 0.16 0.18 0.18 0.20 0.19 0.19 0.25 0.26 0.28 0.29 0.30 0.32 0.35 0.38 0.40 0.41 0.45 0.52 0.56 0.63 0.77 0.83 0.78 0.78 0.83 0.89 0.93 0.98 0.94
0.03 0.04 0.04 0.03 0.03 0.02 0.02 0.02 0.03 0.03 0.03 0.04 0.05 0.07 0.09 0.13 0.15 0.15 0.18 0.21 0.21 0.22 0.27 0.32 0.34 0.34 0.35 0.43 0.50 0.49 0.50 0.58 0.68 0.80 0.89 0.93 0.95 0.94 0.87 0.91 0.96 0.98 1.04
0.01 0.01 0.02 0.01 0.01 0.01 0.01 0.02 0.02 0.02 0.02 0.02 0.03 0.04 0.06 0.08 0.11 0.14 0.16 0.19 0.19 0.21 0.24 0.30 0.34 0.35 0.42 0.60 0.78 0.76 0.68 0.74 0.83 0.93 1.03 1.07 1.12 1.12 1.01 0.96 0.94 0.94 1.02
0.00 0.00 0.00 0.00 0.01 0.01 0.01 0.01 0.02 0.02 0.02 0.02 0.02 0.03 0.05 0.06 0.07 0.09 0.13 0.16 0.19 0.18 0.18 0.20 0.25 0.28 0.34 0.50 0.81 0.99 1.01 0.98 0.91 0.96 1.12 1.20 1.17 1.08 1.02 1.02 0.98 0.96 1.04
0.00 0.00 0.00 0.00 0.00 0.01 0.01 0.01 0.01 0.01 0.01 0.01 0.02 0.02 0.02 0.04 0.05 0.07 0.10 0.13 0.17 0.18 0.18 0.19 0.24 0.29 0.30 0.37 0.58 0.80 0.92 0.95 0.92 0.97 1.02 1.05 1.12 1.10 1.02 0.97 0.94 0.93 1.04
0.00 0.00 0.00 0.00 0.00 0.00 0.00 0.00 0.00 0.00 0.01 0.01 0.02 0.02 0.02 0.03 0.05 0.06 0.09 0.12 0.15 0.17 0.21 0.24 0.29 0.31 0.27 0.28 0.41 0.57 0.68 0.74 0.78 0.84 0.89 0.92 0.96 1.02 1.07 1.01 0.96 0.98 1.00
0.00 0.00 0.00 0.00 0.00 0.00 0.00 0.01 0.01 0.01 0.02 0.03 0.04 0.04 0.04 0.05 0.05 0.06 0.09 0.11 0.12 0.13 0.19 0.26 0.29 0.27 0.24 0.29 0.41 0.46 0.42 0.47 0.53 0.56 0.58 0.69 0.85 0.95 1.01 0.96 0.94 0.98 0.99
0.02 0.02 0.02 0.02 0.03 0.03 0.03 0.03 0.04 0.04 0.05 0.08 0.10 0.09 0.09 0.10 0.09 0.10 0.11 0.12 0.14 0.17 0.20 0.23 0.26 0.25 0.21 0.26 0.30 0.28 0.27 0.30 0.35 0.38 0.37 0.38 0.51 0.69 0.81 0.84 0.84 0.89 0.94
0.08 0.07 0.07 0.05 0.04 0.03 0.03 0.03 0.03 0.03 0.04 0.07 0.12 0.13 0.13 0.13 0.10 0.10 0.12 0.14 0.18 0.22 0.26 0.27 0.29 0.29 0.30 0.23 0.19 0.16 0.18 0.23 0.29 0.33 0.33 0.26 0.25 0.39 0.54 0.65 0.70 0.72 0.72
0.07 0.05 0.03 0.01 0.01 0.01 0.01 0.02 0.02 0.03 0.03 0.05 0.12 0.17 0.19 0.17 0.15 0.17 0.20 0.23 0.26 0.29 0.32 0.33 0.36 0.42 0.39 0.27 0.18 0.15 0.15 0.20 0.27 0.32 0.32 0.31 0.31 0.34 0.40 0.51 0.60 0.64 0.62
0.02 0.01 0.01 0.01 0.01 0.01 0.02 0.03 0.04 0.04 0.06 0.09 0.13 0.19 0.25 0.26 0.26 0.27 0.31 0.35 0.38 0.37 0.37 0.39 0.43 0.49 0.54 0.40 0.25 0.19 0.19 0.25 0.28 0.32 0.33 0.34 0.32 0.30 0.26 0.35 0.42 0.48 0.57
0.01 0.01 0.01 0.01 0.02 0.03 0.04 0.05 0.07 0.09 0.12 0.14 0.17 0.23 0.31 0.36 0.35 0.37 0.41 0.43 0.47 0.46 0.43 0.41 0.45 0.52 0.62 0.53 0.31 0.24 0.26 0.34 0.38 0.44 0.44 0.35 0.29 0.23 0.18 0.26 0.35 0.39 0.42
0.01 0.01 0.01 0.03 0.06 0.08 0.12 0.16 0.19 0.21 0.21 0.23 0.25 0.30 0.36 0.43 0.42 0.44 0.47 0.50 0.51 0.52 0.52 0.51 0.51 0.56 0.63 0.57 0.36 0.29 0.34 0.44 0.51 0.49 0.48 0.45 0.30 0.21 0.17 0.19 0.29 0.32 0.39
0.02 0.02 0.03 0.03 0.06 0.11 0.18 0.25 0.26 0.27 0.29 0.32 0.33 0.36 0.43 0.44 0.43 0.55 0.61 0.66 0.68 0.65 0.63 0.68 0.65 0.62 0.64 0.57 0.43 0.31 0.30 0.44 0.60 0.63 0.59 0.55 0.39 0.26 0.22 0.19 0.20 0.22 0.27
0.02 0.02 0.03 0.04 0.06 0.11 0.17 0.23 0.25 0.27 0.28 0.32 0.34 0.39 0.48 0.55 0.58 0.65 0.69 0.78 0.83 0.80 0.76 0.77 0.80 0.75 0.71 0.68 0.50 0.37 0.30 0.38 0.56 0.72 0.72 0.60 0.47 0.37 0.29 0.27 0.25 0.23 0.24
0.02 0.03 0.05 0.08 0.09 0.10 0.14 0.18 0.25 0.32 0.36 0.37 0.39 0.43 0.50 0.56 0.68 0.78 0.78 0.80 0.84 0.87 0.86 0.83 0.79 0.79 0.79 0.84 0.72 0.56 0.41 0.42 0.57 0.71 0.75 0.65 0.60 0.52 0.44 0.40 0.36 0.31 0.29
0.03 0.06 0.10 0.13 0.12 0.12 0.13 0.15 0.22 0.34 0.42 0.42 0.41 0.45 0.50 0.57 0.70 0.83 0.86 0.77 0.78 0.81 0.78 0.72 0.70 0.72 0.74 0.79 0.73 0.63 0.60 0.62 0.72 0.83 0.95 0.90 0.82 0.76 0.68 0.61 0.56 0.51 0.45
0.07 0.11 0.14 0.15 0.15 0.15 0.16 0.17 0.23 0.36 0.46 0.46 0.43 0.46 0.50 0.58 0.67 0.80 0.86 0.71 0.58 0.56 0.56 0.50 0.45 0.44 0.48 0.58 0.61 0.56 0.53 0.57 0.69 0.85 1.02 0.98 0.90 0.87 0.84 0.80 0.74 0.68 0.61

GEFSMW_prec_meanprecacc_084.txt.gz
Total_Precipitation_Accumulation
0.89 1.07 1.35 1.66 2.06 2.67 3.30 3.42 2.94 2.46 2.03 1.74 1.47 1.22 1.00 0.93 0.88 0.74 0.69 0.69 0.71 0.74 0.83 0.72 0.80 0.95 0.95 0.92 0.98 1.04 0.96 0.81 0.98 1.04 0.75 0.60 0.56 0.58 0.54 0.50 0.50 0.45 0.50
1.08 1.35 1.69 1.88 2.14 2.52 2.90 2.84 2.35 1.86 1.37 1.06 0.95 0.83 0.70 0.61 0.51 0.48 0.52 0.49 0.55 0.63 0.72 0.66 0.58 0.63 0.65 0.60 0.65 0.82 0.84 0.74 0.87 0.96 0.83 0.58 0.53 0.49 0.37 0.42 0.42 0.42 0.51
1.01 1.50 1.97 2.16 2.25 2.24 2.06 1.86 1.42 0.92 0.68 0.51 0.48 0.43 0.41 0.41 0.33 0.30 0.33 0.32 0.35 0.39 0.47 0.50 0.50 0.55 0.62 0.61 0.61 0.65 0.69 0.63 0.64 0.79 0.90 0.69 0.47 0.40 0.37 0.39 0.39 0.45 0.58
0.88 1.52 1.79 1.76 1.73 1.61 1.23 0.93 0.72 0.48 0.34 0.31 0.34 0.34 0.31 0.31 0.27 0.24 0.25 0.24 0.24 0.27 0.30 0.33 0.34 0.41 0.52 0.59 0.54 0.55 0.58 0.57 0.50 0.56 0.65 0.66 0.60 0.53 0.41 0.39 0.44 0.48 0.59
0.62 0.89 0.96 0.99 0.99 0.87 0.70 0.57 0.51 0.41 0.39 0.38 0.39 0.40 0.29 0.24 0.22 0.21 0.20 0.21 0.24 0.26 0.27 0.28 0.28 0.31 0.35 0.39 0.42 0.49 0.52 0.54 0.50 0.49 0.56 0.63 0.66 0.65 0.57 0.45 0.45 0.44 0.41
0.41 0.52 0.51 0.47 0.45 0.36 0.38 0.40 0.50 0.54 0.46 0.37 0.32 0.32 0.28 0.24 0.21 0.18 0.19 0.20 0.22 0.26 0.29 0.30 0.30 0.32 0.33 0.34 0.36 0.40 0.44 0.50 0.54 0.53 0.56 0.65 0.70 0.65 0.65 0.57 0.49 0.47 0.42
0.37 0.42 0.46 0.44 0.34 0.26 0.28 0.29 0.30 0.32 0.32 0.29 0.28 0.27 0.27 0.25 0.23 0.20 0.16 0.17 0.19 0.23 0.27 0.32 0.34 0.37 0.37 0.37 0.38 0.38 0.41 0.47 0.55 0.56 0.54 0.57 0.63 0.69 0.71 0.65 0.56 0.59 0.59
0.27 0.27 0.28 0.27 0.21 0.17 0.14 0.12 0.13 0.13 0.14 0.14 0.17 0.18 0.22 0.20 0.20 0.23 0.19 0.17 0.20 0.24 0.28 0.29 0.30 0.34 0.36 0.38 0.40 0.37 0.36 0.46 0.55 0.60 0.68 0.66 0.59 0.74 0.82 0.78 0.77 0.74 0.78
0.11 0.12 0.09 0.09 0.09 0.08 0.07 0.08 0.06 0.06 0.06 0.07 0.10 0.12 0.17 0.19 0.18 0.20 0.19 0.19 0.25 0.26 0.28 0.29 0.30 0.32 0.35 0.38 0.40 0.41 0.45 0.52 0.56 0.63 0.77 0.83 0.78 0.78 0.83 0.89 0.93 0.98 0.94
0.04 0.04 0.05 0.04 0.03 0.02 0.03 0.03 0.03 0.03 0.04 0.04 0.05 0.07 0.10 0.13 0.15 0.15 0.18 0.21 0.21 0.22 0.27 0.32 0.34 0.34 0.35 0.43 0.50 0.49 0.50 0.58 0.68 0.80 0.89 0.93 0.95 0.94 0.87 0.91 0.96 0.98 1.04
0.01 0.01 0.02 0.02 0.02 0.02 0.01 0.02 0.02 0.02 0.02 0.02 0.03 0.04 0.06 0.08 0.11 0.14 0.16 0.19 0.19 0.21 0.24 0.30 0.34 0.35 0.42 0.60 0.78 0.76 0.68 0.74 0.83 0.93 1.03 1.07 1.12 1.12 1.01 0.96 0.94 0.94 1.02
0.00 0.00 0.00 0.01 0.01 0.01 0.01 0.02 0.02 0.02 0.02 0.02 0.02 0.03 0.05 0.06 0.07 0.09 0.13 0.16 0.19 0.18 0.18 0.20 0.25 0.28 0.34 0.50 0.81 0.99 1.01 0.98 0.91 0.96 1.12 1.20 1.17 1.08 1.02 1.02 0.98 0.96 1.04
0.01 0.01 0.01 0.01 0.01 0.01 0.02 0.02 0.02 0.02 0.02 0.02 0.02 0.02 0.02 0.04 0.05 0.07 0.10 0.13 0.17 0.18 0.18 0.19 0.24 0.29 0.30 0.37 0.58 0.80 0.92 0.95 0.92 0.97 1.02 1.05 1.12 1.10 1.02 0.97 0.94 0.93 1.04
0.01 0.01 0.01 0.01 0.01 0.02 0.02 0.02 0.02 0.03 0.02 0.02 0.02 0.03 0.02 0.03 0.05 0.07 0.09 0.12 0.16 0.17 0.21 0.24 0.29 0.31 0.27 0.28 0.41 0.57 0.68 0.74 0.78 0.84 0.89 0.92 0.96 1.02 1.07 1.01 0.96 0.98 1.00
0.01 0.01 0.01 0.01 0.02 0.03 0.03 0.04 0.04 0.04 0.03 0.04 0.05 0.05 0.05 0.05 0.05 0.07 0.10 0.11 0.12 0.13 0.19 0.26 0.29 0.27 0.24 0.29 0.41 0.46 0.42 0.47 0.53 0.56 0.58 0.69 0.85 0.95 1.01 0.96 0.94 0.98 0.99
0.03 0.03 0.03 0.03 0.03 0.03 0.04 0.04 0.04 0.05 0.06 0.08 0.10 0.09 0.10 0.10 0.10 0.11 0.11 0.12 0.14 0.18 0.21 0.23 0.26 0.25 0.21 0.26 0.30 0.28 0.27 0.30 0.35 0.38 0.37 0.38 0.51 0.69 0.81 0.84 0.84 0.89 0.94
0.09 0.08 0.07 0.06 0.05 0.04 0.03 0.04 0.04 0.05 0.05 0.07 0.12 0.13 0.14 0.13 0.11 0.11 0.12 0.15 0.19 0.23 0.26 0.27 0.29 0.29 0.30 0.23 0.19 0.16 0.18 0.23 0.30 0.33 0.33 0.26 0.25 0.39 0.54 0.65 0.70 0.72 0.72
0.08 0.05 0.03 0.02 0.02 0.02 0.02 0.02 0.03 0.03 0.04 0.06 0.12 0.17 0.19 0.18 0.16 0.17 0.20 0.23 0.27 0.29 0.32 0.33 0.36 0.42 0.39 0.27 0.18 0.15 0.15 0.20 0.27 0.32 0.32 0.31 0.31 0.34 0.40 0.51 0.60 0.64 0.62
0.03 0.02 0.01 0.01 0.01 0.02 0.02 0.04 0.04 0.05 0.06 0.09 0.14 0.19 0.25 0.27 0.26 0.27 0.31 0.35 0.38 0.37 0.37 0.39 0.43 0.49 0.54 0.41 0.25 0.19 0.19 0.25 0.28 0.32 0.33 0.34 0.32 0.30 0.26 0.35 0.42 0.48 0.57
0.02 0.02 0.02 0.02 0.03 0.04 0.05 0.06 0.08 0.10 0.13 0.14 0.18 0.24 0.32 0.37 0.36 0.37 0.41 0.44 0.47 0.46 0.43 0.42 0.45 0.52 0.62 0.53 0.31 0.24 0.26 0.34 0.38 0.44 0.44 0.35 0.29 0.23 0.18 0.26 0.35 0.39 0.42
0.02 0.02 0.03 0.04 0.07 0.09 0.13 0.17 0.20 0.22 0.22 0.24 0.26 0.31 0.37 0.44 0.43 0.46 0.48 0.51 0.52 0.53 0.53 0.51 0.51 0.57 0.64 0.57 0.37 0.30 0.35 0.45 0.52 0.49 0.48 0.45 0.30 0.21 0.17 0.19 0.29 0.32 0.39
0.04 0.04 0.05 0.05 0.08 0.13 0.20 0.26 0.28 0.28 0.30 0.34 0.35 0.38 0.44 0.45 0.44 0.55 0.62 0.67 0.69 0.66 0.64 0.69 0.65 0.62 0.64 0.58 0.44 0.32 0.31 0.44 0.60 0.63 0.59 0.55 0.39 0.26 0.23 0.20 0.20 0.22 0.27
0.05 0.05 0.06 0.07 0.08 0.13 0.19 0.25 0.27 0.29 0.31 0.34 0.36 0.41 0.50 0.56 0.60 0.66 0.70 0.80 0.85 0.82 0.77 0.77 0.81 0.75 0.72 0.69 0.51 0.38 0.31 0.39 0.56 0.72 0.72 0.60 0.47 0.37 0.30 0.27 0.25 0.23 0.25
0.04 0.05 0.07 0.10 0.12 0.14 0.17 0.21 0.27 0.34 0.38 0.39 0.41 0.46 0.52 0.58 0.69 0.79 0.79 0.81 0.85 0.88 0.87 0.84 0.80 0.80 0.80 0.85 0.73 0.57 0.42 0.43 0.58 0.72 0.75 0.66 0.60 0.53 0.44 0.40 0.36 0.31 0.29
0.04 0.07 0.11 0.14 0.14 0.14 0.15 0.17 0.24 0.36 0.43 0.44 0.43 0.47 0.52 0.59 0.71 0.84 0.87 0.78 0.79 0.82 0.79 0.74 0.71 0.72 0.74 0.79 0.74 0.63 0.60 0.63 0.73 0.84 0.95 0.90 0.83 0.76 0.68 0.61 0.56 0.51 0.45
0.07 0.12 0.15 0.16 0.16 0.16 0.17 0.19 0.24 0.38 0.48 0.48 0.46 0.48 0.52 0.60 0.70 0.83 0.88 0.73 0.60 0.59 0.59 0.52 0.46 0.45 0.48 0.58 0.62 0.57 0.54 0.58 0.70 0.85 1.02 0.99 0.91 0.87 0.85 0.80 0.74 0.68 0.61

GEFSMW_prec_meanprecacc_090.txt.gz
Total_Precipitation_Accumulation
0.94 1.14 1.44 1.80 2.21 2.81 3.46 3.58 3.11 2.61 2.16 1.83 1.53 1.25 1.04 0.96 0.91 0.77 0.71 0.70 0.72 0.74 0.83 0.72 0.80 0.95 0.95 0.92 0.98 1.04 0.97 0.81 0.98 1.04 0.75 0.60 0.56 0.58 0.54 0.50 0.50 0.46 0.51
1.12 1.39 1.76 1.99 2.28 2.64 3.01 2.96 2.48 1.98 1.47 1.15 1.02 0.86 0.72 0.63 0.53 0.49 0.52 0.49 0.55 0.63 0.72 0.67 0.58 0.63 0.65 0.61 0.65 0.82 0.84 0.74 0.87 0.96 0.83 0.59 0.53 0.49 0.37 0.42 0.42 0.42 0.51
1.03 1.54 2.03 2.23 2.34 2.34 2.15 1.95 1.52 1.00 0.75 0.57 0.52 0.45 0.43 0.42 0.34 0.31 0.33 0.32 0.35 0.39 0.47 0.50 0.50 0.55 0.62 0.61 0.61 0.65 0.69 0.63 0.64 0.79 0.90 0.69 0.47 0.40 0.37 0.39 0.39 0.45 0.58
0.90 1.55 1.83 1.81 1.78 1.68 1.30 1.00 0.81 0.54 0.39 0.35 0.36 0.37 0.33 0.33 0.28 0.24 0.25 0.24 0.24 0.27 0.30 0.34 0.34 0.41 0.52 0.59 0.54 0.55 0.58 0.57 0.50 0.56 0.65 0.66 0.60 0.53 0.41 0.40 0.44 0.48 0.59
0.63 0.91 0.99 1.03 1.02 0.92 0.75 0.61 0.58 0.47 0.42 0.40 0.41 0.43 0.31 0.25 0.22 0.21 0.20 0.21 0.24 0.26 0.27 0.28 0.28 0.31 0.35 0.39 0.42 0.49 0.52 0.54 0.50 0.49 0.56 0.63 0.66 0.65 0.57 0.45 0.45 0.44 0.41
0.41 0.54 0.53 0.51 0.47 0.39 0.40 0.43 0.55 0.58 0.48 0.38 0.34 0.34 0.29 0.24 0.21 0.18 0.19 0.20 0.22 0.26 0.29 0.30 0.30 0.32 0.33 0.34 0.36 0.40 0.44 0.50 0.54 0.53 0.56 0.65 0.70 0.65 0.65 0.57 0.50 0.47 0.42
0.37 0.43 0.48 0.45 0.35 0.28 0.29 0.31 0.33 0.34 0.33 0.30 0.29 0.28 0.28 0.25 0.23 0.21 0.17 0.17 0.19 0.23 0.27 0.32 0.34 0.37 0.37 0.37 0.38 0.38 0.41 0.47 0.55 0.56 0.54 0.57 0.63 0.69 0.71 0.65 0.57 0.59 0.59
0.27 0.28 0.29 0.28 0.22 0.17 0.14 0.13 0.14 0.15 0.15 0.16 0.18 0.19 0.23 0.21 0.20 0.23 0.19 0.17 0.20 0.24 0.28 0.29 0.30 0.34 0.36 0.38 0.40 0.37 0.37 0.47 0.56 0.60 0.69 0.66 0.59 0.74 0.82 0.78 0.77 0.74 0.78
0.11 0.12 0.10 0.09 0.09 0.08 0.08 0.09 0.08 0.07 0.07 0.08 0.11 0.13 0.17 0.19 0.18 0.20 0.19 0.19 0.25 0.26 0.28 0.29 0.30 0.32 0.35 0.38 0.40 0.41 0.45 0.52 0.56 0.64 0.77 0.83 0.78 0.78 0.83 0.89 0.94 0.98 0.94
0.04 0.04 0.05 0.04 0.03 0.03 0.03 0.04 0.04 0.04 0.05 0.05 0.06 0.07 0.10 0.14 0.16 0.15 0.18 0.21 0.21 0.22 0.27 0.32 0.34 0.34 0.35 0.43 0.50 0.49 0.50 0.59 0.68 0.80 0.89 0.93 0.96 0.94 0.87 0.91 0.96 0.98 1.04
0.01 0.01 0.02 0.02 0.02 0.02 0.01 0.02 0.02 0.02 0.03 0.03 0.03 0.04 0.06 0.08 0.11 0.14 0.16 0.19 0.19 0.21 0.25 0.30 0.34 0.35 0.42 0.60 0.78 0.76 0.68 0.74 0.83 0.93 1.03 1.08 1.13 1.12 1.01 0.96 0.94 0.94 1.03
0.00 0.00 0.00 0.01 0.01 0.01 0.01 0.02 0.02 0.02 0.03 0.03 0.03 0.03 0.05 0.06 0.08 0.10 0.13 0.17 0.19 0.19 0.18 0.20 0.25 0.28 0.34 0.50 0.81 0.99 1.01 0.99 0.91 0.96 1.12 1.20 1.18 1.09 1.03 1.02 0.98 0.97 1.05
0.01 0.01 0.01 0.01 0.01 0.02 0.02 0.02 0.03 0.03 0.02 0.02 0.02 0.03 0.03 0.04 0.06 0.07 0.10 0.14 0.17 0.19 0.18 0.20 0.24 0.29 0.30 0.37 0.58 0.80 0.92 0.95 0.92 0.97 1.02 1.05 1.13 1.11 1.03 0.97 0.94 0.94 1.04
0.01 0.01 0.01 0.01 0.02 0.03 0.03 0.03 0.03 0.03 0.03 0.02 0.03 0.04 0.03 0.04 0.06 0.08 0.10 0.13 0.16 0.18 0.21 0.25 0.29 0.31 0.27 0.28 0.41 0.57 0.68 0.74 0.78 0.84 0.89 0.92 0.96 1.02 1.08 1.02 0.97 0.98 1.00
0.01 0.01 0.01 0.01 0.02 0.03 0.04 0.05 0.05 0.05 0.04 0.04 0.06 0.06 0.06 0.07 0.07 0.09 0.12 0.13 0.14 0.14 0.20 0.27 0.29 0.27 0.24 0.29 0.41 0.46 0.42 0.47 0.53 0.56 0.58 0.69 0.85 0.95 1.01 0.96 0.94 0.99 0.99
0.03 0.04 0.03 0.03 0.04 0.04 0.04 0.05 0.06 0.06 0.07 0.09 0.11 0.10 0.10 0.11 0.11 0.12 0.13 0.13 0.15 0.18 0.22 0.23 0.26 0.26 0.21 0.26 0.30 0.28 0.27 0.30 0.35 0.38 0.37 0.38 0.51 0.69 0.81 0.84 0.84 0.89 0.95
0.09 0.09 0.08 0.06 0.05 0.05 0.05 0.05 0.06 0.06 0.06 0.08 0.13 0.14 0.15 0.14 0.12 0.12 0.13 0.16 0.20 0.24 0.27 0.28 0.29 0.30 0.30 0.23 0.19 0.17 0.19 0.23 0.30 0.33 0.33 0.26 0.25 0.39 0.54 0.65 0.70 0.72 0.72
0.09 0.06 0.04 0.03 0.03 0.03 0.03 0.04 0.04 0.04 0.05 0.07 0.13 0.18 0.19 0.18 0.16 0.17 0.20 0.24 0.27 0.30 0.33 0.34 0.37 0.42 0.40 0.28 0.19 0.15 0.16 0.20 0.28 0.32 0.32 0.31 0.31 0.34 0.40 0.52 0.60 0.65 0.62
0.04 0.03 0.03 0.03 0.02 0.03 0.04 0.05 0.05 0.06 0.07 0.10 0.15 0.20 0.26 0.27 0.26 0.27 0.32 0.35 0.38 0.37 0.37 0.40 0.43 0.50 0.54 0.41 0.25 0.20 0.19 0.25 0.28 0.32 0.33 0.34 0.32 0.30 0.27 0.35 0.42 0.48 0.58
0.03 0.03 0.03 0.03 0.04 0.04 0.06 0.07 0.09 0.11 0.14 0.15 0.19 0.25 0.33 0.37 0.36 0.38 0.42 0.44 0.48 0.46 0.43 0.42 0.45 0.52 0.63 0.54 0.32 0.25 0.27 0.35 0.38 0.44 0.44 0.35 0.29 0.23 0.19 0.27 0.36 0.39 0.42
0.04 0.04 0.04 0.05 0.08 0.10 0.14 0.18 0.21 0.23 0.24 0.26 0.28 0.32 0.39 0.45 0.44 0.46 0.49 0.52 0.52 0.53 0.53 0.51 0.51 0.57 0.64 0.58 0.38 0.31 0.35 0.45 0.52 0.49 0.48 0.45 0.30 0.21 0.18 0.19 0.29 0.32 0.39
0.06 0.05 0.07 0.07 0.09 0.14 0.20 0.27 0.29 0.30 0.32 0.36 0.37 0.40 0.46 0.47 0.45 0.56 0.62 0.67 0.69 0.66 0.64 0.69 0.66 0.63 0.65 0.58 0.44 0.32 0.32 0.44 0.60 0.63 0.60 0.56 0.39 0.26 0.23 0.20 0.20 0.22 0.27
0.07 0.07 0.08 0.09 0.10 0.14 0.21 0.27 0.30 0.32 0.33 0.36 0.38 0.43 0.52 0.58 0.61 0.67 0.71 0.81 0.85 0.82 0.77 0.78 0.81 0.76 0.72 0.70 0.51 0.39 0.32 0.39 0.57 0.72 0.72 0.61 0.47 0.37 0.30 0.27 0.26 0.24 0.25
0.06 0.07 0.09 0.13 0.15 0.16 0.19 0.24 0.30 0.37 0.41 0.42 0.43 0.47 0.53 0.60 0.70 0.80 0.79 0.81 0.86 0.88 0.88 0.85 0.81 0.81 0.81 0.86 0.74 0.58 0.43 0.44 0.59 0.72 0.76 0.66 0.61 0.53 0.44 0.40 0.37 0.32 0.30
0.05 0.08 0.12 0.15 0.16 0.16 0.17 0.20 0.26 0.38 0.45 0.46 0.45 0.49 0.53 0.60 0.72 0.85 0.88 0.79 0.79 0.83 0.80 0.75 0.72 0.74 0.76 0.80 0.75 0.64 0.61 0.63 0.73 0.85 0.96 0.91 0.83 0.77 0.69 0.62 0.57 0.53 0.46
0.09 0.13 0.16 0.17 0.16 0.17 0.18 0.20 0.26 0.40 0.50 0.50 0.47 0.49 0.53 0.60 0.71 0.83 0.88 0.74 0.61 0.59 0.60 0.54 0.48 0.47 0.50 0.59 0.62 0.57 0.54 0.59 0.70 0.86 1.03 0.99 0.92 0.89 0.87 0.83 0.77 0.71 0.64

GEFSMW_prec_meanprecacc_096.txt.gz
Total_Precipitation_Accumulation
1.04 1.22 1.52 1.93 2.34 2.95 3.60 3.72 3.24 2.74 2.29 1.94 1.63 1.33 1.08 0.99 0.94 0.80 0.73 0.71 0.73 0.75 0.83 0.72 0.80 0.95 0.95 0.92 0.98 1.04 0.97 0.81 0.98 1.04 0.76 0.60 0.56 0.58 0.54 0.51 0.50 0.46 0.51
1.19 1.47 1.82 2.08 2.36 2.76 3.14 3.08 2.61 2.09 1.57 1.24 1.11 0.95 0.79 0.68 0.58 0.52 0.54 0.50 0.56 0.63 0.72 0.67 0.58 0.63 0.66 0.61 0.65 0.82 0.84 0.74 0.87 0.96 0.84 0.60 0.55 0.50 0.37 0.42 0.42 0.42 0.52
1.09 1.63 2.10 2.31 2.42 2.45 2.26 2.04 1.63 1.11 0.85 0.66 0.60 0.53 0.51 0.48 0.39 0.34 0.35 0.33 0.35 0.39 0.47 0.50 0.50 0.55 0.62 0.61 0.61 0.65 0.69 0.63 0.64 0.79 0.90 0.70 0.49 0.42 0.38 0.39 0.39 0.45 0.58
0.93 1.60 1.88 1.89 1.85 1.77 1.40 1.08 0.91 0.64 0.48 0.43 0.43 0.43 0.38 0.38 0.31 0.27 0.26 0.24 0.24 0.27 0.30 0.34 0.34 0.41 0.52 0.59 0.55 0.55 0.58 0.57 0.50 0.56 0.65 0.66 0.61 0.54 0.42 0.40 0.44 0.48 0.59
0.65 0.95 1.02 1.07 1.07 0.98 0.82 0.70 0.68 0.55 0.49 0.47 0.47 0.48 0.34 0.27 0.24 0.22 0.21 0.21 0.24 0.26 0.27 0.28 0.29 0.32 0.36 0.39 0.43 0.49 0.52 0.54 0.50 0.49 0.56 0.63 0.66 0.65 0.57 0.47 0.46 0.44 0.41
0.42 0.56 0.56 0.53 0.51 0.43 0.46 0.49 0.61 0.64 0.53 0.43 0.38 0.37 0.32 0.27 0.23 0.19 0.19 0.20 0.22 0.26 0.29 0.30 0.31 0.33 0.33 0.34 0.37 0.40 0.44 0.50 0.54 0.53 0.56 0.65 0.70 0.66 0.65 0.57 0.50 0.47 0.42
0.38 0.44 0.50 0.49 0.39 0.31 0.34 0.37 0.38 0.38 0.36 0.34 0.33 0.31 0.32 0.28 0.24 0.21 0.17 0.17 0.20 0.23 0.27 0.32 0.34 0.37 0.37 0.37 0.38 0.39 0.41 0.48 0.56 0.56 0.55 0.57 0.63 0.69 0.71 0.65 0.57 0.59 0.59
0.27 0.28 0.30 0.31 0.26 0.20 0.18 0.18 0.20 0.18 0.18 0.19 0.22 0.23 0.26 0.22 0.21 0.24 0.20 0.18 0.20 0.24 0.28 0.29 0.30 0.34 0.36 0.38 0.40 0.37 0.37 0.47 0.56 0.61 0.69 0.66 0.59 0.74 0.82 0.78 0.77 0.74 0.78
0.11 0.12 0.10 0.10 0.11 0.10 0.11 0.12 0.12 0.11 0.11 0.13 0.16 0.16 0.19 0.20 0.20 0.21 0.20 0.19 0.25 0.26 0.28 0.29 0.31 0.32 0.35 0.38 0.40 0.41 0.45 0.52 0.56 0.64 0.78 0.83 0.79 0.78 0.84 0.89 0.94 0.98 0.95
0.04 0.05 0.05 0.05 0.04 0.03 0.05 0.07 0.09 0.11 0.11 0.11 0.10 0.09 0.12 0.15 0.17 0.16 0.18 0.21 0.21 0.22 0.27 0.32 0.34 0.34 0.36 0.43 0.50 0.49 0.50 0.59 0.68 0.80 0.89 0.94 0.96 0.95 0.87 0.91 0.96 0.98 1.04
0.01 0.02 0.02 0.02 0.02 0.03 0.03 0.04 0.05 0.06 0.08 0.07 0.08 0.08 0.09 0.10 0.12 0.15 0.17 0.19 0.20 0.21 0.25 0.31 0.35 0.36 0.43 0.61 0.78 0.77 0.68 0.74 0.84 0.93 1.03 1.08 1.13 1.13 1.02 0.97 0.94 0.94 1.03
0.00 0.00 0.00 0.01 0.01 0.01 0.02 0.03 0.04 0.04 0.06 0.06 0.06 0.06 0.10 0.10 0.10 0.11 0.15 0.18 0.20 0.19 0.19 0.22 0.26 0.29 0.35 0.51 0.83 1.00 1.02 0.99 0.91 0.96 1.12 1.21 1.18 1.10 1.03 1.03 0.98 0.97 1.06
0.01 0.01 0.01 0.01 0.01 0.02 0.03 0.04 0.05 0.05 0.06 0.06 0.06 0.07 0.09 0.11 0.11 0.11 0.13 0.16 0.19 0.20 0.20 0.22 0.26 0.31 0.33 0.39 0.59 0.82 0.94 0.97 0.92 0.98 1.03 1.06 1.13 1.11 1.04 0.98 0.95 0.94 1.04
0.01 0.01 0.01 0.01 0.02 0.03 0.04 0.05 0.05 0.07 0.06 0.08 0.10 0.12 0.13 0.15 0.14 0.12 0.13 0.15 0.18 0.20 0.23 0.26 0.31 0.32 0.29 0.30 0.43 0.58 0.70 0.76 0.80 0.85 0.90 0.93 0.96 1.03 1.08 1.02 0.97 0.99 1.01
0.01 0.01 0.01 0.01 0.02 0.03 0.04 0.05 0.06 0.06 0.06 0.07 0.10 0.11 0.12 0.14 0.13 0.14 0.16 0.16 0.15 0.16 0.22 0.28 0.30 0.28 0.25 0.30 0.42 0.47 0.44 0.49 0.55 0.58 0.60 0.71 0.86 0.96 1.02 0.97 0.94 1.00 1.00
0.03 0.04 0.04 0.04 0.04 0.04 0.04 0.05 0.07 0.08 0.09 0.12 0.14 0.12 0.13 0.15 0.14 0.15 0.16 0.16 0.17 0.21 0.24 0.25 0.28 0.27 0.22 0.27 0.32 0.30 0.28 0.32 0.37 0.40 0.39 0.39 0.51 0.69 0.82 0.84 0.84 0.90 0.95
0.10 0.09 0.08 0.07 0.06 0.06 0.06 0.06 0.07 0.07 0.08 0.10 0.14 0.15 0.17 0.18 0.16 0.15 0.17 0.19 0.24 0.28 0.30 0.30 0.31 0.32 0.32 0.25 0.21 0.18 0.19 0.23 0.30 0.34 0.35 0.27 0.26 0.40 0.56 0.66 0.70 0.72 0.72
0.10 0.07 0.05 0.06 0.09 0.07 0.06 0.06 0.08 0.09 0.08 0.10 0.16 0.21 0.24 0.24 0.23 0.24 0.26 0.29 0.32 0.34 0.35 0.35 0.38 0.44 0.41 0.29 0.20 0.16 0.16 0.20 0.28 0.32 0.33 0.32 0.33 0.36 0.42 0.53 0.62 0.66 0.64
0.05 0.05 0.04 0.05 0.06 0.07 0.06 0.07 0.09 0.11 0.15 0.21 0.25 0.29 0.34 0.37 0.37 0.39 0.41 0.44 0.46 0.42 0.40 0.42 0.45 0.51 0.55 0.42 0.26 0.20 0.19 0.25 0.28 0.33 0.34 0.35 0.33 0.31 0.28 0.37 0.43 0.50 0.59
0.04 0.05 0.06 0.06 0.08 0.09 0.09 0.12 0.15 0.19 0.22 0.27 0.33 0.40 0.48 0.54 0.52 0.53 0.56 0.56 0.58 0.54 0.49 0.47 0.50 0.55 0.65 0.56 0.33 0.26 0.27 0.35 0.38 0.45 0.45 0.36 0.30 0.24 0.20 0.28 0.38 0.41 0.43
0.05 0.05 0.06 0.08 0.11 0.14 0.19 0.26 0.29 0.30 0.30 0.33 0.37 0.43 0.50 0.58 0.58 0.60 0.63 0.64 0.63 0.62 0.60 0.59 0.59 0.64 0.71 0.63 0.40 0.33 0.36 0.46 0.52 0.49 0.49 0.45 0.31 0.22 0.18 0.20 0.30 0.33 0.40
0.07 0.07 0.09 0.10 0.12 0.17 0.24 0.31 0.36 0.35 0.37 0.41 0.42 0.45 0.52 0.54 0.53 0.64 0.71 0.78 0.81 0.77 0.73 0.76 0.72 0.68 0.69 0.61 0.47 0.34 0.33 0.45 0.61 0.63 0.60 0.56 0.40 0.26 0.23 0.20 0.20 0.22 0.28
0.08 0.08 0.10 0.12 0.14 0.18 0.25 0.32 0.34 0.36 0.37 0.41 0.43 0.49 0.57 0.63 0.66 0.73 0.78 0.89 0.96 0.93 0.88 0.89 0.92 0.84 0.79 0.76 0.56 0.41 0.33 0.41 0.57 0.72 0.72 0.61 0.47 0.37 0.30 0.27 0.26 0.24 0.25
0.06 0.08 0.11 0.15 0.17 0.19 0.23 0.28 0.34 0.42 0.46 0.47 0.48 0.53 0.59 0.65 0.75 0.85 0.85 0.87 0.93 0.96 0.96 0.93 0.89 0.89 0.89 0.94 0.81 0.62 0.46 0.46 0.60 0.73 0.76 0.66 0.61 0.53 0.44 0.41 0.37 0.32 0.30
0.06 0.08 0.13 0.16 0.17 0.17 0.19 0.22 0.29 0.42 0.50 0.50 0.50 0.54 0.59 0.65 0.78 0.90 0.92 0.83 0.83 0.87 0.85 0.80 0.77 0.79 0.82 0.87 0.80 0.69 0.65 0.66 0.75 0.86 0.97 0.92 0.84 0.78 0.70 0.64 0.60 0.56 0.50
0.09 0.14 0.16 0.17 0.16 0.17 0.19 0.21 0.28 0.42 0.52 0.53 0.50 0.52 0.55 0.63 0.73 0.86 0.91 0.77 0.64 0.62 0.63 0.56 0.50 0.49 0.52 0.62 0.65 0.60 0.56 0.60 0.71 0.86 1.03 1.00 0.93 0.90 0.89 0.86 0.81 0.76 0.70

GEFSMW_prec_meanprecacc_102.txt.gz
Total_Precipitation_Accumulation
1.24 1.46 1.73 2.19 2.69 3.30 3.99 4.08 3.54 2.93 2.43 2.00 1.67 1.36 1.12 1.01 0.95 0.81 0.73 0.71 0.73 0.75 0.83 0.72 0.80 0.95 0.95 0.92 0.98 1.04 0.97 0.81 0.98 1.04 0.76 0.60 0.56 0.58 0.54 0.51 0.51 0.47 0.53
1.33 1.65 1.98 2.31 2.64 3.06 3.51 3.42 2.88 2.28 1.69 1.30 1.14 0.98 0.81 0.69 0.58 0.52 0.54 0.50 0.56 0.63 0.72 0.67 0.58 0.63 0.66 0.61 0.65 0.82 0.84 0.74 0.87 0.96 0.84 0.61 0.56 0.50 0.38 0.42 0.42 0.42 0.52
1.16 1.75 2.23 2.46 2.60 2.66 2.51 2.32 1.85 1.28 0.97 0.73 0.64 0.55 0.52 0.49 0.39 0.34 0.35 0.33 0.35 0.39 0.47 0.50 0.50 0.55 0.62 0.61 0.61 0.65 0.69 0.63 0.64 0.79 0.90 0.71 0.50 0.42 0.38 0.39 0.39 0.45 0.58
0.97 1.68 1.97 1.98 1.94 1.88 1.54 1.27 1.07 0.76 0.57 0.48 0.46 0.44 0.38 0.38 0.32 0.27 0.26 0.24 0.24 0.27 0.30 0.34 0.34 0.41 0.52 0.59 0.55 0.55 0.58 0.57 0.50 0.56 0.65 0.66 0.61 0.54 0.42 0.40 0.44 0.48 0.59
0.68 1.00 1.05 1.14 1.14 1.06 0.92 0.82 0.81 0.65 0.56 0.51 0.50 0.49 0.34 0.28 0.25 0.23 0.21 0.21 0.24 0.26 0.27 0.28 0.29 0.32 0.36 0.40 0.43 0.49 0.52 0.54 0.50 0.49 0.56 0.63 0.66 0.65 0.57 0.47 0.46 0.44 0.41
0.44 0.59 0.59 0.59 0.57 0.51 0.55 0.57 0.69 0.71 0.58 0.46 0.40 0.38 0.33 0.27 0.23 0.19 0.20 0.20 0.22 0.26 0.29 0.30 0.31 0.33 0.33 0.34 0.37 0.40 0.44 0.50 0.54 0.53 0.56 0.65 0.70 0.66 0.65 0.57 0.50 0.47 0.42
0.40 0.47 0.56 0.55 0.44 0.36 0.39 0.42 0.43 0.43 0.40 0.37 0.35 0.33 0.32 0.28 0.24 0.22 0.17 0.17 0.20 0.23 0.27 0.32 0.34 0.37 0.37 0.37 0.38 0.39 0.41 0.48 0.56 0.56 0.55 0.57 0.63 0.69 0.71 0.65 0.57 0.59 0.59
0.28 0.29 0.34 0.34 0.29 0.24 0.21 0.22 0.25 0.23 0.22 0.22 0.24 0.25 0.26 0.23 0.21 0.24 0.20 0.18 0.20 0.24 0.28 0.29 0.30 0.34 0.36 0.38 0.40 0.37 0.37 0.47 0.56 0.61 0.69 0.66 0.59 0.74 0.82 0.78 0.77 0.74 0.78
0.11 0.12 0.11 0.11 0.13 0.13 0.13 0.16 0.17 0.17 0.16 0.16 0.19 0.18 0.20 0.21 0.21 0.22 0.20 0.19 0.25 0.26 0.28 0.29 0.31 0.32 0.35 0.38 0.40 0.41 0.45 0.52 0.56 0.64 0.78 0.84 0.79 0.78 0.84 0.89 0.94 0.98 0.95
0.04 0.05 0.06 0.05 0.05 0.04 0.07 0.12 0.15 0.18 0.20 0.20 0.18 0.15 0.15 0.17 0.19 0.17 0.19 0.22 0.22 0.23 0.28 0.34 0.36 0.35 0.37 0.44 0.51 0.50 0.51 0.59 0.68 0.81 0.90 0.94 0.96 0.95 0.88 0.91 0.96 0.98 1.04
0.02 0.02 0.02 0.02 0.02 0.03 0.05 0.08 0.10 0.15 0.16 0.15 0.15 0.16 0.15 0.16 0.18 0.21 0.21 0.22 0.21 0.23 0.26 0.32 0.36 0.38 0.45 0.63 0.80 0.79 0.71 0.76 0.85 0.95 1.05 1.10 1.15 1.14 1.02 0.97 0.94 0.95 1.03
0.02 0.01 0.01 0.01 0.02 0.03 0.03 0.06 0.08 0.08 0.08 0.09 0.09 0.11 0.15 0.17 0.18 0.21 0.23 0.24 0.24 0.21 0.20 0.23 0.28 0.31 0.37 0.53 0.85 1.02 1.04 1.01 0.94 1.00 1.18 1.27 1.23 1.12 1.04 1.03 0.98 0.97 1.06
0.04 0.03 0.02 0.02 0.02 0.04 0.06 0.06 0.08 0.08 0.08 0.09 0.09 0.10 0.13 0.16 0.20 0.22 0.23 0.22 0.23 0.23 0.22 0.24 0.29 0.33 0.34 0.40 0.60 0.83 0.96 0.98 0.95 1.01 1.06 1.09 1.15 1.12 1.04 0.98 0.95 0.94 1.04
0.06 0.05 0.04 0.03 0.03 0.04 0.06 0.08 0.09 0.10 0.10 0.10 0.12 0.14 0.15 0.17 0.19 0.20 0.21 0.22 0.24 0.24 0.26 0.29 0.32 0.34 0.31 0.32 0.44 0.60 0.71 0.77 0.82 0.87 0.91 0.93 0.97 1.03 1.09 1.03 0.97 0.99 1.01
0.07 0.05 0.04 0.04 0.03 0.04 0.06 0.07 0.09 0.09 0.09 0.10 0.11 0.12 0.14 0.17 0.17 0.18 0.21 0.24 0.25 0.26 0.30 0.34 0.35 0.33 0.30 0.33 0.44 0.49 0.46 0.51 0.57 0.60 0.61 0.72 0.87 0.96 1.02 0.97 0.95 1.00 1.00
0.08 0.08 0.10 0.08 0.06 0.06 0.06 0.07 0.09 0.12 0.13 0.16 0.18 0.15 0.17 0.19 0.18 0.19 0.21 0.25 0.28 0.32 0.35 0.36 0.41 0.39 0.30 0.32 0.36 0.33 0.30 0.34 0.39 0.42 0.41 0.42 0.53 0.70 0.83 0.85 0.85 0.91 0.96
0.15 0.16 0.19 0.14 0.11 0.09 0.10 0.11 0.13 0.14 0.17 0.19 0.24 0.24 0.25 0.26 0.25 0.25 0.30 0.33 0.36 0.41 0.45 0.43 0.43 0.41 0.38 0.31 0.25 0.21 0.22 0.25 0.32 0.36 0.36 0.29 0.28 0.42 0.57 0.68 0.72 0.73 0.73
0.14 0.13 0.13 0.15 0.19 0.19 0.17 0.18 0.22 0.27 0.34 0.36 0.41 0.47 0.50 0.49 0.49 0.52 0.52 0.52 0.53 0.52 0.51 0.50 0.51 0.55 0.50 0.37 0.26 0.20 0.18 0.22 0.29 0.33 0.33 0.33 0.33 0.36 0.43 0.54 0.63 0.67 0.64
0.11 0.11 0.13 0.15 0.20 0.27 0.27 0.25 0.26 0.31 0.41 0.51 0.57 0.64 0.69 0.70 0.70 0.70 0.69 0.71 0.74 0.71 0.67 0.65 0.65 0.68 0.69 0.56 0.38 0.29 0.25 0.29 0.31 0.35 0.36 0.36 0.34 0.32 0.29 0.37 0.44 0.50 0.59
0.08 0.10 0.12 0.14 0.19 0.25 0.27 0.28 0.32 0.35 0.38 0.41 0.50 0.62 0.76 0.83 0.80 0.77 0.80 0.85 0.91 0.88 0.87 0.86 0.85 0.84 0.88 0.75 0.49 0.40 0.38 0.43 0.44 0.49 0.48 0.38 0.31 0.26 0.21 0.29 0.38 0.41 0.44
0.07 0.09 0.10 0.13 0.17 0.22 0.29 0.39 0.45 0.45 0.44 0.45 0.49 0.55 0.66 0.77 0.77 0.79 0.84 0.89 0.92 0.93 0.94 0.90 0.83 0.84 0.88 0.79 0.56 0.47 0.47 0.53 0.59 0.54 0.52 0.49 0.34 0.24 0.19 0.21 0.31 0.34 0.41
0.09 0.11 0.12 0.14 0.17 0.23 0.32 0.43 0.54 0.58 0.60 0.64 0.67 0.70 0.75 0.75 0.74 0.83 0.89 0.95 0.99 0.97 0.95 0.98 0.91 0.84 0.85 0.77 0.61 0.47 0.45 0.57 0.71 0.70 0.65 0.60 0.42 0.28 0.24 0.21 0.21 0.23 0.28
0.09 0.10 0.13 0.17 0.21 0.27 0.38 0.50 0.56 0.60 0.64 0.69 0.74 0.81 0.87 0.90 0.90 0.93 0.96 1.05 1.10 1.07 1.02 1.03 1.05 0.99 0.94 0.91 0.70 0.54 0.46 0.54 0.67 0.80 0.78 0.66 0.50 0.39 0.31 0.28 0.26 0.24 0.26
0.07 0.09 0.12 0.17 0.20 0.21 0.27 0.36 0.45 0.52 0.56 0.58 0.61 0.66 0.74 0.81 0.91 1.03 1.03 1.06 1.11 1.14 1.13 1.10 1.04 1.01 1.00 1.05 0.90 0.71 0.57 0.57 0.69 0.81 0.83 0.71 0.65 0.56 0.46 0.42 0.38 0.33 0.30
0.06 0.08 0.13 0.16 0.17 0.17 0.19 0.23 0.31 0.45 0.54 0.56 0.56 0.61 0.68 0.76 0.88 1.02 1.06 0.98 1.00 1.04 1.01 0.94 0.90 0.91 0.92 0.96 0.87 0.74 0.70 0.72 0.82 0.92 1.03 0.97 0.89 0.82 0.73 0.66 0.61 0.57 0.51
0.09 0.14 0.16 0.17 0.16 0.17 0.19 0.21 0.28 0.42 0.54 0.57 0.55 0.57 0.61 0.70 0.80 0.93 0.98 0.85 0.72 0.71 0.71 0.63 0.56 0.54 0.57 0.67 0.70 0.64 0.60 0.63 0.74 0.89 1.05 1.02 0.95 0.91 0.90 0.87 0.82 0.77 0.71

GEFSMW_prec_meanprecacc_108.txt.gz
Total_Precipitation_Accumulation
1.32 1.65 2.00 2.42 2.93 3.53 4.25 4.32 3.75 3.13 2.60 2.15 1.77 1.44 1.18 1.07 1.02 0.86 0.77 0.75 0.75 0.77 0.84 0.73 0.81 0.95 0.95 0.93 0.98 1.04 0.97 0.81 0.98 1.04 0.76 0.60 0.57 0.59 0.55 0.52 0.52 0.48 0.55
1.39 1.75 2.17 2.52 2.86 3.28 3.78 3.67 3.14 2.50 1.86 1.42 1.25 1.10 0.91 0.76 0.64 0.56 0.57 0.52 0.58 0.64 0.72 0.67 0.58 0.64 0.66 0.61 0.65 0.83 0.84 0.74 0.87 0.96 0.84 0.61 0.56 0.50 0.38 0.43 0.43 0.43 0.53
1.21 1.82 2.31 2.59 2.77 2.86 2.70 2.53 2.10 1.53 1.16 0.89 0.78 0.66 0.59 0.53 0.42 0.35 0.36 0.34 0.36 0.40 0.47 0.50 0.50 0.55 0.62 0.61 0.61 0.66 0.69 0.63 0.64 0.79 0.90 0.71 0.50 0.42 0.38 0.40 0.39 0.46 0.58
1.00 1.72 2.01 2.04 2.06 2.02 1.68 1.44 1.27 0.99 0.79 0.63 0.57 0.50 0.42 0.41 0.34 0.29 0.28 0.25 0.25 0.28 0.31 0.34 0.34 0.41 0.52 0.59 0.55 0.55 0.58 0.57 0.50 0.56 0.65 0.66 0.61 0.54 0.42 0.40 0.44 0.48 0.59
0.71 1.03 1.07 1.16 1.19 1.13 1.01 0.96 0.98 0.83 0.73 0.65 0.60 0.55 0.38 0.31 0.26 0.24 0.22 0.22 0.24 0.27 0.27 0.28 0.29 0.32 0.36 0.40 0.43 0.49 0.52 0.54 0.50 0.49 0.56 0.63 0.66 0.65 0.57 0.47 0.46 0.44 0.41
0.46 0.63 0.63 0.64 0.62 0.56 0.61 0.68 0.82 0.83 0.71 0.58 0.48 0.44 0.36 0.30 0.25 0.21 0.21 0.21 0.23 0.26 0.29 0.30 0.31 0.33 0.33 0.34 0.37 0.40 0.44 0.50 0.54 0.53 0.56 0.65 0.70 0.66 0.65 0.57 0.50 0.47 0.42
0.42 0.51 0.60 0.58 0.48 0.41 0.44 0.49 0.52 0.52 0.49 0.45 0.40 0.37 0.36 0.30 0.26 0.23 0.19 0.18 0.20 0.23 0.27 0.32 0.34 0.37 0.37 0.37 0.38 0.39 0.41 0.48 0.56 0.56 0.55 0.57 0.63 0.69 0.71 0.65 0.57 0.59 0.59
0.29 0.30 0.36 0.35 0.31 0.28 0.25 0.27 0.31 0.29 0.28 0.29 0.30 0.30 0.29 0.25 0.22 0.25 0.21 0.18 0.20 0.24 0.28 0.29 0.30 0.34 0.36 0.38 0.40 0.37 0.37 0.47 0.56 0.61 0.69 0.66 0.59 0.74 0.82 0.78 0.77 0.74 0.78
0.12 0.13 0.12 0.12 0.14 0.15 0.16 0.18 0.20 0.21 0.21 0.22 0.24 0.22 0.23 0.24 0.23 0.24 0.21 0.20 0.25 0.27 0.28 0.29 0.31 0.33 0.35 0.38 0.41 0.42 0.46 0.52 0.56 0.64 0.78 0.84 0.79 0.79 0.84 0.89 0.94 0.98 0.95
0.05 0.06 0.07 0.06 0.05 0.05 0.08 0.14 0.16 0.20 0.24 0.24 0.22 0.18 0.18 0.20 0.21 0.20 0.21 0.24 0.23 0.24 0.28 0.34 0.36 0.35 0.37 0.44 0.51 0.51 0.51 0.59 0.68 0.81 0.90 0.94 0.97 0.95 0.88 0.91 0.96 0.98 1.04
0.04 0.03 0.03 0.02 0.03 0.04 0.06 0.10 0.11 0.15 0.19 0.18 0.18 0.18 0.17 0.18 0.20 0.22 0.23 0.24 0.22 0.23 0.27 0.33 0.37 0.38 0.45 0.64 0.81 0.79 0.71 0.77 0.86 0.96 1.06 1.11 1.15 1.14 1.02 0.97 0.94 0.95 1.03
0.03 0.03 0.02 0.01 0.03 0.04 0.04 0.07 0.09 0.09 0.09 0.11 0.11 0.13 0.17 0.18 0.20 0.23 0.26 0.26 0.24 0.22 0.21 0.24 0.28 0.31 0.38 0.54 0.86 1.02 1.04 1.01 0.94 1.00 1.18 1.28 1.23 1.13 1.04 1.03 0.98 0.97 1.06
0.05 0.04 0.03 0.02 0.03 0.04 0.06 0.07 0.09 0.10 0.10 0.11 0.11 0.12 0.16 0.19 0.22 0.24 0.24 0.23 0.24 0.24 0.23 0.25 0.29 0.34 0.35 0.41 0.61 0.84 0.96 0.99 0.96 1.02 1.06 1.09 1.15 1.12 1.04 0.99 0.95 0.94 1.04
0.07 0.06 0.05 0.05 0.05 0.06 0.08 0.10 0.11 0.13 0.13 0.14 0.15 0.16 0.19 0.20 0.21 0.21 0.22 0.24 0.26 0.26 0.28 0.30 0.34 0.35 0.32 0.32 0.45 0.60 0.71 0.77 0.82 0.87 0.91 0.93 0.97 1.03 1.09 1.03 0.97 0.99 1.01
0.08 0.07 0.06 0.05 0.05 0.06 0.07 0.09 0.12 0.13 0.14 0.14 0.15 0.16 0.18 0.20 0.19 0.21 0.24 0.27 0.28 0.29 0.33 0.38 0.37 0.34 0.31 0.33 0.45 0.50 0.46 0.51 0.57 0.60 0.62 0.72 0.87 0.96 1.02 0.97 0.95 1.00 1.01
0.09 0.10 0.13 0.10 0.09 0.09 0.09 0.10 0.13 0.18 0.20 0.22 0.23 0.20 0.21 0.23 0.21 0.22 0.25 0.29 0.33 0.37 0.39 0.40 0.44 0.42 0.33 0.34 0.37 0.35 0.31 0.34 0.40 0.43 0.42 0.42 0.54 0.72 0.84 0.86 0.86 0.91 0.97
0.16 0.19 0.23 0.18 0.14 0.13 0.14 0.17 0.21 0.23 0.26 0.28 0.34 0.33 0.33 0.33 0.31 0.31 0.35 0.40 0.47 0.50 0.50 0.49 0.48 0.46 0.43 0.35 0.28 0.24 0.24 0.27 0.33 0.37 0.37 0.30 0.29 0.44 0.59 0.70 0.74 0.75 0.74
0.17 0.16 0.17 0.20 0.23 0.23 0.24 0.26 0.32 0.36 0.43 0.47 0.53 0.59 0.60 0.59 0.60 0.64 0.62 0.62 0.64 0.63 0.61 0.59 0.59 0.63 0.58 0.46 0.34 0.27 0.24 0.26 0.32 0.35 0.35 0.34 0.34 0.37 0.44 0.56 0.64 0.68 0.66
0.15 0.15 0.17 0.19 0.23 0.31 0.33 0.32 0.36 0.42 0.54 0.64 0.68 0.74 0.78 0.79 0.79 0.79 0.78 0.79 0.83 0.81 0.79 0.76 0.76 0.80 0.84 0.72 0.54 0.44 0.38 0.38 0.38 0.40 0.39 0.38 0.36 0.34 0.31 0.39 0.45 0.51 0.60
0.12 0.13 0.16 0.18 0.23 0.29 0.32 0.36 0.42 0.47 0.52 0.55 0.61 0.73 0.86 0.92 0.87 0.83 0.85 0.91 0.99 0.97 0.95 0.94 0.96 0.98 1.03 0.91 0.65 0.55 0.51 0.56 0.57 0.60 0.56 0.43 0.35 0.29 0.25 0.32 0.40 0.42 0.44
0.10 0.12 0.13 0.16 0.21 0.26 0.33 0.45 0.53 0.54 0.55 0.57 0.62 0.68 0.78 0.88 0.86 0.87 0.91 0.98 1.01 1.03 1.03 0.99 0.95 0.96 1.00 0.92 0.69 0.60 0.59 0.65 0.70 0.65 0.62 0.57 0.41 0.30 0.25 0.26 0.34 0.36 0.43
0.11 0.13 0.14 0.15 0.20 0.27 0.36 0.49 0.61 0.64 0.67 0.72 0.77 0.84 0.90 0.88 0.85 0.94 1.01 1.08 1.13 1.11 1.08 1.10 1.03 0.97 0.96 0.87 0.71 0.56 0.53 0.64 0.77 0.76 0.73 0.69 0.53 0.37 0.33 0.27 0.26 0.27 0.30
0.11 0.12 0.15 0.18 0.22 0.30 0.41 0.55 0.61 0.65 0.70 0.76 0.82 0.92 0.99 1.01 1.01 1.05 1.09 1.21 1.27 1.25 1.18 1.17 1.18 1.10 1.03 0.99 0.78 0.62 0.53 0.60 0.74 0.86 0.86 0.75 0.61 0.49 0.40 0.36 0.33 0.29 0.29
0.09 0.10 0.14 0.18 0.21 0.23 0.29 0.37 0.46 0.53 0.58 0.61 0.65 0.71 0.79 0.86 0.97 1.08 1.11 1.15 1.23 1.27 1.28 1.24 1.17 1.13 1.11 1.14 0.99 0.79 0.64 0.65 0.77 0.87 0.90 0.79 0.73 0.63 0.53 0.49 0.44 0.38 0.35
0.09 0.10 0.14 0.17 0.18 0.18 0.20 0.23 0.31 0.45 0.55 0.57 0.58 0.63 0.71 0.80 0.94 1.08 1.13 1.05 1.06 1.12 1.11 1.05 1.00 1.00 1.02 1.06 0.99 0.84 0.79 0.80 0.89 0.99 1.10 1.05 0.96 0.88 0.78 0.71 0.66 0.61 0.55
0.13 0.16 0.18 0.18 0.17 0.18 0.19 0.21 0.28 0.42 0.54 0.57 0.57 0.61 0.67 0.77 0.88 1.00 1.05 0.90 0.77 0.76 0.76 0.68 0.62 0.60 0.63 0.73 0.76 0.70 0.65 0.69 0.80 0.95 1.11 1.08 1.00 0.97 0.95 0.91 0.85 0.80 0.74

GEFSMW_prec_meanprecacc_114.txt.gz
Total_Precipitation_Accumulation
1.36 1.72 2.11 2.57 3.07 3.72 4.44 4.48 3.93 3.32 2.78 2.29 1.90 1.57 1.28 1.15 1.09 0.94 0.84 0.82 0.82 0.82 0.90 0.77 0.84 0.98 0.98 0.96 1.01 1.06 0.98 0.82 0.99 1.06 0.78 0.62 0.58 0.59 0.56 0.54 0.54 0.50 0.57
1.42 1.81 2.25 2.66 2.98 3.38 3.90 3.79 3.26 2.66 1.99 1.54 1.39 1.23 1.02 0.85 0.72 0.64 0.63 0.57 0.63 0.68 0.77 0.71 0.62 0.67 0.69 0.64 0.68 0.84 0.86 0.75 0.88 0.98 0.87 0.64 0.59 0.52 0.38 0.43 0.45 0.45 0.56
1.23 1.85 2.34 2.64 2.82 2.92 2.79 2.62 2.20 1.65 1.31 1.02 0.93 0.80 0.71 0.62 0.49 0.42 0.42 0.38 0.39 0.42 0.50 0.52 0.52 0.57 0.64 0.63 0.63 0.67 0.70 0.64 0.64 0.79 0.91 0.72 0.52 0.44 0.39 0.40 0.40 0.47 0.61
1.01 1.74 2.02 2.06 2.09 2.07 1.76 1.54 1.38 1.11 0.93 0.78 0.68 0.61 0.49 0.47 0.41 0.36 0.33 0.30 0.29 0.30 0.33 0.35 0.36 0.43 0.54 0.60 0.55 0.55 0.58 0.58 0.50 0.56 0.65 0.67 0.62 0.55 0.43 0.41 0.44 0.49 0.60
0.72 1.04 1.08 1.18 1.22 1.16 1.06 1.04 1.09 0.96 0.87 0.80 0.75 0.70 0.49 0.40 0.35 0.31 0.28 0.26 0.27 0.28 0.28 0.29 0.30 0.33 0.37 0.40 0.43 0.49 0.53 0.54 0.50 0.49 0.56 0.64 0.66 0.66 0.57 0.48 0.46 0.44 0.42
0.47 0.64 0.64 0.65 0.64 0.58 0.65 0.72 0.89 0.94 0.84 0.73 0.66 0.61 0.49 0.39 0.32 0.27 0.26 0.24 0.26 0.28 0.30 0.31 0.32 0.34 0.34 0.35 0.37 0.40 0.44 0.50 0.54 0.53 0.56 0.65 0.70 0.66 0.65 0.57 0.51 0.47 0.43
0.42 0.51 0.61 0.59 0.50 0.44 0.48 0.53 0.58 0.60 0.58 0.58 0.56 0.53 0.49 0.40 0.34 0.29 0.22 0.20 0.22 0.25 0.29 0.33 0.36 0.38 0.38 0.38 0.39 0.39 0.41 0.48 0.56 0.57 0.55 0.57 0.63 0.69 0.71 0.66 0.57 0.59 0.59
0.29 0.31 0.37 0.36 0.32 0.30 0.29 0.31 0.37 0.36 0.35 0.38 0.41 0.42 0.40 0.33 0.29 0.30 0.23 0.20 0.22 0.26 0.30 0.30 0.31 0.34 0.36 0.38 0.41 0.37 0.37 0.47 0.56 0.61 0.69 0.67 0.59 0.74 0.82 0.78 0.77 0.74 0.79
0.12 0.14 0.13 0.13 0.15 0.17 0.20 0.22 0.25 0.26 0.25 0.29 0.33 0.32 0.31 0.30 0.28 0.28 0.24 0.22 0.27 0.28 0.30 0.30 0.32 0.34 0.36 0.39 0.41 0.42 0.46 0.52 0.57 0.64 0.78 0.84 0.79 0.79 0.84 0.89 0.94 0.98 0.95
0.05 0.06 0.07 0.06 0.06 0.07 0.12 0.18 0.20 0.24 0.28 0.30 0.28 0.24 0.24 0.26 0.27 0.25 0.25 0.28 0.27 0.26 0.30 0.36 0.37 0.37 0.39 0.45 0.52 0.51 0.52 0.60 0.69 0.82 0.90 0.95 0.97 0.96 0.88 0.92 0.96 0.99 1.04
0.04 0.03 0.03 0.03 0.03 0.05 0.07 0.12 0.14 0.18 0.22 0.22 0.22 0.22 0.22 0.22 0.25 0.27 0.29 0.29 0.27 0.27 0.29 0.35 0.39 0.40 0.47 0.65 0.82 0.80 0.72 0.77 0.86 0.96 1.06 1.11 1.15 1.15 1.03 0.97 0.94 0.95 1.03
0.03 0.03 0.02 0.02 0.03 0.04 0.05 0.08 0.10 0.10 0.11 0.14 0.14 0.17 0.22 0.22 0.23 0.26 0.30 0.30 0.28 0.25 0.23 0.26 0.30 0.33 0.40 0.56 0.87 1.03 1.05 1.02 0.95 1.01 1.19 1.28 1.23 1.13 1.05 1.04 0.99 0.97 1.06
0.05 0.04 0.03 0.03 0.03 0.05 0.07 0.08 0.09 0.10 0.11 0.12 0.13 0.14 0.19 0.22 0.25 0.27 0.28 0.27 0.27 0.27 0.25 0.27 0.31 0.36 0.37 0.43 0.63 0.85 0.97 1.00 0.96 1.02 1.08 1.10 1.16 1.13 1.05 1.00 0.96 0.95 1.05
0.07 0.06 0.05 0.05 0.06 0.06 0.08 0.11 0.12 0.13 0.13 0.14 0.16 0.18 0.21 0.26 0.27 0.29 0.30 0.30 0.31 0.31 0.31 0.32 0.36 0.37 0.34 0.35 0.47 0.62 0.73 0.79 0.83 0.88 0.92 0.94 0.98 1.04 1.10 1.04 0.98 0.99 1.02
0.08 0.07 0.06 0.05 0.06 0.07 0.08 0.09 0.12 0.14 0.14 0.15 0.16 0.17 0.20 0.23 0.23 0.25 0.28 0.31 0.32 0.32 0.36 0.40 0.39 0.36 0.33 0.35 0.47 0.52 0.47 0.52 0.59 0.62 0.63 0.74 0.89 0.97 1.03 0.98 0.96 1.01 1.02
0.09 0.11 0.14 0.11 0.10 0.09 0.10 0.11 0.14 0.19 0.21 0.23 0.25 0.22 0.23 0.25 0.23 0.25 0.27 0.31 0.35 0.39 0.41 0.42 0.46 0.44 0.34 0.36 0.40 0.37 0.33 0.37 0.43 0.47 0.45 0.46 0.56 0.73 0.85 0.87 0.86 0.92 0.98
0.17 0.20 0.25 0.20 0.15 0.14 0.15 0.19 0.23 0.25 0.27 0.30 0.36 0.36 0.35 0.36 0.34 0.34 0.38 0.42 0.49 0.52 0.52 0.51 0.50 0.49 0.45 0.38 0.31 0.26 0.26 0.31 0.38 0.41 0.41 0.34 0.32 0.46 0.60 0.71 0.74 0.75 0.75
0.18 0.18 0.20 0.22 0.25 0.24 0.24 0.26 0.33 0.37 0.44 0.49 0.56 0.62 0.63 0.62 0.62 0.65 0.64 0.65 0.67 0.66 0.64 0.62 0.62 0.66 0.62 0.50 0.37 0.30 0.26 0.28 0.35 0.38 0.37 0.37 0.37 0.40 0.46 0.58 0.67 0.71 0.68
0.17 0.17 0.19 0.21 0.25 0.32 0.34 0.33 0.37 0.43 0.56 0.66 0.71 0.77 0.82 0.83 0.83 0.81 0.81 0.83 0.87 0.85 0.83 0.80 0.79 0.83 0.87 0.77 0.59 0.49 0.41 0.41 0.41 0.43 0.43 0.43 0.41 0.40 0.37 0.44 0.50 0.55 0.64
0.13 0.15 0.17 0.19 0.24 0.30 0.33 0.38 0.44 0.49 0.54 0.57 0.64 0.76 0.89 0.95 0.90 0.87 0.90 0.96 1.03 1.01 0.99 0.98 0.99 1.01 1.06 0.96 0.71 0.62 0.57 0.61 0.61 0.65 0.62 0.50 0.41 0.36 0.31 0.37 0.45 0.47 0.49
0.11 0.14 0.15 0.18 0.23 0.28 0.34 0.47 0.55 0.56 0.57 0.60 0.64 0.71 0.80 0.90 0.89 0.91 0.95 1.02 1.06 1.07 1.06 1.02 0.98 0.99 1.04 0.97 0.74 0.67 0.66 0.71 0.77 0.72 0.69 0.63 0.47 0.35 0.30 0.32 0.39 0.42 0.49
0.12 0.14 0.16 0.18 0.21 0.28 0.37 0.50 0.62 0.66 0.68 0.74 0.79 0.86 0.92 0.91 0.88 0.97 1.05 1.12 1.17 1.15 1.12 1.14 1.07 1.01 1.02 0.92 0.75 0.60 0.59 0.70 0.82 0.82 0.77 0.73 0.57 0.41 0.36 0.31 0.30 0.32 0.35
0.13 0.13 0.17 0.21 0.25 0.32 0.42 0.56 0.63 0.66 0.71 0.78 0.83 0.93 1.00 1.03 1.03 1.07 1.12 1.25 1.31 1.29 1.21 1.21 1.23 1.14 1.08 1.04 0.83 0.67 0.58 0.65 0.77 0.90 0.90 0.78 0.64 0.52 0.43 0.40 0.38 0.35 0.34
0.11 0.12 0.15 0.20 0.24 0.25 0.32 0.40 0.48 0.54 0.60 0.63 0.66 0.72 0.81 0.88 0.99 1.11 1.13 1.18 1.25 1.30 1.31 1.28 1.22 1.18 1.17 1.21 1.06 0.86 0.72 0.72 0.83 0.94 0.96 0.86 0.79 0.69 0.58 0.54 0.49 0.43 0.40
0.11 0.12 0.16 0.19 0.21 0.22 0.23 0.25 0.33 0.47 0.57 0.58 0.59 0.64 0.72 0.82 0.96 1.10 1.16 1.09 1.12 1.18 1.17 1.11 1.07 1.07 1.08 1.13 1.06 0.92 0.87 0.88 0.97 1.07 1.17 1.11 1.02 0.95 0.84 0.76 0.70 0.66 0.59
0.16 0.20 0.22 0.21 0.21 0.22 0.23 0.24 0.30 0.44 0.55 0.58 0.58 0.62 0.67 0.78 0.90 1.02 1.07 0.94 0.81 0.80 0.80 0.73 0.65 0.63 0.66 0.76 0.79 0.74 0.69 0.73 0.84 0.99 1.15 1.12 1.05 1.01 0.99 0.96 0.90 0.85 0.79

GEFSMW_prec_meanprecacc_120.txt.gz
Total_Precipitation_Accumulation
1.39 1.77 2.18 2.68 3.21 3.86 4.61 4.69 4.14 3.54 2.98 2.47 2.06 1.76 1.46 1.30 1.23 1.04 0.91 0.87 0.86 0.85 0.93 0.79 0.87 1.00 1.01 1.01 1.05 1.09 1.01 0.85 1.01 1.08 0.83 0.66 0.60 0.61 0.56 0.55 0.55 0.51 0.59
1.43 1.85 2.32 2.74 3.06 3.47 4.01 3.94 3.43 2.79 2.12 1.70 1.54 1.40 1.22 1.00 0.84 0.74 0.73 0.64 0.66 0.70 0.79 0.75 0.65 0.69 0.72 0.67 0.71 0.88 0.89 0.77 0.89 1.00 0.89 0.67 0.64 0.57 0.40 0.44 0.45 0.45 0.57
1.25 1.87 2.38 2.68 2.89 3.00 2.87 2.70 2.30 1.75 1.42 1.18 1.08 0.99 0.91 0.79 0.63 0.54 0.51 0.45 0.44 0.46 0.52 0.54 0.55 0.61 0.67 0.66 0.66 0.69 0.73 0.66 0.66 0.80 0.93 0.75 0.56 0.48 0.42 0.41 0.40 0.47 0.62
1.03 1.76 2.06 2.11 2.15 2.13 1.83 1.63 1.50 1.25 1.06 0.92 0.82 0.75 0.63 0.61 0.52 0.45 0.41 0.36 0.35 0.35 0.36 0.38 0.39 0.47 0.56 0.63 0.56 0.56 0.60 0.59 0.51 0.57 0.66 0.67 0.63 0.58 0.46 0.43 0.45 0.49 0.61
0.74 1.08 1.13 1.23 1.27 1.21 1.12 1.13 1.20 1.11 1.02 0.93 0.88 0.85 0.63 0.52 0.46 0.40 0.37 0.32 0.32 0.33 0.31 0.31 0.33 0.36 0.39 0.42 0.44 0.51 0.54 0.55 0.50 0.50 0.56 0.64 0.66 0.66 0.59 0.50 0.48 0.45 0.42
0.48 0.67 0.70 0.71 0.69 0.62 0.69 0.81 0.99 1.05 0.98 0.87 0.81 0.75 0.63 0.53 0.44 0.36 0.34 0.30 0.30 0.32 0.33 0.34 0.36 0.36 0.36 0.38 0.39 0.42 0.45 0.50 0.55 0.53 0.57 0.66 0.70 0.67 0.66 0.59 0.52 0.49 0.43
0.43 0.54 0.66 0.64 0.54 0.48 0.51 0.60 0.69 0.71 0.71 0.72 0.74 0.71 0.63 0.55 0.45 0.37 0.29 0.27 0.26 0.28 0.32 0.36 0.39 0.41 0.42 0.41 0.40 0.41 0.43 0.49 0.56 0.57 0.55 0.57 0.63 0.70 0.72 0.67 0.59 0.60 0.60
0.30 0.33 0.40 0.39 0.35 0.34 0.33 0.38 0.46 0.46 0.47 0.52 0.58 0.59 0.54 0.46 0.40 0.40 0.30 0.25 0.27 0.30 0.33 0.32 0.33 0.36 0.38 0.40 0.43 0.39 0.39 0.49 0.57 0.61 0.70 0.67 0.59 0.74 0.82 0.78 0.78 0.75 0.80
0.12 0.14 0.14 0.15 0.17 0.21 0.26 0.30 0.35 0.36 0.37 0.43 0.47 0.46 0.45 0.44 0.43 0.40 0.32 0.28 0.33 0.33 0.34 0.32 0.33 0.36 0.38 0.41 0.44 0.44 0.48 0.55 0.58 0.65 0.79 0.84 0.79 0.79 0.84 0.89 0.94 0.99 0.96
0.05 0.06 0.07 0.07 0.08 0.09 0.18 0.26 0.28 0.34 0.39 0.41 0.38 0.35 0.38 0.38 0.38 0.35 0.33 0.37 0.33 0.32 0.36 0.39 0.40 0.39 0.40 0.48 0.55 0.54 0.55 0.63 0.71 0.84 0.92 0.96 0.98 0.96 0.88 0.92 0.97 1.00 1.06
0.04 0.03 0.04 0.04 0.05 0.07 0.11 0.18 0.22 0.28 0.31 0.31 0.32 0.37 0.37 0.36 0.35 0.35 0.36 0.38 0.34 0.34 0.36 0.40 0.43 0.43 0.50 0.68 0.86 0.83 0.74 0.79 0.89 0.98 1.09 1.13 1.17 1.16 1.04 0.98 0.95 0.96 1.05
0.03 0.03 0.02 0.02 0.04 0.06 0.07 0.13 0.14 0.15 0.17 0.22 0.24 0.26 0.31 0.33 0.35 0.36 0.38 0.37 0.33 0.30 0.28 0.31 0.34 0.37 0.44 0.61 0.91 1.06 1.08 1.05 0.98 1.04 1.23 1.31 1.26 1.15 1.06 1.05 0.99 0.98 1.07
0.05 0.04 0.03 0.03 0.04 0.05 0.08 0.10 0.11 0.12 0.13 0.17 0.19 0.22 0.25 0.29 0.35 0.38 0.37 0.34 0.34 0.33 0.31 0.32 0.35 0.39 0.42 0.48 0.67 0.88 1.00 1.03 0.99 1.05 1.10 1.13 1.19 1.15 1.07 1.01 0.97 0.96 1.07
0.07 0.07 0.07 0.05 0.06 0.06 0.09 0.12 0.13 0.15 0.15 0.17 0.21 0.25 0.29 0.32 0.34 0.36 0.39 0.38 0.39 0.39 0.38 0.40 0.42 0.42 0.39 0.39 0.51 0.67 0.77 0.82 0.87 0.91 0.95 0.98 1.01 1.07 1.12 1.06 1.00 1.01 1.04
0.09 0.07 0.07 0.07 0.06 0.07 0.09 0.10 0.13 0.17 0.18 0.19 0.22 0.24 0.27 0.30 0.30 0.33 0.37 0.40 0.42 0.43 0.46 0.49 0.48 0.43 0.38 0.38 0.51 0.58 0.53 0.58 0.63 0.66 0.67 0.77 0.94 1.03 1.08 1.01 0.99 1.05 1.05
0.10 0.12 0.15 0.13 0.12 0.12 0.12 0.13 0.17 0.22 0.27 0.30 0.30 0.27 0.30 0.31 0.29 0.32 0.35 0.39 0.42 0.47 0.52 0.52 0.54 0.51 0.38 0.39 0.43 0.41 0.38 0.42 0.49 0.52 0.51 0.52 0.63 0.79 0.90 0.90 0.89 0.94 1.00
0.18 0.22 0.26 0.21 0.16 0.15 0.17 0.20 0.24 0.27 0.32 0.36 0.42 0.43 0.42 0.42 0.40 0.41 0.46 0.50 0.57 0.59 0.61 0.59 0.58 0.55 0.50 0.42 0.35 0.30 0.30 0.36 0.44 0.48 0.48 0.39 0.38 0.54 0.66 0.75 0.78 0.77 0.77
0.21 0.21 0.22 0.24 0.26 0.26 0.27 0.29 0.35 0.40 0.48 0.55 0.63 0.69 0.70 0.70 0.71 0.74 0.73 0.74 0.77 0.76 0.74 0.71 0.71 0.75 0.69 0.57 0.45 0.37 0.30 0.33 0.39 0.44 0.45 0.45 0.45 0.46 0.52 0.64 0.72 0.75 0.72
0.20 0.22 0.22 0.24 0.27 0.34 0.37 0.36 0.41 0.47 0.61 0.72 0.80 0.86 0.90 0.92 0.92 0.90 0.90 0.94 1.00 0.98 0.95 0.92 0.92 0.95 0.98 0.87 0.67 0.56 0.46 0.45 0.46 0.50 0.51 0.51 0.48 0.45 0.40 0.48 0.55 0.60 0.69
0.17 0.20 0.22 0.24 0.29 0.36 0.38 0.44 0.51 0.56 0.61 0.63 0.71 0.85 0.98 1.04 1.00 0.98 1.03 1.10 1.17 1.15 1.13 1.12 1.12 1.12 1.15 1.04 0.77 0.67 0.61 0.66 0.67 0.71 0.68 0.54 0.45 0.39 0.34 0.40 0.48 0.50 0.53
0.16 0.18 0.21 0.25 0.31 0.37 0.43 0.56 0.66 0.66 0.65 0.67 0.73 0.82 0.93 1.03 1.01 1.04 1.07 1.14 1.18 1.19 1.18 1.13 1.10 1.11 1.14 1.05 0.81 0.72 0.69 0.74 0.80 0.75 0.72 0.66 0.50 0.37 0.32 0.33 0.41 0.44 0.52
0.16 0.18 0.21 0.25 0.29 0.36 0.46 0.60 0.73 0.76 0.78 0.83 0.89 0.96 1.03 1.01 0.99 1.08 1.14 1.22 1.28 1.27 1.23 1.24 1.17 1.11 1.10 1.00 0.82 0.67 0.63 0.73 0.85 0.85 0.80 0.75 0.59 0.42 0.37 0.32 0.31 0.33 0.37
0.17 0.17 0.21 0.26 0.31 0.37 0.50 0.66 0.73 0.76 0.80 0.87 0.91 1.00 1.07 1.10 1.10 1.15 1.20 1.34 1.42 1.40 1.33 1.32 1.32 1.24 1.16 1.12 0.91 0.72 0.62 0.69 0.81 0.93 0.94 0.82 0.67 0.55 0.46 0.44 0.42 0.38 0.37
0.17 0.17 0.19 0.24 0.28 0.29 0.36 0.47 0.55 0.61 0.68 0.71 0.73 0.78 0.88 0.95 1.05 1.17 1.19 1.24 1.32 1.38 1.41 1.37 1.30 1.25 1.24 1.27 1.12 0.92 0.77 0.78 0.90 1.00 1.02 0.90 0.82 0.72 0.61 0.57 0.52 0.46 0.44
0.16 0.17 0.20 0.23 0.24 0.25 0.28 0.31 0.41 0.56 0.65 0.65 0.65 0.72 0.80 0.88 1.02 1.16 1.21 1.14 1.16 1.24 1.23 1.16 1.12 1.13 1.15 1.19 1.13 0.98 0.91 0.92 1.01 1.10 1.20 1.15 1.06 0.98 0.88 0.80 0.74 0.69 0.63
0.20 0.23 0.25 0.24 0.24 0.25 0.27 0.30 0.38 0.52 0.63 0.65 0.65 0.68 0.73 0.83 0.95 1.07 1.12 0.99 0.85 0.84 0.83 0.75 0.68 0.66 0.69 0.78 0.81 0.75 0.70 0.74 0.85 0.99 1.16 1.15 1.07 1.04 1.02 0.99 0.93 0.88 0.82

GEFSMW_prec_meanprecacc_126.txt.gz
Total_Precipitation_Accumulation
1.42 1.81 2.23 2.73 3.31 3.99 4.79 4.91 4.36 3.76 3.23 2.67 2.19 1.88 1.59 1.42 1.40 1.19 1.00 0.92 0.89 0.87 0.94 0.80 0.88 1.01 1.02 1.02 1.08 1.11 1.02 0.86 1.01 1.09 0.86 0.70 0.63 0.63 0.58 0.57 0.58 0.53 0.61
1.47 1.89 2.41 2.83 3.16 3.56 4.14 4.11 3.59 2.94 2.27 1.84 1.64 1.50 1.32 1.08 0.95 0.88 0.83 0.69 0.70 0.73 0.81 0.77 0.66 0.70 0.73 0.67 0.72 0.89 0.90 0.77 0.89 1.00 0.92 0.70 0.66 0.58 0.41 0.45 0.47 0.47 0.59
1.29 1.93 2.43 2.74 2.97 3.08 2.96 2.80 2.44 1.88 1.52 1.29 1.18 1.08 1.04 0.92 0.75 0.66 0.59 0.50 0.48 0.50 0.55 0.56 0.57 0.62 0.68 0.66 0.66 0.69 0.73 0.67 0.66 0.80 0.94 0.76 0.57 0.49 0.43 0.42 0.41 0.48 0.62
1.06 1.80 2.10 2.16 2.21 2.20 1.92 1.74 1.65 1.39 1.16 1.01 0.90 0.81 0.69 0.66 0.59 0.52 0.47 0.41 0.39 0.38 0.39 0.41 0.41 0.48 0.57 0.64 0.57 0.57 0.60 0.60 0.52 0.57 0.66 0.67 0.64 0.58 0.47 0.44 0.45 0.50 0.62
0.77 1.11 1.16 1.27 1.35 1.34 1.26 1.29 1.36 1.27 1.13 1.02 0.96 0.90 0.68 0.57 0.51 0.47 0.44 0.39 0.37 0.36 0.34 0.34 0.35 0.38 0.40 0.43 0.45 0.52 0.54 0.55 0.51 0.50 0.56 0.64 0.67 0.67 0.59 0.51 0.49 0.46 0.43
0.50 0.69 0.73 0.76 0.78 0.75 0.82 0.96 1.15 1.17 1.08 0.98 0.92 0.82 0.69 0.58 0.48 0.42 0.40 0.36 0.36 0.36 0.36 0.37 0.38 0.38 0.37 0.39 0.40 0.43 0.45 0.51 0.55 0.54 0.57 0.66 0.71 0.67 0.66 0.59 0.53 0.49 0.44
0.44 0.56 0.68 0.67 0.61 0.55 0.59 0.69 0.79 0.80 0.80 0.82 0.85 0.79 0.71 0.61 0.49 0.41 0.33 0.31 0.31 0.31 0.35 0.38 0.40 0.42 0.42 0.41 0.41 0.41 0.44 0.50 0.57 0.57 0.55 0.57 0.63 0.70 0.72 0.67 0.59 0.60 0.60
0.30 0.33 0.41 0.41 0.41 0.43 0.41 0.44 0.53 0.53 0.55 0.61 0.67 0.70 0.67 0.57 0.47 0.45 0.35 0.29 0.31 0.33 0.36 0.34 0.35 0.37 0.39 0.40 0.43 0.39 0.39 0.49 0.58 0.61 0.70 0.67 0.59 0.74 0.82 0.78 0.78 0.76 0.80
0.13 0.14 0.15 0.16 0.20 0.25 0.31 0.35 0.41 0.42 0.43 0.50 0.54 0.56 0.57 0.57 0.55 0.50 0.41 0.35 0.38 0.37 0.38 0.34 0.35 0.37 0.39 0.42 0.45 0.45 0.49 0.55 0.58 0.65 0.80 0.84 0.79 0.79 0.84 0.90 0.95 1.00 0.97
0.06 0.07 0.09 0.09 0.09 0.10 0.21 0.30 0.34 0.43 0.47 0.48 0.45 0.41 0.48 0.51 0.52 0.48 0.42 0.44 0.40 0.37 0.41 0.43 0.42 0.40 0.42 0.49 0.56 0.55 0.55 0.63 0.72 0.84 0.93 0.96 0.98 0.96 0.88 0.92 0.97 1.00 1.06
0.06 0.05 0.06 0.05 0.06 0.08 0.14 0.22 0.28 0.35 0.37 0.37 0.38 0.42 0.44 0.46 0.48 0.51 0.47 0.44 0.39 0.38 0.39 0.43 0.46 0.45 0.51 0.69 0.87 0.84 0.76 0.81 0.90 0.99 1.09 1.14 1.18 1.17 1.04 0.98 0.96 0.96 1.05
0.06 0.06 0.05 0.04 0.05 0.07 0.09 0.16 0.17 0.18 0.21 0.26 0.29 0.32 0.38 0.40 0.44 0.48 0.49 0.43 0.38 0.33 0.31 0.33 0.38 0.39 0.47 0.63 0.93 1.08 1.09 1.07 0.99 1.05 1.23 1.32 1.27 1.16 1.07 1.05 1.00 0.98 1.07
0.09 0.08 0.07 0.04 0.05 0.07 0.09 0.12 0.13 0.15 0.16 0.20 0.23 0.29 0.32 0.35 0.42 0.46 0.44 0.39 0.38 0.37 0.35 0.37 0.39 0.43 0.45 0.50 0.70 0.92 1.02 1.04 1.01 1.06 1.12 1.14 1.20 1.16 1.08 1.02 0.98 0.97 1.07
0.12 0.12 0.13 0.09 0.07 0.08 0.11 0.14 0.15 0.17 0.17 0.20 0.26 0.30 0.32 0.35 0.38 0.41 0.45 0.43 0.45 0.45 0.44 0.44 0.46 0.46 0.43 0.42 0.54 0.70 0.80 0.85 0.89 0.93 0.97 0.99 1.03 1.08 1.14 1.07 1.02 1.04 1.06
0.14 0.12 0.13 0.12 0.09 0.09 0.11 0.14 0.17 0.19 0.20 0.22 0.27 0.28 0.30 0.33 0.34 0.37 0.43 0.47 0.50 0.51 0.54 0.57 0.54 0.50 0.44 0.42 0.55 0.62 0.57 0.63 0.68 0.69 0.70 0.80 0.98 1.07 1.13 1.05 1.03 1.09 1.08
0.17 0.19 0.21 0.18 0.15 0.13 0.13 0.15 0.20 0.25 0.29 0.35 0.38 0.34 0.36 0.38 0.37 0.39 0.42 0.48 0.51 0.56 0.62 0.66 0.67 0.62 0.48 0.48 0.52 0.50 0.46 0.51 0.58 0.60 0.58 0.58 0.71 0.86 0.96 0.95 0.93 0.99 1.04
0.27 0.31 0.36 0.28 0.21 0.19 0.21 0.23 0.27 0.31 0.35 0.42 0.51 0.52 0.51 0.52 0.51 0.53 0.56 0.59 0.67 0.69 0.71 0.70 0.71 0.69 0.64 0.56 0.48 0.42 0.41 0.47 0.53 0.55 0.53 0.45 0.45 0.61 0.71 0.80 0.83 0.81 0.80
0.33 0.34 0.33 0.35 0.36 0.34 0.35 0.37 0.40 0.44 0.53 0.61 0.70 0.78 0.79 0.80 0.82 0.88 0.85 0.85 0.88 0.88 0.86 0.84 0.84 0.87 0.82 0.72 0.59 0.51 0.45 0.46 0.48 0.50 0.51 0.53 0.53 0.53 0.58 0.68 0.76 0.78 0.74
0.32 0.40 0.40 0.39 0.40 0.48 0.49 0.47 0.49 0.54 0.68 0.80 0.87 0.94 0.98 1.02 1.05 1.04 1.05 1.09 1.15 1.14 1.10 1.06 1.07 1.10 1.15 1.07 0.87 0.75 0.62 0.57 0.56 0.59 0.60 0.59 0.55 0.52 0.47 0.53 0.58 0.63 0.72
0.33 0.40 0.44 0.44 0.48 0.56 0.54 0.56 0.60 0.68 0.72 0.75 0.82 0.96 1.10 1.19 1.15 1.14 1.21 1.30 1.37 1.33 1.30 1.29 1.31 1.31 1.33 1.22 0.94 0.81 0.72 0.74 0.74 0.78 0.73 0.59 0.49 0.42 0.37 0.42 0.50 0.52 0.55
0.31 0.35 0.38 0.42 0.44 0.51 0.60 0.73 0.83 0.85 0.83 0.86 0.91 1.00 1.12 1.23 1.22 1.25 1.29 1.35 1.39 1.37 1.35 1.30 1.26 1.25 1.25 1.15 0.90 0.82 0.77 0.81 0.86 0.80 0.75 0.69 0.53 0.40 0.35 0.36 0.43 0.45 0.53
0.26 0.29 0.35 0.38 0.43 0.51 0.64 0.79 0.92 0.97 0.99 1.04 1.13 1.19 1.25 1.21 1.17 1.27 1.34 1.39 1.45 1.42 1.37 1.37 1.29 1.23 1.21 1.09 0.91 0.77 0.72 0.80 0.90 0.89 0.84 0.79 0.63 0.45 0.41 0.36 0.35 0.36 0.39
0.25 0.26 0.31 0.36 0.44 0.53 0.66 0.84 0.91 0.94 0.99 1.05 1.11 1.20 1.24 1.26 1.24 1.28 1.32 1.45 1.52 1.51 1.45 1.44 1.45 1.36 1.27 1.22 1.00 0.81 0.70 0.76 0.87 1.00 1.02 0.89 0.74 0.61 0.52 0.50 0.47 0.42 0.40
0.24 0.24 0.28 0.34 0.41 0.43 0.49 0.59 0.66 0.73 0.80 0.84 0.86 0.89 0.98 1.06 1.17 1.28 1.28 1.33 1.40 1.47 1.52 1.51 1.44 1.39 1.37 1.39 1.22 1.01 0.85 0.86 0.96 1.07 1.11 0.99 0.91 0.77 0.64 0.59 0.54 0.47 0.45
0.24 0.26 0.30 0.32 0.34 0.38 0.39 0.41 0.50 0.65 0.74 0.74 0.74 0.79 0.87 0.96 1.12 1.28 1.34 1.25 1.27 1.34 1.34 1.27 1.23 1.23 1.23 1.27 1.19 1.03 0.96 0.96 1.03 1.12 1.22 1.16 1.07 1.00 0.89 0.81 0.75 0.70 0.64
0.27 0.31 0.33 0.32 0.32 0.36 0.37 0.37 0.44 0.59 0.70 0.72 0.70 0.74 0.79 0.89 1.00 1.13 1.18 1.05 0.90 0.89 0.87 0.79 0.72 0.69 0.71 0.80 0.82 0.76 0.71 0.75 0.86 1.00 1.17 1.15 1.08 1.05 1.03 0.99 0.94 0.89 0.83

GEFSMW_prec_meanprecacc_132.txt.gz
Total_Precipitation_Accumulation
1.45 1.85 2.30 2.80 3.40 4.16 5.01 5.18 4.72 4.07 3.42 2.80 2.28 1.97 1.69 1.52 1.48 1.26 1.05 0.97 0.95 0.91 0.96 0.82 0.89 1.02 1.03 1.03 1.09 1.11 1.03 0.87 1.03 1.10 0.87 0.70 0.64 0.64 0.59 0.58 0.59 0.54 0.62
1.50 1.93 2.46 2.88 3.22 3.65 4.29 4.36 3.88 3.20 2.47 1.97 1.75 1.61 1.44 1.21 1.06 0.98 0.90 0.75 0.76 0.77 0.82 0.78 0.67 0.71 0.74 0.68 0.72 0.90 0.91 0.79 0.90 1.00 0.92 0.70 0.67 0.59 0.42 0.46 0.48 0.48 0.60
1.31 1.97 2.47 2.78 3.03 3.15 3.06 3.01 2.68 2.08 1.68 1.43 1.32 1.20 1.15 1.05 0.87 0.76 0.66 0.55 0.52 0.53 0.57 0.57 0.57 0.62 0.68 0.67 0.66 0.70 0.74 0.68 0.67 0.81 0.94 0.77 0.57 0.49 0.44 0.43 0.42 0.49 0.63
1.07 1.82 2.13 2.19 2.26 2.27 2.02 1.91 1.87 1.58 1.33 1.16 1.03 0.89 0.75 0.73 0.65 0.59 0.54 0.48 0.44 0.43 0.42 0.43 0.42 0.48 0.58 0.65 0.58 0.57 0.60 0.60 0.52 0.58 0.66 0.68 0.64 0.58 0.47 0.44 0.45 0.50 0.62
0.78 1.13 1.19 1.29 1.39 1.40 1.35 1.43 1.58 1.54 1.37 1.21 1.10 1.00 0.76 0.65 0.58 0.55 0.51 0.46 0.44 0.40 0.37 0.37 0.37 0.38 0.41 0.44 0.46 0.53 0.55 0.56 0.51 0.50 0.56 0.64 0.67 0.67 0.59 0.51 0.49 0.46 0.43
0.52 0.71 0.75 0.77 0.82 0.81 0.89 1.05 1.35 1.43 1.34 1.22 1.12 0.97 0.79 0.67 0.56 0.47 0.44 0.41 0.41 0.42 0.40 0.39 0.40 0.40 0.38 0.40 0.41 0.43 0.46 0.51 0.55 0.54 0.57 0.66 0.71 0.67 0.66 0.59 0.53 0.49 0.44
0.44 0.57 0.69 0.69 0.63 0.59 0.64 0.76 0.93 1.01 1.01 1.05 1.07 0.97 0.88 0.73 0.58 0.46 0.37 0.35 0.36 0.36 0.39 0.42 0.43 0.45 0.44 0.43 0.42 0.42 0.44 0.50 0.57 0.57 0.55 0.57 0.63 0.70 0.72 0.67 0.59 0.60 0.60
0.31 0.34 0.42 0.42 0.42 0.46 0.46 0.53 0.66 0.69 0.73 0.80 0.88 0.84 0.79 0.66 0.55 0.50 0.39 0.33 0.35 0.38 0.41 0.38 0.38 0.39 0.41 0.42 0.45 0.40 0.40 0.49 0.58 0.62 0.70 0.67 0.59 0.75 0.82 0.78 0.78 0.76 0.80
0.14 0.15 0.16 0.18 0.22 0.28 0.38 0.45 0.54 0.56 0.57 0.63 0.69 0.69 0.66 0.63 0.61 0.56 0.46 0.40 0.44 0.44 0.45 0.39 0.38 0.38 0.40 0.44 0.47 0.46 0.50 0.55 0.58 0.66 0.80 0.85 0.80 0.79 0.84 0.90 0.95 1.00 0.97
0.07 0.09 0.11 0.10 0.10 0.12 0.25 0.37 0.42 0.51 0.57 0.59 0.54 0.51 0.58 0.57 0.58 0.55 0.48 0.49 0.45 0.43 0.46 0.47 0.45 0.43 0.43 0.50 0.57 0.56 0.56 0.64 0.72 0.84 0.93 0.97 0.99 0.97 0.89 0.93 0.97 1.01 1.06
0.07 0.07 0.08 0.08 0.08 0.09 0.15 0.25 0.31 0.40 0.43 0.45 0.45 0.50 0.52 0.53 0.54 0.56 0.52 0.50 0.45 0.43 0.44 0.46 0.49 0.48 0.53 0.71 0.89 0.86 0.78 0.83 0.91 0.99 1.10 1.14 1.18 1.17 1.05 0.99 0.96 0.97 1.05
0.09 0.09 0.09 0.06 0.07 0.08 0.10 0.17 0.19 0.21 0.24 0.29 0.32 0.36 0.44 0.48 0.50 0.55 0.58 0.56 0.50 0.43 0.38 0.38 0.41 0.43 0.51 0.66 0.95 1.10 1.11 1.08 1.00 1.06 1.24 1.32 1.27 1.16 1.08 1.06 1.00 0.99 1.08
0.11 0.12 0.11 0.07 0.06 0.08 0.10 0.14 0.14 0.16 0.18 0.22 0.25 0.31 0.36 0.41 0.47 0.51 0.50 0.48 0.48 0.46 0.44 0.44 0.46 0.49 0.50 0.54 0.72 0.94 1.04 1.06 1.02 1.08 1.13 1.15 1.21 1.17 1.09 1.03 0.98 0.97 1.07
0.14 0.15 0.18 0.11 0.09 0.10 0.13 0.16 0.17 0.19 0.20 0.22 0.28 0.32 0.36 0.40 0.43 0.46 0.49 0.48 0.50 0.51 0.50 0.50 0.52 0.52 0.48 0.47 0.59 0.75 0.84 0.89 0.93 0.98 1.01 1.03 1.05 1.10 1.15 1.09 1.03 1.05 1.07
0.16 0.15 0.15 0.14 0.12 0.13 0.15 0.16 0.19 0.21 0.23 0.25 0.30 0.32 0.37 0.40 0.40 0.43 0.48 0.53 0.56 0.57 0.61 0.65 0.62 0.57 0.50 0.47 0.60 0.69 0.66 0.72 0.79 0.79 0.76 0.85 1.01 1.10 1.16 1.07 1.04 1.11 1.10
0.20 0.22 0.24 0.21 0.18 0.17 0.17 0.17 0.21 0.28 0.33 0.39 0.41 0.39 0.40 0.44 0.44 0.47 0.49 0.56 0.60 0.65 0.72 0.76 0.76 0.69 0.54 0.55 0.60 0.61 0.59 0.65 0.70 0.71 0.67 0.67 0.77 0.91 0.99 0.98 0.96 1.01 1.06
0.32 0.37 0.42 0.34 0.26 0.24 0.24 0.25 0.29 0.33 0.38 0.46 0.55 0.56 0.56 0.58 0.59 0.62 0.65 0.67 0.76 0.80 0.83 0.81 0.81 0.77 0.73 0.66 0.56 0.51 0.50 0.56 0.62 0.63 0.60 0.51 0.50 0.66 0.75 0.84 0.88 0.86 0.85
0.36 0.39 0.41 0.44 0.43 0.41 0.39 0.40 0.42 0.46 0.56 0.65 0.74 0.83 0.85 0.87 0.92 0.97 0.93 0.94 0.98 1.02 1.01 0.96 0.94 0.98 0.91 0.81 0.68 0.60 0.51 0.51 0.52 0.54 0.55 0.57 0.56 0.57 0.62 0.72 0.79 0.81 0.79
0.36 0.44 0.46 0.47 0.49 0.57 0.57 0.53 0.54 0.58 0.74 0.87 0.95 1.01 1.07 1.12 1.15 1.13 1.16 1.22 1.30 1.29 1.27 1.21 1.20 1.22 1.24 1.16 0.95 0.83 0.69 0.64 0.63 0.67 0.67 0.65 0.60 0.58 0.53 0.58 0.62 0.66 0.75
0.38 0.45 0.51 0.50 0.55 0.68 0.67 0.66 0.70 0.76 0.80 0.84 0.91 1.07 1.23 1.34 1.32 1.30 1.39 1.49 1.57 1.53 1.51 1.48 1.48 1.45 1.44 1.31 1.01 0.87 0.77 0.80 0.80 0.84 0.80 0.66 0.55 0.48 0.43 0.47 0.53 0.54 0.56
0.35 0.40 0.45 0.48 0.49 0.58 0.68 0.82 0.94 0.96 0.94 0.98 1.05 1.16 1.31 1.43 1.44 1.48 1.51 1.59 1.64 1.63 1.59 1.52 1.46 1.40 1.37 1.25 0.98 0.88 0.81 0.85 0.90 0.84 0.79 0.72 0.57 0.43 0.39 0.39 0.46 0.49 0.56
0.29 0.34 0.41 0.45 0.49 0.58 0.72 0.90 1.05 1.12 1.16 1.23 1.33 1.38 1.44 1.42 1.39 1.49 1.56 1.61 1.68 1.65 1.60 1.58 1.47 1.37 1.33 1.18 0.99 0.84 0.80 0.87 0.97 0.96 0.90 0.85 0.68 0.50 0.45 0.40 0.40 0.41 0.43
0.27 0.30 0.35 0.42 0.49 0.59 0.74 0.96 1.05 1.13 1.19 1.27 1.31 1.40 1.43 1.43 1.41 1.45 1.50 1.62 1.70 1.68 1.62 1.60 1.58 1.48 1.37 1.31 1.09 0.90 0.79 0.86 0.96 1.08 1.11 0.97 0.81 0.66 0.56 0.54 0.52 0.46 0.44
0.28 0.28 0.33 0.40 0.48 0.51 0.59 0.72 0.81 0.89 0.97 1.01 1.05 1.08 1.15 1.22 1.31 1.41 1.42 1.47 1.55 1.62 1.64 1.61 1.53 1.47 1.45 1.47 1.29 1.08 0.93 0.92 1.03 1.12 1.16 1.05 0.95 0.81 0.68 0.63 0.57 0.50 0.47
0.28 0.30 0.36 0.37 0.41 0.48 0.49 0.53 0.62 0.77 0.85 0.86 0.86 0.93 1.01 1.10 1.24 1.38 1.44 1.36 1.38 1.45 1.44 1.35 1.29 1.28 1.29 1.33 1.26 1.10 1.03 1.02 1.09 1.17 1.26 1.21 1.12 1.04 0.92 0.83 0.77 0.71 0.65
0.29 0.34 0.38 0.38 0.38 0.43 0.46 0.48 0.56 0.71 0.82 0.83 0.79 0.82 0.87 0.97 1.08 1.19 1.25 1.12 0.96 0.95 0.93 0.84 0.75 0.73 0.75 0.83 0.85 0.79 0.74 0.78 0.89 1.02 1.19 1.18 1.10 1.06 1.04 1.00 0.94 0.90 0.84

GEFSMW_prec_meanprecacc_138.txt.gz
Total_Precipitation_Accumulation
1.47 1.87 2.31 2.82 3.46 4.27 5.14 5.35 4.89 4.19 3.53 2.94 2.40 2.03 1.75 1.58 1.54 1.30 1.09 1.02 1.01 0.97 1.04 0.86 0.95 1.07 1.08 1.09 1.14 1.16 1.07 0.91 1.06 1.15 0.92 0.73 0.65 0.66 0.61 0.59 0.60 0.55 0.63
1.51 1.94 2.47 2.89 3.26 3.75 4.42 4.54 4.04 3.32 2.57 2.06 1.84 1.68 1.52 1.28 1.13 1.03 0.95 0.80 0.81 0.83 0.88 0.84 0.71 0.76 0.80 0.73 0.76 0.94 0.96 0.82 0.93 1.05 0.97 0.75 0.70 0.61 0.43 0.47 0.51 0.49 0.60
1.31 1.98 2.48 2.78 3.06 3.22 3.16 3.14 2.81 2.22 1.79 1.54 1.41 1.29 1.25 1.15 0.95 0.82 0.71 0.60 0.58 0.59 0.62 0.62 0.61 0.67 0.71 0.71 0.71 0.75 0.80 0.73 0.70 0.83 0.98 0.82 0.62 0.54 0.47 0.44 0.42 0.50 0.64
1.08 1.83 2.14 2.20 2.27 2.31 2.07 1.98 1.95 1.68 1.44 1.28 1.14 0.97 0.81 0.79 0.69 0.63 0.58 0.53 0.49 0.48 0.46 0.46 0.46 0.52 0.60 0.69 0.61 0.61 0.65 0.65 0.56 0.61 0.69 0.70 0.67 0.62 0.51 0.46 0.46 0.51 0.63
0.79 1.13 1.19 1.30 1.40 1.42 1.37 1.47 1.64 1.61 1.46 1.32 1.22 1.11 0.87 0.73 0.66 0.62 0.59 0.54 0.51 0.46 0.42 0.42 0.42 0.42 0.43 0.47 0.51 0.58 0.59 0.60 0.55 0.54 0.59 0.66 0.69 0.69 0.61 0.54 0.51 0.47 0.43
0.52 0.71 0.75 0.78 0.83 0.83 0.91 1.09 1.41 1.51 1.43 1.32 1.22 1.07 0.90 0.78 0.66 0.57 0.52 0.48 0.48 0.49 0.47 0.45 0.48 0.45 0.41 0.44 0.47 0.49 0.50 0.55 0.59 0.58 0.60 0.68 0.73 0.69 0.68 0.61 0.55 0.51 0.44
0.44 0.57 0.70 0.70 0.64 0.60 0.66 0.80 0.99 1.08 1.09 1.13 1.15 1.07 1.00 0.85 0.70 0.59 0.46 0.41 0.41 0.41 0.46 0.49 0.51 0.50 0.49 0.47 0.46 0.46 0.48 0.54 0.62 0.62 0.58 0.60 0.65 0.71 0.72 0.67 0.59 0.61 0.60
0.31 0.34 0.43 0.43 0.43 0.47 0.47 0.55 0.68 0.74 0.79 0.87 0.95 0.92 0.88 0.81 0.68 0.64 0.49 0.40 0.40 0.43 0.46 0.45 0.45 0.46 0.47 0.47 0.49 0.43 0.43 0.53 0.62 0.65 0.73 0.70 0.61 0.75 0.82 0.79 0.78 0.76 0.81
0.14 0.16 0.16 0.18 0.23 0.30 0.39 0.47 0.56 0.60 0.64 0.70 0.77 0.76 0.74 0.74 0.73 0.68 0.56 0.46 0.49 0.50 0.51 0.45 0.45 0.44 0.45 0.48 0.50 0.50 0.53 0.59 0.62 0.70 0.84 0.88 0.82 0.80 0.84 0.90 0.96 1.02 0.99
0.07 0.09 0.11 0.11 0.11 0.14 0.26 0.41 0.46 0.54 0.62 0.65 0.63 0.62 0.69 0.68 0.69 0.65 0.57 0.55 0.52 0.50 0.53 0.53 0.50 0.48 0.48 0.54 0.61 0.60 0.60 0.67 0.76 0.88 0.97 1.01 1.01 0.99 0.90 0.94 0.99 1.02 1.08
0.07 0.07 0.08 0.08 0.09 0.11 0.17 0.27 0.35 0.42 0.46 0.50 0.53 0.63 0.68 0.66 0.62 0.63 0.58 0.57 0.52 0.50 0.51 0.52 0.54 0.52 0.58 0.75 0.92 0.89 0.81 0.86 0.93 1.02 1.13 1.19 1.21 1.20 1.07 1.01 0.98 0.98 1.07
0.09 0.10 0.09 0.07 0.07 0.10 0.12 0.19 0.21 0.23 0.26 0.32 0.39 0.47 0.58 0.58 0.57 0.60 0.63 0.61 0.57 0.50 0.44 0.44 0.46 0.46 0.55 0.70 0.99 1.13 1.14 1.11 1.02 1.08 1.27 1.35 1.30 1.19 1.10 1.08 1.02 1.00 1.10
0.12 0.12 0.12 0.07 0.06 0.09 0.12 0.15 0.16 0.18 0.20 0.24 0.28 0.35 0.44 0.50 0.54 0.56 0.55 0.54 0.56 0.55 0.51 0.50 0.51 0.56 0.57 0.60 0.78 0.99 1.09 1.10 1.06 1.11 1.16 1.19 1.24 1.20 1.12 1.05 1.01 0.99 1.09
0.15 0.16 0.18 0.12 0.09 0.11 0.14 0.17 0.18 0.20 0.21 0.23 0.30 0.34 0.40 0.46 0.50 0.51 0.54 0.54 0.60 0.61 0.61 0.61 0.62 0.62 0.59 0.58 0.70 0.84 0.92 0.96 1.00 1.05 1.08 1.09 1.09 1.15 1.20 1.12 1.07 1.08 1.10
0.17 0.15 0.16 0.15 0.13 0.14 0.16 0.17 0.20 0.23 0.24 0.26 0.32 0.35 0.41 0.45 0.47 0.50 0.55 0.60 0.63 0.64 0.69 0.75 0.73 0.69 0.62 0.58 0.70 0.78 0.73 0.80 0.86 0.86 0.83 0.91 1.08 1.16 1.20 1.11 1.08 1.15 1.14
0.20 0.22 0.25 0.22 0.20 0.18 0.18 0.18 0.22 0.30 0.36 0.41 0.43 0.41 0.44 0.49 0.49 0.53 0.56 0.64 0.68 0.73 0.80 0.84 0.84 0.77 0.60 0.62 0.68 0.69 0.67 0.71 0.77 0.79 0.75 0.74 0.84 0.97 1.04 1.01 0.99 1.04 1.09
0.33 0.39 0.45 0.37 0.28 0.25 0.25 0.26 0.30 0.35 0.42 0.49 0.59 0.60 0.60 0.63 0.64 0.67 0.70 0.75 0.85 0.89 0.91 0.89 0.88 0.85 0.81 0.74 0.64 0.59 0.58 0.63 0.69 0.69 0.66 0.56 0.54 0.70 0.80 0.89 0.91 0.89 0.88
0.37 0.40 0.42 0.46 0.44 0.41 0.40 0.41 0.44 0.48 0.59 0.70 0.80 0.86 0.89 0.93 0.99 1.03 0.99 1.01 1.06 1.11 1.09 1.03 1.03 1.09 1.02 0.91 0.77 0.68 0.59 0.58 0.58 0.60 0.61 0.62 0.61 0.62 0.69 0.79 0.85 0.87 0.83
0.37 0.45 0.47 0.49 0.50 0.58 0.58 0.55 0.55 0.60 0.76 0.91 1.02 1.06 1.11 1.17 1.21 1.19 1.23 1.31 1.38 1.39 1.39 1.32 1.32 1.34 1.38 1.30 1.07 0.93 0.78 0.73 0.71 0.75 0.76 0.73 0.68 0.66 0.61 0.65 0.70 0.74 0.81
0.39 0.47 0.53 0.52 0.57 0.70 0.69 0.68 0.72 0.78 0.83 0.87 0.96 1.12 1.28 1.40 1.38 1.37 1.48 1.60 1.70 1.66 1.64 1.64 1.65 1.62 1.61 1.50 1.17 1.01 0.88 0.89 0.89 0.93 0.88 0.74 0.62 0.55 0.49 0.52 0.59 0.60 0.61
0.37 0.43 0.47 0.50 0.51 0.60 0.70 0.84 0.95 0.98 0.98 1.03 1.10 1.22 1.37 1.51 1.53 1.58 1.61 1.70 1.79 1.78 1.75 1.69 1.64 1.60 1.58 1.45 1.16 1.04 0.95 0.99 1.02 0.94 0.88 0.81 0.66 0.51 0.46 0.45 0.51 0.53 0.59
0.31 0.35 0.42 0.46 0.50 0.60 0.74 0.92 1.07 1.15 1.20 1.28 1.41 1.46 1.52 1.51 1.48 1.58 1.67 1.72 1.79 1.78 1.76 1.78 1.68 1.58 1.53 1.37 1.17 1.01 0.95 1.02 1.10 1.07 0.98 0.93 0.76 0.55 0.50 0.45 0.44 0.46 0.47
0.29 0.31 0.36 0.43 0.51 0.61 0.76 0.99 1.08 1.17 1.24 1.32 1.40 1.51 1.56 1.58 1.55 1.59 1.63 1.74 1.80 1.79 1.73 1.73 1.74 1.63 1.53 1.46 1.23 1.01 0.89 0.94 1.03 1.15 1.18 1.04 0.88 0.72 0.61 0.59 0.56 0.50 0.48
0.29 0.30 0.35 0.42 0.50 0.53 0.60 0.74 0.84 0.93 1.02 1.08 1.14 1.19 1.29 1.39 1.50 1.61 1.60 1.61 1.68 1.75 1.78 1.76 1.69 1.64 1.60 1.61 1.41 1.18 1.02 1.00 1.09 1.18 1.22 1.10 1.00 0.86 0.72 0.67 0.61 0.53 0.50
0.29 0.31 0.38 0.39 0.43 0.49 0.52 0.57 0.66 0.83 0.93 0.94 0.97 1.05 1.15 1.25 1.40 1.54 1.59 1.51 1.51 1.57 1.55 1.47 1.41 1.39 1.38 1.45 1.37 1.19 1.10 1.09 1.16 1.24 1.33 1.27 1.17 1.08 0.97 0.88 0.82 0.76 0.69
0.30 0.35 0.39 0.39 0.40 0.44 0.48 0.51 0.61 0.77 0.88 0.90 0.88 0.91 0.97 1.07 1.18 1.29 1.35 1.23 1.06 1.04 1.00 0.90 0.81 0.78 0.81 0.90 0.92 0.86 0.81 0.84 0.95 1.08 1.24 1.22 1.14 1.10 1.07 1.04 0.98 0.94 0.87

GEFSMW_prec_meanprecacc_144.txt.gz
Total_Precipitation_Accumulation
1.47 1.87 2.32 2.83 3.48 4.30 5.17 5.42 5.03 4.34 3.68 3.10 2.54 2.14 1.83 1.65 1.61 1.38 1.16 1.08 1.05 1.02 1.10 0.93 1.01 1.11 1.13 1.13 1.16 1.18 1.10 0.93 1.09 1.18 0.98 0.78 0.70 0.69 0.62 0.60 0.61 0.56 0.64
1.51 1.95 2.48 2.91 3.28 3.77 4.47 4.62 4.15 3.43 2.69 2.20 1.98 1.80 1.60 1.35 1.20 1.11 1.04 0.86 0.85 0.87 0.92 0.91 0.76 0.80 0.85 0.78 0.81 0.99 1.03 0.87 0.96 1.10 1.05 0.85 0.82 0.70 0.44 0.48 0.51 0.50 0.61
1.32 1.98 2.49 2.80 3.07 3.24 3.19 3.21 2.92 2.34 1.92 1.67 1.53 1.40 1.34 1.22 1.03 0.90 0.79 0.65 0.61 0.62 0.67 0.66 0.66 0.73 0.75 0.77 0.76 0.79 0.85 0.80 0.75 0.87 1.05 0.92 0.75 0.64 0.51 0.45 0.43 0.51 0.66
1.08 1.84 2.14 2.20 2.29 2.35 2.12 2.06 2.02 1.79 1.60 1.44 1.26 1.07 0.87 0.84 0.76 0.70 0.65 0.58 0.53 0.52 0.50 0.52 0.51 0.57 0.64 0.75 0.65 0.67 0.70 0.71 0.62 0.65 0.72 0.74 0.74 0.71 0.61 0.52 0.48 0.52 0.65
0.80 1.14 1.20 1.30 1.41 1.47 1.45 1.52 1.69 1.69 1.56 1.46 1.38 1.25 0.97 0.81 0.73 0.70 0.68 0.61 0.58 0.53 0.49 0.48 0.49 0.48 0.47 0.52 0.57 0.67 0.64 0.64 0.59 0.57 0.62 0.69 0.74 0.72 0.67 0.63 0.56 0.50 0.44
0.53 0.72 0.76 0.79 0.84 0.85 0.94 1.12 1.46 1.58 1.51 1.41 1.34 1.19 1.02 0.89 0.76 0.67 0.60 0.55 0.55 0.57 0.54 0.51 0.54 0.50 0.47 0.49 0.52 0.55 0.56 0.61 0.66 0.63 0.63 0.72 0.76 0.72 0.71 0.65 0.59 0.54 0.45
0.45 0.58 0.70 0.70 0.65 0.63 0.68 0.83 1.02 1.13 1.16 1.21 1.24 1.17 1.10 0.97 0.82 0.69 0.55 0.49 0.49 0.48 0.54 0.56 0.57 0.55 0.54 0.52 0.51 0.51 0.53 0.59 0.67 0.65 0.61 0.63 0.68 0.73 0.74 0.69 0.61 0.63 0.62
0.31 0.35 0.43 0.43 0.44 0.50 0.52 0.58 0.71 0.80 0.87 0.95 1.02 1.01 0.99 0.92 0.80 0.75 0.59 0.49 0.47 0.50 0.55 0.54 0.51 0.51 0.51 0.50 0.53 0.47 0.47 0.57 0.66 0.69 0.78 0.74 0.63 0.76 0.83 0.81 0.80 0.78 0.83
0.14 0.16 0.16 0.18 0.23 0.33 0.45 0.52 0.59 0.64 0.70 0.76 0.85 0.87 0.86 0.86 0.85 0.79 0.67 0.56 0.58 0.58 0.61 0.53 0.51 0.49 0.49 0.51 0.55 0.54 0.57 0.63 0.66 0.75 0.90 0.92 0.84 0.81 0.85 0.92 0.98 1.05 1.02
0.07 0.09 0.11 0.11 0.12 0.16 0.31 0.45 0.51 0.59 0.68 0.71 0.71 0.71 0.81 0.80 0.80 0.76 0.68 0.65 0.62 0.60 0.65 0.63 0.59 0.55 0.53 0.59 0.67 0.64 0.64 0.71 0.80 0.93 1.02 1.06 1.05 1.02 0.93 0.97 1.02 1.05 1.10
0.07 0.07 0.08 0.08 0.10 0.12 0.20 0.31 0.40 0.48 0.54 0.57 0.61 0.71 0.77 0.75 0.72 0.73 0.68 0.67 0.63 0.63 0.62 0.61 0.63 0.60 0.65 0.82 0.99 0.95 0.87 0.90 0.97 1.06 1.18 1.23 1.26 1.24 1.11 1.06 1.03 1.03 1.11
0.09 0.10 0.09 0.07 0.08 0.11 0.14 0.22 0.26 0.28 0.31 0.37 0.45 0.55 0.67 0.67 0.67 0.69 0.72 0.71 0.67 0.60 0.53 0.54 0.58 0.56 0.63 0.79 1.06 1.20 1.20 1.17 1.08 1.14 1.31 1.39 1.34 1.23 1.14 1.13 1.07 1.05 1.14
0.12 0.13 0.12 0.07 0.07 0.09 0.13 0.18 0.20 0.24 0.25 0.29 0.34 0.44 0.55 0.62 0.65 0.66 0.67 0.65 0.65 0.63 0.59 0.60 0.62 0.67 0.69 0.70 0.85 1.05 1.13 1.16 1.11 1.17 1.22 1.24 1.30 1.25 1.18 1.12 1.06 1.04 1.14
0.15 0.16 0.18 0.12 0.09 0.11 0.15 0.19 0.21 0.24 0.26 0.29 0.35 0.41 0.48 0.58 0.65 0.67 0.68 0.67 0.70 0.70 0.70 0.71 0.72 0.73 0.70 0.68 0.79 0.91 0.98 1.01 1.04 1.09 1.14 1.15 1.16 1.21 1.27 1.19 1.14 1.16 1.19
0.17 0.16 0.17 0.15 0.13 0.14 0.17 0.18 0.21 0.24 0.28 0.32 0.37 0.40 0.46 0.53 0.59 0.65 0.69 0.74 0.76 0.74 0.79 0.85 0.84 0.79 0.72 0.66 0.80 0.87 0.83 0.90 0.96 0.96 0.92 1.00 1.17 1.25 1.28 1.18 1.17 1.24 1.22
0.21 0.23 0.26 0.22 0.20 0.19 0.19 0.18 0.23 0.31 0.39 0.47 0.49 0.48 0.52 0.57 0.58 0.62 0.66 0.75 0.80 0.85 0.92 0.95 0.93 0.85 0.66 0.71 0.79 0.80 0.80 0.85 0.90 0.90 0.86 0.84 0.92 1.04 1.10 1.08 1.06 1.11 1.17
0.34 0.41 0.47 0.38 0.29 0.25 0.25 0.26 0.31 0.38 0.46 0.54 0.65 0.68 0.69 0.72 0.72 0.73 0.76 0.82 0.95 1.01 1.01 0.99 0.97 0.93 0.89 0.83 0.72 0.67 0.68 0.74 0.80 0.80 0.77 0.64 0.61 0.78 0.87 0.98 1.00 0.96 0.95
0.39 0.42 0.44 0.47 0.45 0.42 0.40 0.42 0.46 0.51 0.63 0.75 0.85 0.92 0.97 1.03 1.07 1.11 1.06 1.07 1.14 1.21 1.19 1.13 1.12 1.18 1.11 0.99 0.83 0.76 0.68 0.69 0.71 0.72 0.71 0.71 0.69 0.71 0.79 0.90 0.96 0.96 0.91
0.40 0.48 0.50 0.50 0.51 0.59 0.60 0.57 0.58 0.64 0.80 0.95 1.06 1.12 1.17 1.25 1.30 1.26 1.30 1.38 1.46 1.48 1.49 1.43 1.43 1.43 1.45 1.36 1.14 1.03 0.89 0.85 0.82 0.85 0.86 0.83 0.77 0.75 0.69 0.74 0.80 0.83 0.89
0.42 0.50 0.57 0.57 0.61 0.73 0.73 0.72 0.77 0.84 0.89 0.93 1.02 1.20 1.38 1.49 1.47 1.46 1.56 1.70 1.81 1.78 1.77 1.78 1.77 1.72 1.71 1.59 1.26 1.10 0.98 0.99 0.98 1.03 0.98 0.86 0.72 0.64 0.57 0.60 0.67 0.67 0.67
0.40 0.45 0.51 0.55 0.56 0.64 0.74 0.89 1.01 1.04 1.05 1.11 1.19 1.30 1.47 1.61 1.64 1.69 1.73 1.82 1.92 1.92 1.89 1.81 1.75 1.70 1.68 1.56 1.28 1.15 1.06 1.11 1.15 1.08 1.02 0.95 0.80 0.63 0.56 0.54 0.57 0.58 0.64
0.33 0.38 0.46 0.52 0.56 0.66 0.80 0.96 1.12 1.21 1.28 1.37 1.50 1.55 1.62 1.61 1.58 1.71 1.81 1.87 1.95 1.91 1.88 1.89 1.78 1.68 1.64 1.49 1.29 1.14 1.07 1.15 1.25 1.22 1.13 1.05 0.88 0.66 0.59 0.51 0.50 0.51 0.52
0.31 0.36 0.41 0.48 0.56 0.67 0.83 1.05 1.13 1.22 1.29 1.39 1.47 1.59 1.64 1.67 1.66 1.71 1.77 1.88 1.93 1.90 1.83 1.84 1.85 1.75 1.64 1.57 1.35 1.14 1.02 1.05 1.13 1.25 1.29 1.14 0.96 0.78 0.66 0.64 0.61 0.55 0.52
0.31 0.34 0.40 0.47 0.55 0.57 0.65 0.78 0.87 0.96 1.05 1.12 1.19 1.25 1.35 1.45 1.59 1.74 1.74 1.74 1.80 1.87 1.90 1.87 1.81 1.75 1.68 1.68 1.49 1.28 1.12 1.12 1.19 1.27 1.30 1.17 1.07 0.92 0.78 0.74 0.67 0.58 0.55
0.31 0.35 0.41 0.44 0.48 0.53 0.54 0.59 0.68 0.85 0.95 0.97 1.01 1.10 1.21 1.32 1.47 1.62 1.69 1.63 1.63 1.72 1.70 1.61 1.52 1.48 1.46 1.52 1.44 1.27 1.19 1.18 1.25 1.31 1.40 1.33 1.23 1.14 1.02 0.93 0.87 0.81 0.74
0.32 0.37 0.42 0.43 0.44 0.49 0.52 0.54 0.64 0.80 0.91 0.94 0.93 0.96 1.02 1.13 1.26 1.38 1.44 1.34 1.17 1.16 1.12 1.01 0.90 0.87 0.88 0.97 0.98 0.92 0.87 0.91 1.03 1.15 1.31 1.30 1.21 1.16 1.12 1.08 1.02 0.97 0.91

GEFSMW_prec_meanprecacc_150.txt.gz
Total_Precipitation_Accumulation
1.49 1.90 2.34 2.87 3.51 4.34 5.20 5.44 5.08 4.47 3.87 3.32 2.71 2.26 1.97 1.79 1.74 1.50 1.22 1.12 1.09 1.06 1.14 0.96 1.03 1.13 1.15 1.14 1.18 1.19 1.12 0.96 1.11 1.22 1.04 0.85 0.76 0.76 0.67 0.63 0.66 0.61 0.67
1.54 1.98 2.53 2.95 3.31 3.81 4.50 4.65 4.20 3.54 2.84 2.37 2.12 1.91 1.76 1.47 1.31 1.24 1.11 0.90 0.89 0.90 0.96 0.95 0.79 0.82 0.88 0.81 0.84 1.00 1.04 0.88 0.97 1.11 1.08 0.89 0.88 0.77 0.50 0.52 0.55 0.54 0.65
1.37 2.05 2.55 2.83 3.10 3.28 3.23 3.26 3.00 2.44 2.04 1.79 1.67 1.56 1.54 1.37 1.14 1.02 0.86 0.71 0.65 0.65 0.70 0.68 0.68 0.75 0.77 0.80 0.78 0.81 0.87 0.81 0.77 0.89 1.06 0.93 0.77 0.66 0.56 0.50 0.47 0.55 0.70
1.20 1.93 2.18 2.23 2.32 2.38 2.16 2.10 2.10 1.88 1.71 1.55 1.39 1.20 1.03 0.95 0.86 0.81 0.72 0.64 0.58 0.55 0.53 0.54 0.53 0.60 0.66 0.77 0.67 0.68 0.71 0.72 0.64 0.66 0.74 0.75 0.74 0.72 0.62 0.54 0.51 0.55 0.68
0.89 1.22 1.24 1.33 1.44 1.50 1.47 1.55 1.75 1.76 1.63 1.55 1.49 1.38 1.10 0.91 0.83 0.80 0.77 0.68 0.62 0.57 0.52 0.51 0.53 0.51 0.50 0.54 0.58 0.68 0.65 0.65 0.60 0.59 0.63 0.71 0.74 0.72 0.68 0.64 0.58 0.52 0.47
0.58 0.77 0.81 0.84 0.88 0.89 0.97 1.14 1.49 1.63 1.56 1.48 1.42 1.31 1.16 1.02 0.87 0.77 0.69 0.64 0.63 0.63 0.59 0.55 0.58 0.54 0.50 0.52 0.54 0.56 0.56 0.61 0.67 0.64 0.65 0.75 0.78 0.73 0.72 0.67 0.61 0.55 0.47
0.47 0.61 0.75 0.76 0.70 0.66 0.72 0.86 1.06 1.17 1.21 1.27 1.31 1.27 1.24 1.10 0.92 0.78 0.63 0.59 0.57 0.56 0.61 0.63 0.62 0.60 0.59 0.56 0.54 0.52 0.53 0.60 0.68 0.66 0.63 0.66 0.70 0.75 0.76 0.70 0.63 0.65 0.63
0.34 0.37 0.46 0.46 0.47 0.53 0.55 0.62 0.74 0.82 0.91 1.00 1.10 1.12 1.10 1.01 0.87 0.84 0.69 0.58 0.54 0.56 0.62 0.62 0.57 0.55 0.55 0.54 0.57 0.50 0.48 0.58 0.67 0.70 0.79 0.75 0.65 0.77 0.85 0.82 0.83 0.81 0.85
0.16 0.18 0.18 0.20 0.26 0.36 0.47 0.54 0.61 0.67 0.74 0.81 0.92 0.95 0.93 0.91 0.91 0.86 0.73 0.65 0.67 0.64 0.67 0.59 0.58 0.55 0.54 0.55 0.58 0.58 0.60 0.65 0.68 0.77 0.91 0.93 0.85 0.81 0.86 0.93 1.00 1.08 1.05
0.11 0.12 0.12 0.12 0.14 0.18 0.33 0.47 0.53 0.62 0.73 0.77 0.75 0.75 0.85 0.85 0.86 0.82 0.74 0.73 0.71 0.69 0.74 0.70 0.65 0.61 0.59 0.64 0.72 0.70 0.69 0.76 0.83 0.96 1.05 1.07 1.06 1.02 0.94 0.98 1.04 1.08 1.14
0.12 0.10 0.10 0.09 0.11 0.13 0.21 0.33 0.41 0.51 0.58 0.62 0.63 0.73 0.80 0.79 0.78 0.78 0.73 0.72 0.69 0.69 0.71 0.70 0.70 0.67 0.71 0.87 1.07 1.04 0.95 0.97 1.03 1.11 1.22 1.26 1.28 1.26 1.12 1.08 1.05 1.05 1.14
0.14 0.13 0.12 0.08 0.09 0.12 0.15 0.24 0.28 0.30 0.34 0.41 0.48 0.58 0.69 0.71 0.71 0.73 0.79 0.79 0.75 0.68 0.61 0.61 0.65 0.65 0.71 0.87 1.14 1.27 1.26 1.22 1.12 1.18 1.35 1.43 1.37 1.26 1.16 1.15 1.08 1.07 1.16
0.17 0.18 0.16 0.10 0.09 0.10 0.14 0.18 0.21 0.25 0.27 0.33 0.38 0.48 0.60 0.68 0.70 0.71 0.74 0.77 0.75 0.72 0.69 0.68 0.70 0.75 0.77 0.78 0.94 1.14 1.21 1.21 1.15 1.22 1.27 1.29 1.35 1.29 1.22 1.14 1.07 1.06 1.15
0.21 0.25 0.24 0.15 0.12 0.13 0.16 0.19 0.22 0.25 0.28 0.32 0.41 0.47 0.55 0.66 0.74 0.75 0.76 0.78 0.82 0.79 0.78 0.77 0.80 0.82 0.79 0.79 0.90 1.01 1.08 1.12 1.14 1.18 1.22 1.23 1.23 1.28 1.32 1.22 1.16 1.18 1.22
0.24 0.22 0.25 0.18 0.15 0.16 0.18 0.20 0.22 0.26 0.29 0.34 0.41 0.46 0.54 0.61 0.66 0.74 0.78 0.85 0.88 0.84 0.89 0.95 0.93 0.89 0.82 0.75 0.88 0.98 0.97 1.05 1.09 1.08 1.04 1.10 1.26 1.34 1.37 1.25 1.22 1.28 1.27
0.27 0.27 0.29 0.25 0.22 0.20 0.19 0.19 0.24 0.33 0.40 0.48 0.52 0.52 0.58 0.65 0.65 0.70 0.73 0.84 0.90 0.94 1.02 1.06 1.05 0.96 0.77 0.81 0.91 0.93 0.92 0.96 1.00 1.00 0.95 0.92 0.99 1.11 1.19 1.16 1.12 1.17 1.22
0.41 0.49 0.53 0.42 0.31 0.27 0.26 0.27 0.32 0.40 0.48 0.56 0.68 0.72 0.73 0.77 0.79 0.83 0.85 0.90 1.03 1.10 1.09 1.07 1.08 1.05 1.02 0.96 0.87 0.82 0.79 0.84 0.89 0.90 0.86 0.73 0.69 0.87 0.95 1.05 1.08 1.04 1.03
0.47 0.53 0.56 0.55 0.50 0.45 0.42 0.44 0.47 0.53 0.66 0.78 0.89 0.97 1.01 1.08 1.13 1.18 1.13 1.15 1.22 1.29 1.28 1.22 1.23 1.29 1.24 1.14 0.96 0.88 0.77 0.77 0.80 0.81 0.80 0.79 0.78 0.80 0.87 0.97 1.04 1.03 0.98
0.50 0.59 0.58 0.57 0.57 0.64 0.63 0.60 0.61 0.67 0.83 0.99 1.11 1.17 1.22 1.30 1.35 1.32 1.37 1.46 1.55 1.58 1.59 1.54 1.55 1.55 1.56 1.47 1.23 1.10 0.95 0.92 0.89 0.93 0.96 0.95 0.89 0.87 0.80 0.82 0.86 0.89 0.95
0.56 0.62 0.67 0.65 0.69 0.82 0.81 0.79 0.82 0.90 0.94 0.99 1.09 1.26 1.43 1.54 1.52 1.53 1.64 1.81 1.95 1.90 1.89 1.91 1.91 1.85 1.81 1.69 1.37 1.21 1.07 1.09 1.07 1.12 1.09 0.99 0.86 0.76 0.68 0.71 0.76 0.76 0.77
0.51 0.58 0.63 0.67 0.67 0.77 0.86 0.98 1.08 1.11 1.13 1.18 1.26 1.37 1.53 1.68 1.70 1.77 1.82 1.94 2.05 2.04 2.00 1.92 1.85 1.80 1.80 1.70 1.42 1.30 1.18 1.21 1.24 1.17 1.12 1.05 0.91 0.73 0.66 0.63 0.65 0.67 0.72
0.41 0.48 0.59 0.64 0.67 0.79 0.99 1.13 1.22 1.29 1.35 1.44 1.59 1.64 1.70 1.68 1.64 1.77 1.87 1.95 2.04 2.01 1.96 1.97 1.85 1.75 1.73 1.58 1.39 1.24 1.17 1.26 1.34 1.30 1.21 1.13 0.97 0.74 0.66 0.57 0.56 0.57 0.57
0.41 0.46 0.55 0.63 0.68 0.76 0.92 1.18 1.25 1.30 1.36 1.46 1.55 1.65 1.68 1.71 1.71 1.76 1.84 1.96 2.00 1.98 1.91 1.92 1.92 1.83 1.73 1.66 1.44 1.22 1.09 1.13 1.20 1.32 1.37 1.22 1.05 0.87 0.74 0.72 0.68 0.61 0.57
0.42 0.44 0.51 0.60 0.64 0.63 0.71 0.85 0.95 1.02 1.09 1.17 1.24 1.28 1.38 1.48 1.64 1.81 1.81 1.83 1.90 1.97 2.00 1.98 1.92 1.87 1.82 1.81 1.61 1.38 1.20 1.18 1.25 1.33 1.37 1.23 1.12 0.97 0.84 0.80 0.72 0.63 0.59
0.37 0.40 0.48 0.49 0.51 0.57 0.59 0.64 0.72 0.90 0.99 1.00 1.04 1.12 1.24 1.36 1.51 1.68 1.75 1.69 1.72 1.85 1.85 1.76 1.67 1.61 1.57 1.63 1.56 1.37 1.28 1.26 1.33 1.39 1.46 1.39 1.28 1.19 1.06 0.97 0.91 0.85 0.78
0.35 0.40 0.45 0.45 0.45 0.51 0.55 0.57 0.67 0.85 0.98 0.99 0.97 1.01 1.05 1.17 1.30 1.43 1.49 1.41 1.25 1.26 1.22 1.11 0.99 0.95 0.97 1.07 1.07 1.01 0.96 1.00 1.12 1.23 1.38 1.36 1.27 1.21 1.17 1.12 1.06 1.00 0.93

GEFSMW_prec_meanprecacc_156.txt.gz
Total_Precipitation_Accumulation
1.51 1.94 2.41 2.93 3.56 4.40 5.27 5.52 5.17 4.59 4.04 3.52 2.92 2.43 2.12 1.90 1.84 1.59 1.27 1.17 1.15 1.12 1.19 1.00 1.06 1.16 1.18 1.16 1.20 1.21 1.14 0.98 1.13 1.26 1.08 0.88 0.80 0.79 0.70 0.66 0.68 0.62 0.69
1.57 2.05 2.62 3.04 3.37 3.87 4.56 4.71 4.27 3.64 2.98 2.54 2.28 2.05 1.89 1.57 1.39 1.33 1.18 0.96 0.97 0.98 1.02 1.00 0.83 0.86 0.91 0.84 0.86 1.02 1.06 0.91 1.00 1.13 1.11 0.91 0.90 0.79 0.51 0.53 0.57 0.55 0.67
1.40 2.10 2.60 2.89 3.16 3.34 3.28 3.32 3.07 2.54 2.18 1.96 1.81 1.72 1.69 1.47 1.22 1.09 0.94 0.79 0.74 0.74 0.77 0.75 0.73 0.79 0.80 0.82 0.80 0.83 0.88 0.83 0.79 0.90 1.07 0.94 0.77 0.66 0.56 0.51 0.48 0.56 0.72
1.23 1.96 2.23 2.29 2.37 2.46 2.24 2.17 2.17 1.97 1.85 1.70 1.51 1.31 1.13 1.01 0.91 0.88 0.80 0.73 0.66 0.62 0.60 0.62 0.59 0.63 0.68 0.80 0.69 0.71 0.73 0.74 0.65 0.67 0.75 0.76 0.75 0.72 0.62 0.54 0.52 0.56 0.69
0.91 1.25 1.29 1.39 1.49 1.58 1.56 1.61 1.82 1.84 1.72 1.65 1.61 1.48 1.18 0.97 0.89 0.87 0.85 0.77 0.71 0.64 0.60 0.59 0.59 0.55 0.53 0.58 0.62 0.70 0.67 0.66 0.61 0.60 0.64 0.72 0.75 0.73 0.68 0.64 0.59 0.52 0.47
0.60 0.80 0.85 0.88 0.95 0.99 1.05 1.19 1.55 1.70 1.63 1.55 1.51 1.41 1.27 1.11 0.95 0.83 0.75 0.70 0.71 0.71 0.69 0.65 0.66 0.59 0.54 0.56 0.57 0.60 0.59 0.63 0.68 0.65 0.66 0.77 0.80 0.74 0.73 0.67 0.61 0.55 0.47
0.50 0.63 0.78 0.79 0.73 0.72 0.78 0.91 1.10 1.21 1.25 1.31 1.38 1.36 1.34 1.21 1.02 0.89 0.73 0.67 0.65 0.65 0.72 0.74 0.70 0.66 0.64 0.60 0.59 0.58 0.57 0.62 0.70 0.67 0.64 0.67 0.72 0.76 0.76 0.71 0.63 0.65 0.63
0.36 0.39 0.49 0.49 0.49 0.54 0.57 0.65 0.77 0.85 0.94 1.04 1.14 1.21 1.18 1.09 0.95 0.94 0.79 0.67 0.61 0.63 0.71 0.74 0.67 0.63 0.61 0.60 0.63 0.56 0.52 0.60 0.68 0.71 0.81 0.77 0.67 0.79 0.86 0.83 0.83 0.81 0.86
0.19 0.20 0.21 0.23 0.27 0.37 0.48 0.57 0.64 0.69 0.77 0.84 0.96 1.02 1.01 0.96 0.95 0.92 0.79 0.71 0.74 0.73 0.76 0.70 0.68 0.64 0.61 0.62 0.64 0.62 0.64 0.68 0.70 0.79 0.94 0.97 0.88 0.83 0.88 0.95 1.02 1.09 1.06
0.13 0.14 0.14 0.13 0.14 0.18 0.33 0.48 0.54 0.64 0.75 0.80 0.78 0.79 0.90 0.89 0.89 0.86 0.77 0.79 0.80 0.77 0.81 0.79 0.75 0.71 0.67 0.69 0.76 0.73 0.72 0.79 0.86 0.99 1.09 1.11 1.10 1.06 0.97 1.01 1.05 1.09 1.15
0.14 0.13 0.12 0.11 0.12 0.14 0.23 0.34 0.43 0.52 0.60 0.64 0.66 0.77 0.83 0.83 0.82 0.81 0.76 0.77 0.75 0.76 0.76 0.76 0.78 0.75 0.78 0.92 1.11 1.09 1.00 1.01 1.06 1.15 1.26 1.30 1.33 1.30 1.16 1.11 1.08 1.08 1.17
0.18 0.16 0.14 0.10 0.10 0.13 0.17 0.25 0.29 0.32 0.35 0.42 0.49 0.60 0.73 0.73 0.73 0.75 0.81 0.82 0.78 0.71 0.63 0.64 0.70 0.70 0.77 0.93 1.20 1.33 1.32 1.27 1.17 1.24 1.41 1.48 1.42 1.30 1.20 1.18 1.12 1.09 1.18
0.20 0.20 0.18 0.13 0.10 0.12 0.15 0.20 0.21 0.26 0.28 0.34 0.39 0.49 0.62 0.70 0.72 0.74 0.78 0.80 0.78 0.75 0.72 0.71 0.75 0.82 0.83 0.84 1.00 1.19 1.26 1.26 1.21 1.28 1.33 1.36 1.42 1.34 1.27 1.19 1.12 1.10 1.20
0.23 0.27 0.26 0.18 0.14 0.15 0.18 0.20 0.23 0.26 0.28 0.33 0.41 0.48 0.56 0.68 0.76 0.77 0.78 0.81 0.85 0.83 0.83 0.83 0.86 0.89 0.87 0.86 0.96 1.08 1.16 1.20 1.21 1.26 1.29 1.32 1.32 1.35 1.40 1.30 1.24 1.26 1.30
0.26 0.24 0.27 0.20 0.18 0.18 0.20 0.21 0.23 0.27 0.29 0.34 0.42 0.47 0.56 0.63 0.69 0.76 0.80 0.87 0.91 0.87 0.93 1.01 1.00 0.97 0.91 0.85 0.99 1.09 1.08 1.15 1.18 1.16 1.12 1.18 1.35 1.43 1.46 1.34 1.31 1.37 1.36
0.31 0.31 0.33 0.29 0.25 0.23 0.22 0.21 0.25 0.34 0.41 0.49 0.52 0.53 0.59 0.67 0.67 0.72 0.76 0.87 0.92 0.97 1.06 1.13 1.14 1.08 0.92 1.00 1.11 1.11 1.08 1.11 1.12 1.10 1.04 1.01 1.09 1.20 1.28 1.24 1.19 1.23 1.28
0.47 0.54 0.60 0.48 0.36 0.31 0.30 0.29 0.34 0.41 0.48 0.57 0.69 0.72 0.74 0.78 0.81 0.85 0.88 0.93 1.07 1.14 1.14 1.13 1.15 1.14 1.14 1.13 1.03 0.97 0.91 0.95 1.00 0.99 0.94 0.81 0.77 0.96 1.04 1.15 1.17 1.12 1.11
0.50 0.58 0.62 0.62 0.56 0.51 0.47 0.48 0.52 0.57 0.67 0.79 0.89 0.98 1.03 1.09 1.15 1.21 1.17 1.20 1.27 1.34 1.32 1.27 1.28 1.35 1.31 1.24 1.08 0.99 0.87 0.87 0.89 0.88 0.86 0.85 0.84 0.86 0.94 1.06 1.13 1.12 1.07
0.56 0.66 0.65 0.63 0.62 0.71 0.71 0.67 0.69 0.73 0.87 1.02 1.13 1.19 1.25 1.34 1.39 1.37 1.43 1.53 1.63 1.65 1.65 1.60 1.62 1.63 1.66 1.58 1.32 1.19 1.03 0.99 0.95 0.98 1.01 1.01 0.94 0.94 0.89 0.92 0.99 1.02 1.07
0.62 0.69 0.73 0.71 0.75 0.89 0.89 0.88 0.92 0.98 1.01 1.03 1.13 1.30 1.48 1.58 1.57 1.58 1.70 1.88 2.03 2.00 1.98 1.99 1.99 1.92 1.90 1.80 1.47 1.30 1.15 1.17 1.15 1.19 1.15 1.06 0.94 0.87 0.81 0.84 0.90 0.89 0.88
0.57 0.64 0.69 0.74 0.76 0.87 0.96 1.07 1.19 1.21 1.21 1.25 1.32 1.42 1.58 1.73 1.75 1.81 1.86 1.98 2.10 2.11 2.07 1.99 1.92 1.87 1.89 1.81 1.52 1.38 1.25 1.29 1.31 1.23 1.17 1.11 1.00 0.84 0.77 0.72 0.75 0.78 0.82
0.46 0.53 0.65 0.73 0.77 0.89 1.09 1.21 1.32 1.39 1.45 1.52 1.66 1.68 1.74 1.74 1.70 1.81 1.91 2.00 2.10 2.07 2.02 2.04 1.92 1.83 1.81 1.67 1.48 1.33 1.26 1.34 1.42 1.37 1.27 1.19 1.03 0.80 0.73 0.66 0.66 0.68 0.68
0.49 0.53 0.61 0.71 0.77 0.85 1.00 1.25 1.31 1.35 1.42 1.52 1.61 1.70 1.73 1.76 1.76 1.82 1.90 2.03 2.07 2.04 1.96 1.98 1.99 1.91 1.82 1.76 1.55 1.33 1.21 1.25 1.30 1.41 1.46 1.29 1.10 0.92 0.80 0.79 0.76 0.70 0.67
0.47 0.50 0.59 0.69 0.74 0.70 0.76 0.89 0.99 1.06 1.13 1.22 1.30 1.35 1.44 1.53 1.68 1.85 1.87 1.92 1.99 2.05 2.06 2.02 1.97 1.93 1.88 1.89 1.70 1.48 1.31 1.29 1.33 1.40 1.44 1.29 1.17 1.01 0.88 0.85 0.78 0.68 0.66
0.39 0.43 0.54 0.57 0.59 0.64 0.63 0.66 0.73 0.91 1.03 1.05 1.09 1.17 1.29 1.40 1.55 1.72 1.80 1.74 1.77 1.90 1.89 1.81 1.73 1.68 1.64 1.71 1.62 1.43 1.34 1.33 1.39 1.44 1.51 1.44 1.33 1.23 1.10 1.01 0.96 0.91 0.85
0.38 0.42 0.48 0.49 0.49 0.55 0.57 0.58 0.68 0.86 1.00 1.03 1.02 1.05 1.08 1.20 1.34 1.47 1.54 1.46 1.30 1.31 1.26 1.16 1.06 1.04 1.07 1.15 1.14 1.07 1.02 1.06 1.17 1.26 1.41 1.40 1.31 1.24 1.21 1.16 1.10 1.04 0.97

GEFSMW_prec_meanprecacc_162.txt.gz
Total_Precipitation_Accumulation
1.51 1.95 2.42 2.93 3.57 4.42 5.30 5.57 5.22 4.64 4.11 3.60 2.99 2.50 2.18 1.97 1.91 1.64 1.33 1.23 1.21 1.19 1.27 1.05 1.12 1.23 1.25 1.24 1.28 1.30 1.22 1.04 1.19 1.32 1.14 0.93 0.83 0.84 0.75 0.71 0.72 0.64 0.71
1.57 2.06 2.62 3.04 3.38 3.89 4.61 4.77 4.32 3.68 3.05 2.63 2.36 2.14 1.97 1.65 1.46 1.41 1.25 1.04 1.05 1.07 1.09 1.08 0.89 0.91 0.99 0.91 0.93 1.11 1.15 0.98 1.06 1.20 1.19 0.98 0.97 0.84 0.53 0.56 0.60 0.58 0.70
1.40 2.11 2.61 2.89 3.17 3.35 3.32 3.34 3.10 2.58 2.24 2.06 1.93 1.83 1.81 1.57 1.29 1.16 1.00 0.85 0.82 0.83 0.86 0.84 0.82 0.87 0.87 0.88 0.88 0.92 0.98 0.92 0.86 0.96 1.14 1.01 0.83 0.71 0.59 0.52 0.50 0.60 0.77
1.23 1.96 2.23 2.30 2.38 2.48 2.27 2.20 2.21 2.03 1.93 1.80 1.66 1.47 1.24 1.11 1.00 0.96 0.89 0.81 0.73 0.70 0.71 0.72 0.69 0.72 0.75 0.87 0.75 0.76 0.82 0.84 0.73 0.74 0.81 0.81 0.80 0.77 0.66 0.56 0.52 0.57 0.72
0.91 1.25 1.29 1.39 1.49 1.59 1.59 1.68 1.89 1.91 1.80 1.73 1.73 1.65 1.31 1.08 1.00 0.97 0.96 0.86 0.78 0.71 0.68 0.69 0.69 0.64 0.60 0.64 0.69 0.78 0.75 0.74 0.69 0.67 0.72 0.79 0.81 0.77 0.73 0.71 0.63 0.55 0.48
0.60 0.80 0.85 0.88 0.96 1.02 1.09 1.24 1.61 1.75 1.67 1.61 1.59 1.50 1.37 1.25 1.08 0.92 0.85 0.80 0.78 0.78 0.77 0.74 0.76 0.68 0.61 0.64 0.65 0.68 0.67 0.72 0.77 0.73 0.73 0.84 0.86 0.78 0.76 0.72 0.67 0.59 0.48
0.50 0.63 0.78 0.80 0.74 0.72 0.79 0.92 1.13 1.24 1.28 1.36 1.43 1.43 1.45 1.36 1.16 1.01 0.85 0.78 0.72 0.70 0.80 0.82 0.80 0.76 0.73 0.70 0.68 0.66 0.65 0.70 0.79 0.76 0.71 0.72 0.76 0.80 0.80 0.76 0.69 0.70 0.66
0.36 0.40 0.50 0.50 0.49 0.55 0.57 0.65 0.78 0.87 0.97 1.06 1.17 1.26 1.26 1.20 1.06 1.05 0.93 0.79 0.70 0.70 0.79 0.83 0.77 0.72 0.70 0.69 0.73 0.64 0.60 0.68 0.76 0.77 0.87 0.82 0.71 0.84 0.90 0.88 0.89 0.87 0.91
0.19 0.21 0.22 0.24 0.27 0.37 0.49 0.57 0.65 0.71 0.78 0.85 0.98 1.07 1.09 1.06 1.04 1.03 0.91 0.82 0.83 0.80 0.83 0.77 0.76 0.75 0.72 0.71 0.74 0.71 0.71 0.75 0.76 0.84 1.00 1.01 0.93 0.88 0.91 0.99 1.06 1.15 1.11
0.14 0.14 0.14 0.14 0.15 0.18 0.33 0.49 0.55 0.66 0.77 0.81 0.81 0.82 0.96 0.97 0.98 0.94 0.85 0.88 0.88 0.83 0.87 0.85 0.81 0.80 0.78 0.81 0.86 0.82 0.80 0.86 0.92 1.05 1.14 1.17 1.15 1.11 1.02 1.06 1.11 1.14 1.21
0.15 0.13 0.12 0.11 0.13 0.14 0.23 0.35 0.44 0.54 0.62 0.65 0.68 0.79 0.88 0.88 0.86 0.87 0.81 0.82 0.81 0.81 0.81 0.81 0.84 0.82 0.87 1.01 1.20 1.16 1.08 1.10 1.14 1.22 1.33 1.39 1.42 1.39 1.24 1.19 1.16 1.15 1.23
0.19 0.17 0.14 0.10 0.11 0.14 0.17 0.26 0.30 0.32 0.36 0.44 0.52 0.63 0.77 0.76 0.76 0.78 0.85 0.86 0.82 0.75 0.66 0.68 0.74 0.74 0.83 0.99 1.26 1.39 1.37 1.33 1.24 1.32 1.50 1.56 1.52 1.40 1.30 1.29 1.22 1.19 1.28
0.20 0.20 0.18 0.13 0.11 0.13 0.16 0.20 0.22 0.26 0.29 0.34 0.40 0.50 0.64 0.72 0.75 0.77 0.82 0.87 0.86 0.81 0.76 0.75 0.79 0.86 0.88 0.89 1.06 1.26 1.33 1.32 1.27 1.35 1.41 1.44 1.51 1.44 1.38 1.30 1.24 1.23 1.33
0.23 0.27 0.27 0.18 0.15 0.16 0.18 0.21 0.23 0.27 0.29 0.34 0.42 0.49 0.58 0.70 0.78 0.80 0.82 0.85 0.90 0.88 0.88 0.88 0.92 0.95 0.93 0.93 1.02 1.15 1.24 1.28 1.29 1.34 1.39 1.41 1.42 1.46 1.54 1.45 1.38 1.43 1.47
0.27 0.24 0.27 0.20 0.18 0.18 0.21 0.22 0.25 0.28 0.31 0.36 0.43 0.49 0.58 0.64 0.70 0.78 0.84 0.90 0.93 0.90 0.97 1.06 1.05 1.04 0.97 0.92 1.08 1.18 1.17 1.24 1.28 1.26 1.22 1.30 1.49 1.59 1.63 1.50 1.49 1.55 1.52
0.31 0.31 0.34 0.29 0.25 0.23 0.23 0.22 0.27 0.35 0.42 0.50 0.54 0.54 0.61 0.68 0.69 0.74 0.78 0.89 0.94 0.99 1.08 1.15 1.17 1.12 0.97 1.09 1.23 1.26 1.24 1.28 1.29 1.27 1.20 1.16 1.24 1.34 1.42 1.37 1.33 1.37 1.42
0.47 0.55 0.60 0.49 0.37 0.32 0.31 0.31 0.36 0.43 0.50 0.58 0.70 0.73 0.76 0.81 0.83 0.87 0.89 0.95 1.09 1.16 1.16 1.16 1.18 1.17 1.19 1.20 1.13 1.10 1.04 1.09 1.15 1.14 1.09 0.92 0.86 1.04 1.12 1.24 1.27 1.21 1.20
0.51 0.58 0.62 0.62 0.56 0.51 0.48 0.49 0.53 0.59 0.70 0.81 0.91 0.99 1.03 1.11 1.18 1.23 1.20 1.23 1.30 1.37 1.36 1.30 1.31 1.38 1.36 1.32 1.18 1.09 0.96 0.95 0.98 1.00 0.98 0.96 0.93 0.94 1.01 1.12 1.19 1.18 1.13
0.57 0.68 0.65 0.63 0.63 0.72 0.72 0.70 0.72 0.77 0.92 1.06 1.16 1.21 1.26 1.34 1.40 1.39 1.46 1.56 1.67 1.70 1.69 1.65 1.68 1.69 1.72 1.65 1.40 1.27 1.11 1.09 1.06 1.09 1.12 1.10 1.01 1.02 0.97 0.99 1.04 1.07 1.12
0.64 0.71 0.75 0.72 0.77 0.91 0.92 0.92 0.99 1.07 1.09 1.11 1.19 1.34 1.50 1.60 1.59 1.61 1.74 1.92 2.07 2.05 2.03 2.05 2.06 1.98 1.94 1.87 1.54 1.36 1.20 1.23 1.22 1.25 1.20 1.13 1.00 0.94 0.87 0.89 0.96 0.94 0.94
0.58 0.66 0.71 0.75 0.78 0.89 0.99 1.13 1.27 1.29 1.28 1.31 1.37 1.45 1.61 1.75 1.77 1.83 1.88 2.02 2.14 2.15 2.10 2.02 1.95 1.91 1.93 1.88 1.61 1.44 1.28 1.32 1.35 1.26 1.20 1.15 1.05 0.88 0.81 0.75 0.78 0.81 0.87
0.48 0.55 0.67 0.74 0.79 0.91 1.11 1.24 1.35 1.43 1.49 1.55 1.70 1.72 1.77 1.76 1.72 1.84 1.93 2.01 2.12 2.10 2.05 2.07 1.96 1.87 1.85 1.72 1.53 1.38 1.30 1.39 1.47 1.42 1.31 1.24 1.08 0.85 0.77 0.70 0.70 0.72 0.72
0.51 0.55 0.63 0.73 0.79 0.86 1.02 1.27 1.34 1.38 1.45 1.55 1.64 1.74 1.76 1.79 1.78 1.85 1.94 2.06 2.09 2.06 1.99 2.01 2.02 1.93 1.84 1.79 1.59 1.38 1.26 1.29 1.34 1.45 1.51 1.34 1.16 0.97 0.85 0.84 0.80 0.74 0.70
0.49 0.52 0.61 0.71 0.75 0.71 0.77 0.91 1.01 1.08 1.16 1.26 1.34 1.39 1.48 1.58 1.73 1.90 1.93 1.97 2.04 2.09 2.09 2.05 1.99 1.94 1.90 1.91 1.75 1.53 1.36 1.35 1.40 1.46 1.51 1.37 1.25 1.08 0.94 0.90 0.81 0.71 0.69
0.41 0.45 0.55 0.58 0.60 0.65 0.63 0.66 0.74 0.93 1.04 1.08 1.13 1.24 1.37 1.48 1.64 1.81 1.89 1.81 1.82 1.95 1.93 1.84 1.76 1.71 1.67 1.74 1.65 1.47 1.39 1.40 1.48 1.53 1.60 1.53 1.41 1.30 1.15 1.05 0.98 0.93 0.86
0.39 0.44 0.50 0.50 0.50 0.56 0.58 0.59 0.69 0.88 1.01 1.04 1.04 1.09 1.13 1.25 1.38 1.52 1.60 1.53 1.34 1.35 1.30 1.20 1.10 1.08 1.10 1.17 1.16 1.09 1.05 1.10 1.23 1.34 1.50 1.48 1.37 1.29 1.24 1.20 1.13 1.06 0.98

GEFSMW_prec_meanprecacc_168.txt.gz
Total_Precipitation_Accumulation
1.51 1.95 2.42 2.93 3.57 4.42 5.31 5.62 5.29 4.70 4.18 3.67 3.08 2.58 2.26 2.05 1.97 1.68 1.36 1.27 1.24 1.22 1.32 1.11 1.19 1.28 1.30 1.30 1.33 1.39 1.31 1.11 1.24 1.40 1.23 1.00 0.89 0.87 0.78 0.72 0.73 0.65 0.71
1.57 2.06 2.62 3.04 3.38 3.90 4.62 4.81 4.37 3.73 3.12 2.71 2.46 2.23 2.08 1.77 1.56 1.47 1.31 1.08 1.08 1.10 1.13 1.12 0.94 0.97 1.06 0.98 1.01 1.22 1.24 1.04 1.12 1.28 1.32 1.13 1.10 0.91 0.55 0.58 0.61 0.59 0.72
1.40 2.11 2.61 2.89 3.17 3.36 3.33 3.37 3.15 2.63 2.29 2.13 2.01 1.92 1.93 1.71 1.44 1.28 1.11 0.93 0.88 0.89 0.92 0.91 0.87 0.94 0.94 0.97 0.97 1.01 1.08 1.01 0.93 1.01 1.24 1.17 1.03 0.85 0.64 0.55 0.52 0.63 0.82
1.23 1.96 2.23 2.30 2.38 2.49 2.29 2.24 2.25 2.07 1.97 1.86 1.74 1.56 1.34 1.23 1.15 1.11 1.03 0.93 0.82 0.78 0.78 0.79 0.75 0.80 0.82 0.97 0.83 0.85 0.93 0.94 0.82 0.82 0.88 0.88 0.93 0.91 0.79 0.68 0.60 0.62 0.75
0.91 1.25 1.29 1.39 1.50 1.60 1.62 1.72 1.95 1.96 1.84 1.78 1.81 1.76 1.41 1.21 1.14 1.12 1.11 0.99 0.88 0.79 0.76 0.77 0.77 0.73 0.69 0.74 0.78 0.88 0.84 0.83 0.79 0.77 0.82 0.88 0.89 0.84 0.83 0.84 0.74 0.64 0.55
0.60 0.80 0.85 0.89 0.96 1.02 1.12 1.29 1.66 1.80 1.72 1.65 1.66 1.60 1.48 1.39 1.25 1.09 0.99 0.92 0.88 0.87 0.86 0.81 0.83 0.77 0.72 0.75 0.75 0.77 0.75 0.81 0.87 0.82 0.82 0.93 0.96 0.85 0.83 0.81 0.76 0.67 0.55
0.50 0.63 0.78 0.80 0.74 0.73 0.80 0.95 1.18 1.31 1.34 1.41 1.49 1.52 1.54 1.48 1.29 1.13 0.97 0.89 0.82 0.80 0.88 0.88 0.87 0.86 0.85 0.81 0.79 0.76 0.74 0.80 0.89 0.84 0.78 0.79 0.82 0.86 0.86 0.84 0.77 0.77 0.70
0.36 0.40 0.50 0.51 0.49 0.55 0.57 0.66 0.80 0.91 1.00 1.10 1.22 1.32 1.32 1.28 1.17 1.17 1.05 0.93 0.82 0.79 0.87 0.91 0.83 0.79 0.80 0.78 0.85 0.74 0.70 0.80 0.88 0.86 0.97 0.90 0.77 0.90 0.97 0.95 0.98 0.98 1.00
0.19 0.21 0.22 0.24 0.28 0.37 0.49 0.58 0.66 0.72 0.80 0.88 1.01 1.12 1.15 1.13 1.13 1.13 1.02 0.94 0.96 0.89 0.91 0.84 0.83 0.81 0.80 0.80 0.85 0.81 0.83 0.87 0.86 0.94 1.11 1.11 1.00 0.96 1.00 1.07 1.17 1.30 1.25
0.14 0.14 0.14 0.14 0.15 0.19 0.34 0.49 0.56 0.67 0.79 0.84 0.84 0.88 1.03 1.03 1.05 1.02 0.95 0.99 1.00 0.95 0.98 0.95 0.88 0.88 0.87 0.91 0.98 0.93 0.92 0.99 1.03 1.16 1.25 1.28 1.24 1.20 1.12 1.16 1.21 1.27 1.35
0.15 0.13 0.12 0.11 0.13 0.14 0.23 0.35 0.44 0.56 0.65 0.69 0.72 0.83 0.93 0.94 0.92 0.93 0.89 0.90 0.89 0.90 0.92 0.92 0.93 0.91 0.96 1.11 1.31 1.26 1.20 1.22 1.27 1.33 1.43 1.49 1.51 1.49 1.33 1.29 1.27 1.27 1.37
0.19 0.17 0.14 0.10 0.11 0.14 0.18 0.27 0.31 0.34 0.39 0.47 0.55 0.67 0.81 0.81 0.80 0.83 0.91 0.92 0.88 0.82 0.74 0.77 0.82 0.80 0.89 1.08 1.37 1.50 1.49 1.46 1.38 1.44 1.60 1.64 1.60 1.50 1.39 1.40 1.33 1.31 1.41
0.20 0.20 0.18 0.14 0.12 0.13 0.16 0.21 0.23 0.27 0.31 0.37 0.43 0.54 0.68 0.77 0.80 0.82 0.87 0.91 0.92 0.87 0.85 0.86 0.87 0.92 0.95 0.98 1.17 1.37 1.44 1.45 1.42 1.49 1.53 1.53 1.60 1.52 1.46 1.39 1.35 1.32 1.43
0.23 0.29 0.28 0.18 0.15 0.16 0.18 0.21 0.24 0.27 0.30 0.35 0.44 0.53 0.62 0.73 0.82 0.84 0.86 0.90 0.95 0.94 0.96 0.97 1.01 1.04 1.03 1.03 1.12 1.26 1.36 1.41 1.43 1.47 1.50 1.51 1.51 1.55 1.63 1.54 1.47 1.52 1.58
0.27 0.25 0.28 0.20 0.18 0.19 0.21 0.22 0.25 0.29 0.32 0.38 0.47 0.53 0.62 0.67 0.72 0.82 0.88 0.95 0.98 0.95 1.04 1.14 1.15 1.12 1.05 0.99 1.17 1.30 1.31 1.42 1.47 1.43 1.37 1.42 1.58 1.66 1.69 1.55 1.56 1.65 1.65
0.31 0.32 0.35 0.30 0.25 0.23 0.23 0.22 0.27 0.36 0.43 0.52 0.57 0.59 0.66 0.73 0.72 0.77 0.82 0.93 0.99 1.04 1.15 1.21 1.23 1.18 1.02 1.15 1.29 1.34 1.37 1.43 1.45 1.42 1.33 1.27 1.32 1.42 1.50 1.46 1.42 1.48 1.53
0.48 0.55 0.60 0.49 0.39 0.33 0.32 0.32 0.37 0.44 0.51 0.60 0.72 0.78 0.82 0.85 0.87 0.90 0.93 0.98 1.12 1.21 1.21 1.22 1.24 1.22 1.26 1.27 1.18 1.15 1.10 1.15 1.21 1.22 1.18 1.01 0.95 1.16 1.24 1.37 1.39 1.31 1.28
0.51 0.59 0.63 0.63 0.58 0.52 0.49 0.51 0.55 0.60 0.71 0.83 0.94 1.04 1.08 1.14 1.21 1.27 1.24 1.28 1.35 1.43 1.43 1.36 1.37 1.44 1.43 1.39 1.22 1.14 1.02 1.02 1.04 1.06 1.03 1.03 1.02 1.05 1.12 1.21 1.25 1.23 1.17
0.57 0.68 0.66 0.64 0.64 0.73 0.73 0.71 0.74 0.79 0.94 1.09 1.21 1.27 1.32 1.39 1.43 1.44 1.51 1.61 1.73 1.76 1.77 1.72 1.75 1.76 1.78 1.69 1.43 1.29 1.14 1.12 1.10 1.12 1.16 1.15 1.05 1.08 1.04 1.05 1.09 1.11 1.15
0.64 0.71 0.75 0.73 0.78 0.92 0.93 0.94 1.02 1.09 1.12 1.14 1.23 1.40 1.56 1.66 1.65 1.67 1.79 1.97 2.11 2.09 2.09 2.11 2.11 2.02 1.98 1.91 1.57 1.38 1.22 1.25 1.23 1.27 1.22 1.15 1.03 0.97 0.91 0.93 0.99 0.98 0.97
0.59 0.67 0.72 0.77 0.80 0.92 1.01 1.15 1.30 1.33 1.32 1.34 1.40 1.50 1.65 1.80 1.82 1.87 1.92 2.05 2.17 2.18 2.14 2.06 1.99 1.94 1.96 1.92 1.63 1.46 1.30 1.33 1.37 1.28 1.23 1.18 1.07 0.91 0.84 0.79 0.81 0.85 0.90
0.49 0.56 0.69 0.77 0.82 0.95 1.14 1.27 1.38 1.46 1.52 1.58 1.72 1.75 1.81 1.81 1.76 1.87 1.95 2.04 2.14 2.13 2.09 2.11 1.99 1.90 1.88 1.75 1.55 1.39 1.32 1.41 1.48 1.43 1.34 1.26 1.12 0.89 0.82 0.73 0.74 0.76 0.75
0.52 0.56 0.65 0.75 0.82 0.90 1.05 1.30 1.37 1.41 1.47 1.57 1.65 1.76 1.79 1.81 1.82 1.89 1.98 2.09 2.12 2.08 2.02 2.04 2.04 1.96 1.87 1.82 1.61 1.39 1.28 1.31 1.35 1.46 1.53 1.37 1.20 1.01 0.88 0.87 0.84 0.77 0.73
0.51 0.54 0.62 0.72 0.77 0.73 0.79 0.93 1.03 1.10 1.18 1.27 1.36 1.42 1.53 1.62 1.77 1.94 1.96 2.02 2.09 2.13 2.12 2.08 2.02 1.98 1.93 1.94 1.77 1.55 1.38 1.36 1.41 1.48 1.53 1.39 1.27 1.11 0.97 0.93 0.84 0.74 0.72
0.43 0.47 0.57 0.59 0.62 0.66 0.64 0.67 0.75 0.94 1.06 1.10 1.17 1.27 1.39 1.50 1.67 1.86 1.94 1.86 1.88 2.00 1.97 1.88 1.80 1.74 1.69 1.77 1.68 1.49 1.41 1.40 1.48 1.54 1.62 1.55 1.43 1.32 1.18 1.08 1.02 0.97 0.90
0.42 0.47 0.53 0.53 0.51 0.58 0.59 0.60 0.71 0.90 1.03 1.06 1.08 1.12 1.15 1.26 1.39 1.54 1.63 1.56 1.37 1.39 1.34 1.24 1.13 1.10 1.12 1.20 1.18 1.11 1.06 1.11 1.24 1.35 1.51 1.50 1.40 1.33 1.29 1.25 1.18 1.11 1.03

GEFSMW_prec_meanprecacc_174.txt.gz
Total_Precipitation_Accumulation
1.51 1.95 2.42 2.94 3.58 4.43 5.34 5.65 5.33 4.75 4.25 3.75 3.15 2.65 2.36 2.14 2.05 1.79 1.47 1.34 1.30 1.28 1.36 1.15 1.23 1.31 1.33 1.32 1.35 1.41 1.33 1.14 1.29 1.46 1.28 1.05 0.94 0.92 0.83 0.77 0.80 0.72 0.79
1.57 2.06 2.63 3.05 3.39 3.90 4.63 4.83 4.40 3.77 3.17 2.78 2.53 2.31 2.18 1.86 1.65 1.57 1.42 1.18 1.15 1.16 1.18 1.16 0.98 1.01 1.10 1.01 1.04 1.24 1.26 1.06 1.15 1.32 1.37 1.17 1.15 0.98 0.61 0.65 0.71 0.70 0.81
1.41 2.11 2.61 2.90 3.18 3.37 3.34 3.39 3.18 2.66 2.34 2.18 2.08 1.99 2.01 1.81 1.54 1.39 1.22 1.03 0.96 0.95 0.97 0.94 0.91 0.99 0.98 1.00 1.00 1.03 1.11 1.05 0.97 1.06 1.31 1.21 1.05 0.88 0.70 0.64 0.62 0.74 0.92
1.24 1.97 2.23 2.30 2.39 2.50 2.30 2.28 2.31 2.11 2.00 1.90 1.81 1.64 1.40 1.29 1.23 1.21 1.14 1.02 0.92 0.86 0.84 0.84 0.79 0.85 0.87 1.02 0.87 0.89 0.97 0.98 0.86 0.86 0.93 0.94 0.98 0.95 0.83 0.73 0.70 0.74 0.88
0.92 1.26 1.29 1.40 1.51 1.62 1.66 1.80 2.01 1.99 1.86 1.81 1.84 1.80 1.46 1.28 1.23 1.21 1.21 1.09 0.95 0.86 0.83 0.82 0.82 0.80 0.76 0.82 0.86 0.94 0.90 0.89 0.84 0.82 0.86 0.93 0.94 0.89 0.88 0.87 0.79 0.74 0.66
0.61 0.81 0.86 0.89 0.97 1.04 1.15 1.33 1.70 1.83 1.73 1.66 1.68 1.63 1.52 1.45 1.32 1.15 1.06 1.02 0.96 0.93 0.92 0.87 0.89 0.83 0.78 0.81 0.81 0.82 0.81 0.87 0.93 0.86 0.86 0.98 1.00 0.90 0.88 0.85 0.78 0.72 0.62
0.51 0.64 0.79 0.81 0.75 0.73 0.81 0.96 1.21 1.33 1.36 1.42 1.51 1.55 1.57 1.52 1.34 1.19 1.05 0.99 0.90 0.88 0.98 0.96 0.92 0.91 0.90 0.85 0.83 0.81 0.80 0.87 0.96 0.89 0.81 0.83 0.87 0.92 0.93 0.90 0.80 0.80 0.74
0.37 0.41 0.51 0.51 0.50 0.55 0.58 0.67 0.81 0.93 1.02 1.12 1.24 1.34 1.35 1.32 1.22 1.23 1.13 1.02 0.91 0.87 0.95 0.98 0.89 0.85 0.86 0.84 0.91 0.82 0.77 0.86 0.94 0.91 1.02 0.95 0.82 0.96 1.03 1.02 1.05 1.03 1.04
0.22 0.23 0.24 0.25 0.30 0.38 0.49 0.58 0.66 0.74 0.82 0.90 1.04 1.15 1.18 1.17 1.19 1.20 1.10 1.03 1.03 0.95 0.97 0.91 0.91 0.88 0.84 0.86 0.93 0.87 0.88 0.91 0.90 0.98 1.15 1.16 1.04 1.01 1.05 1.14 1.27 1.40 1.33
0.21 0.19 0.17 0.16 0.17 0.21 0.35 0.50 0.56 0.68 0.80 0.85 0.86 0.90 1.05 1.06 1.08 1.08 1.02 1.07 1.06 1.01 1.05 1.04 0.96 0.94 0.92 0.97 1.05 1.00 0.98 1.04 1.07 1.20 1.30 1.32 1.27 1.25 1.16 1.21 1.28 1.37 1.44
0.24 0.17 0.15 0.14 0.15 0.16 0.25 0.36 0.45 0.56 0.66 0.69 0.72 0.85 0.95 0.96 0.94 0.95 0.92 0.95 0.95 0.95 0.96 0.98 0.99 0.97 1.03 1.19 1.39 1.35 1.28 1.29 1.32 1.38 1.50 1.54 1.57 1.54 1.38 1.34 1.33 1.33 1.43
0.33 0.24 0.20 0.17 0.19 0.19 0.20 0.27 0.31 0.35 0.40 0.49 0.56 0.69 0.84 0.84 0.83 0.85 0.93 0.97 0.92 0.85 0.78 0.82 0.88 0.87 0.97 1.16 1.44 1.56 1.56 1.54 1.46 1.53 1.72 1.74 1.68 1.57 1.45 1.46 1.40 1.35 1.45
0.30 0.39 0.35 0.22 0.20 0.17 0.18 0.22 0.23 0.27 0.32 0.39 0.46 0.56 0.70 0.80 0.83 0.86 0.90 0.95 0.94 0.90 0.88 0.89 0.91 0.98 1.02 1.04 1.23 1.42 1.49 1.52 1.52 1.62 1.66 1.66 1.71 1.61 1.54 1.46 1.41 1.38 1.48
0.28 0.44 0.48 0.26 0.20 0.20 0.20 0.22 0.24 0.28 0.31 0.36 0.46 0.55 0.64 0.76 0.86 0.90 0.91 0.94 0.98 0.96 0.99 1.00 1.05 1.11 1.11 1.09 1.19 1.33 1.43 1.49 1.55 1.63 1.69 1.68 1.65 1.67 1.74 1.63 1.56 1.61 1.67
0.30 0.29 0.33 0.25 0.22 0.23 0.23 0.24 0.26 0.31 0.33 0.40 0.48 0.55 0.64 0.69 0.76 0.88 0.93 0.99 1.01 0.98 1.07 1.16 1.18 1.17 1.12 1.07 1.27 1.40 1.40 1.52 1.60 1.61 1.56 1.60 1.75 1.80 1.81 1.66 1.66 1.75 1.74
0.34 0.35 0.39 0.36 0.33 0.33 0.32 0.26 0.30 0.38 0.46 0.55 0.59 0.62 0.69 0.76 0.77 0.81 0.84 0.95 1.01 1.07 1.19 1.27 1.29 1.25 1.09 1.26 1.39 1.40 1.43 1.52 1.57 1.57 1.48 1.41 1.44 1.52 1.59 1.54 1.49 1.55 1.61
0.50 0.59 0.65 0.56 0.47 0.41 0.38 0.37 0.43 0.49 0.55 0.64 0.76 0.82 0.85 0.89 0.91 0.94 0.95 1.01 1.16 1.25 1.27 1.28 1.30 1.29 1.35 1.37 1.25 1.20 1.14 1.20 1.27 1.26 1.23 1.06 0.99 1.20 1.27 1.43 1.44 1.35 1.32
0.55 0.63 0.68 0.67 0.63 0.58 0.53 0.54 0.59 0.65 0.77 0.88 1.00 1.10 1.13 1.19 1.27 1.33 1.30 1.33 1.41 1.50 1.49 1.42 1.42 1.51 1.50 1.45 1.26 1.17 1.05 1.04 1.06 1.07 1.05 1.04 1.03 1.07 1.15 1.24 1.27 1.25 1.18
0.61 0.72 0.70 0.67 0.68 0.78 0.78 0.75 0.77 0.83 0.99 1.14 1.26 1.34 1.38 1.44 1.49 1.50 1.58 1.67 1.78 1.81 1.81 1.76 1.79 1.80 1.83 1.76 1.48 1.32 1.16 1.14 1.11 1.14 1.17 1.16 1.06 1.10 1.07 1.08 1.12 1.13 1.17
0.67 0.75 0.78 0.76 0.82 0.97 0.98 0.98 1.06 1.14 1.17 1.19 1.29 1.45 1.61 1.72 1.71 1.74 1.85 2.01 2.15 2.13 2.12 2.14 2.13 2.05 2.01 1.94 1.59 1.40 1.23 1.26 1.25 1.28 1.23 1.16 1.03 0.98 0.93 0.95 1.03 1.00 1.00
0.63 0.72 0.76 0.81 0.84 0.97 1.07 1.20 1.35 1.38 1.38 1.40 1.45 1.54 1.69 1.84 1.87 1.92 1.96 2.09 2.22 2.21 2.17 2.09 2.01 1.95 1.97 1.94 1.65 1.47 1.30 1.34 1.37 1.28 1.23 1.18 1.08 0.92 0.87 0.83 0.86 0.88 0.93
0.53 0.61 0.74 0.82 0.87 0.99 1.19 1.33 1.43 1.52 1.58 1.63 1.76 1.78 1.84 1.83 1.79 1.90 1.98 2.07 2.18 2.16 2.11 2.13 2.02 1.92 1.90 1.77 1.57 1.41 1.33 1.42 1.49 1.44 1.34 1.27 1.13 0.92 0.85 0.76 0.77 0.79 0.79
0.56 0.60 0.70 0.80 0.86 0.95 1.11 1.37 1.42 1.46 1.51 1.60 1.68 1.78 1.81 1.83 1.83 1.90 1.99 2.11 2.14 2.10 2.03 2.05 2.06 1.99 1.90 1.84 1.63 1.41 1.30 1.32 1.36 1.47 1.53 1.37 1.21 1.03 0.90 0.89 0.87 0.80 0.76
0.54 0.57 0.65 0.76 0.81 0.78 0.85 0.98 1.07 1.14 1.21 1.30 1.39 1.44 1.54 1.64 1.79 1.96 1.98 2.04 2.11 2.14 2.13 2.09 2.04 2.00 1.96 1.96 1.79 1.57 1.39 1.37 1.41 1.48 1.53 1.40 1.28 1.12 0.98 0.94 0.85 0.75 0.74
0.46 0.50 0.60 0.63 0.65 0.70 0.68 0.71 0.78 0.96 1.09 1.13 1.19 1.29 1.41 1.53 1.69 1.89 1.99 1.90 1.91 2.02 1.99 1.89 1.81 1.75 1.71 1.79 1.70 1.51 1.42 1.42 1.50 1.56 1.63 1.57 1.44 1.33 1.19 1.09 1.03 0.98 0.94
0.44 0.50 0.56 0.56 0.55 0.62 0.63 0.63 0.73 0.93 1.06 1.08 1.10 1.14 1.18 1.29 1.42 1.56 1.65 1.58 1.39 1.41 1.37 1.25 1.14 1.11 1.14 1.22 1.19 1.12 1.07 1.12 1.25 1.36 1.52 1.51 1.41 1.34 1.30 1.26 1.20 1.14 1.06

GEFSMW_prec_meanprecacc_180.txt.gz
Total_Precipitation_Accumulation
1.52 1.95 2.43 2.94 3.59 4.44 5.36 5.69 5.38 4.81 4.32 3.83 3.25 2.77 2.47 2.24 2.12 1.87 1.55 1.41 1.38 1.37 1.44 1.19 1.26 1.34 1.36 1.34 1.37 1.44 1.37 1.18 1.34 1.52 1.33 1.09 0.97 0.94 0.85 0.80 0.82 0.75 0.82
1.57 2.06 2.63 3.05 3.39 3.91 4.66 4.91 4.51 3.84 3.24 2.89 2.67 2.43 2.28 1.95 1.72 1.62 1.48 1.27 1.23 1.24 1.24 1.20 1.01 1.05 1.14 1.05 1.07 1.27 1.30 1.10 1.20 1.39 1.43 1.20 1.18 1.01 0.63 0.67 0.73 0.73 0.84
1.41 2.12 2.62 2.90 3.18 3.39 3.38 3.47 3.32 2.79 2.42 2.27 2.20 2.13 2.12 1.88 1.59 1.44 1.27 1.11 1.05 1.02 1.04 1.00 0.95 1.02 1.01 1.04 1.04 1.08 1.16 1.08 1.01 1.10 1.36 1.23 1.07 0.90 0.72 0.66 0.64 0.77 0.95
1.25 1.99 2.25 2.32 2.41 2.52 2.34 2.33 2.37 2.17 2.06 1.95 1.89 1.73 1.52 1.40 1.30 1.28 1.21 1.11 1.01 0.95 0.91 0.91 0.84 0.89 0.91 1.07 0.92 0.95 1.02 1.03 0.89 0.91 0.98 0.98 1.00 0.97 0.84 0.74 0.71 0.76 0.91
0.94 1.29 1.34 1.44 1.54 1.64 1.69 1.84 2.04 2.01 1.89 1.84 1.89 1.85 1.55 1.37 1.29 1.26 1.27 1.16 1.03 0.94 0.90 0.88 0.87 0.85 0.83 0.88 0.91 1.00 0.95 0.93 0.87 0.85 0.89 0.98 0.99 0.93 0.90 0.88 0.80 0.75 0.68
0.64 0.85 0.90 0.93 0.99 1.06 1.18 1.37 1.73 1.84 1.74 1.68 1.70 1.66 1.55 1.49 1.35 1.18 1.11 1.09 1.04 1.01 1.01 0.95 0.96 0.89 0.85 0.86 0.86 0.88 0.86 0.93 0.97 0.89 0.90 1.03 1.06 0.96 0.93 0.88 0.80 0.74 0.65
0.57 0.68 0.82 0.83 0.76 0.75 0.86 1.03 1.25 1.36 1.39 1.45 1.54 1.58 1.60 1.54 1.36 1.22 1.10 1.06 0.97 0.95 1.05 1.04 1.01 0.97 0.95 0.91 0.89 0.87 0.84 0.91 1.00 0.93 0.86 0.88 0.91 0.97 0.98 0.95 0.85 0.84 0.79
0.43 0.46 0.54 0.53 0.52 0.59 0.67 0.82 0.92 0.99 1.08 1.17 1.29 1.39 1.39 1.36 1.26 1.28 1.20 1.10 0.99 0.94 1.01 1.03 0.95 0.91 0.90 0.88 0.97 0.87 0.84 0.93 1.00 0.98 1.09 1.02 0.89 1.02 1.08 1.06 1.09 1.06 1.07
0.30 0.28 0.28 0.29 0.35 0.49 0.60 0.66 0.72 0.79 0.89 0.97 1.10 1.20 1.22 1.20 1.23 1.24 1.16 1.08 1.08 1.01 1.02 0.95 0.95 0.93 0.88 0.90 0.97 0.92 0.94 0.98 0.96 1.03 1.20 1.21 1.10 1.06 1.09 1.18 1.31 1.44 1.35
0.23 0.22 0.20 0.19 0.20 0.24 0.38 0.52 0.58 0.71 0.85 0.90 0.90 0.93 1.08 1.08 1.11 1.10 1.04 1.09 1.10 1.04 1.09 1.08 0.99 0.98 0.96 1.01 1.09 1.06 1.03 1.13 1.16 1.28 1.37 1.37 1.31 1.29 1.23 1.27 1.34 1.42 1.47
0.26 0.19 0.17 0.16 0.16 0.18 0.26 0.37 0.46 0.58 0.68 0.71 0.74 0.86 0.96 0.97 0.96 0.96 0.93 0.96 0.96 0.96 0.99 1.02 1.03 1.03 1.07 1.24 1.46 1.42 1.35 1.36 1.40 1.47 1.57 1.60 1.63 1.61 1.43 1.39 1.37 1.37 1.47
0.35 0.26 0.22 0.18 0.21 0.21 0.21 0.28 0.32 0.35 0.41 0.50 0.57 0.70 0.85 0.85 0.83 0.86 0.96 0.99 0.94 0.87 0.80 0.84 0.91 0.90 1.01 1.21 1.49 1.61 1.60 1.58 1.50 1.59 1.79 1.80 1.75 1.64 1.50 1.51 1.44 1.39 1.49
0.31 0.40 0.37 0.24 0.24 0.20 0.20 0.23 0.24 0.29 0.33 0.40 0.47 0.57 0.72 0.82 0.85 0.89 0.94 0.98 0.97 0.92 0.90 0.91 0.93 1.01 1.06 1.08 1.27 1.46 1.53 1.57 1.56 1.67 1.71 1.71 1.77 1.69 1.61 1.52 1.47 1.43 1.53
0.29 0.44 0.49 0.28 0.21 0.21 0.21 0.23 0.26 0.29 0.33 0.38 0.48 0.56 0.65 0.78 0.89 0.92 0.95 0.98 1.01 0.99 1.01 1.03 1.08 1.14 1.15 1.14 1.24 1.38 1.48 1.53 1.58 1.66 1.72 1.74 1.73 1.77 1.83 1.72 1.65 1.68 1.74
0.30 0.29 0.33 0.26 0.24 0.24 0.25 0.25 0.28 0.32 0.35 0.41 0.50 0.56 0.65 0.70 0.78 0.91 0.96 1.03 1.06 1.02 1.10 1.20 1.22 1.22 1.16 1.11 1.31 1.44 1.44 1.56 1.63 1.64 1.61 1.66 1.84 1.91 1.92 1.76 1.74 1.83 1.83
0.34 0.35 0.39 0.36 0.34 0.35 0.33 0.28 0.33 0.41 0.48 0.57 0.61 0.64 0.70 0.77 0.79 0.84 0.87 0.99 1.06 1.13 1.25 1.32 1.34 1.30 1.13 1.30 1.44 1.46 1.48 1.56 1.61 1.61 1.53 1.45 1.49 1.58 1.66 1.61 1.55 1.59 1.66
0.51 0.59 0.66 0.58 0.49 0.44 0.40 0.40 0.46 0.53 0.60 0.68 0.80 0.85 0.89 0.94 0.96 0.98 0.99 1.05 1.20 1.30 1.33 1.33 1.34 1.33 1.39 1.43 1.31 1.27 1.20 1.25 1.31 1.31 1.26 1.08 1.01 1.22 1.30 1.45 1.46 1.37 1.34
0.55 0.64 0.69 0.70 0.66 0.62 0.58 0.60 0.63 0.71 0.83 0.94 1.05 1.16 1.21 1.26 1.32 1.38 1.36 1.38 1.45 1.54 1.54 1.46 1.47 1.54 1.54 1.50 1.30 1.23 1.12 1.11 1.12 1.11 1.07 1.06 1.05 1.09 1.18 1.26 1.28 1.25 1.19
0.61 0.73 0.72 0.71 0.71 0.82 0.83 0.80 0.82 0.88 1.04 1.22 1.33 1.42 1.49 1.54 1.56 1.55 1.63 1.71 1.80 1.83 1.83 1.78 1.81 1.82 1.86 1.81 1.54 1.42 1.25 1.20 1.15 1.17 1.20 1.19 1.09 1.13 1.09 1.09 1.12 1.13 1.18
0.69 0.78 0.82 0.80 0.85 1.01 1.03 1.04 1.12 1.20 1.25 1.29 1.37 1.54 1.68 1.78 1.77 1.79 1.89 2.04 2.17 2.15 2.14 2.15 2.15 2.08 2.04 1.99 1.65 1.45 1.26 1.28 1.26 1.29 1.25 1.17 1.04 1.00 0.94 0.95 1.03 1.01 1.01
0.67 0.77 0.81 0.84 0.88 1.01 1.13 1.29 1.44 1.49 1.51 1.54 1.57 1.64 1.76 1.89 1.91 1.97 2.01 2.12 2.24 2.23 2.19 2.11 2.03 1.97 1.99 1.95 1.66 1.48 1.31 1.35 1.38 1.29 1.24 1.19 1.09 0.93 0.88 0.84 0.87 0.90 0.94
0.58 0.66 0.79 0.87 0.92 1.06 1.29 1.46 1.59 1.71 1.79 1.80 1.88 1.87 1.91 1.88 1.83 1.95 2.05 2.12 2.21 2.17 2.13 2.14 2.03 1.92 1.91 1.78 1.58 1.43 1.35 1.44 1.51 1.46 1.36 1.29 1.15 0.93 0.86 0.78 0.79 0.82 0.81
0.60 0.64 0.74 0.85 0.92 1.01 1.21 1.51 1.56 1.59 1.63 1.71 1.76 1.83 1.86 1.87 1.88 1.95 2.04 2.15 2.16 2.11 2.04 2.06 2.07 2.00 1.90 1.84 1.65 1.43 1.31 1.34 1.37 1.48 1.54 1.39 1.22 1.04 0.91 0.90 0.87 0.81 0.76
0.58 0.61 0.70 0.80 0.86 0.83 0.91 1.06 1.18 1.26 1.31 1.37 1.43 1.47 1.57 1.66 1.81 1.99 2.01 2.07 2.14 2.16 2.14 2.10 2.05 2.00 1.96 1.96 1.80 1.58 1.40 1.38 1.43 1.50 1.55 1.42 1.29 1.12 0.98 0.95 0.86 0.76 0.74
0.49 0.53 0.64 0.67 0.69 0.74 0.73 0.76 0.84 1.03 1.15 1.18 1.22 1.33 1.46 1.58 1.74 1.93 2.03 1.96 1.95 2.06 2.02 1.91 1.82 1.76 1.72 1.80 1.71 1.52 1.43 1.43 1.51 1.57 1.64 1.58 1.46 1.35 1.21 1.11 1.04 0.99 0.94
0.49 0.53 0.59 0.59 0.58 0.65 0.66 0.67 0.78 0.97 1.10 1.11 1.13 1.19 1.24 1.34 1.46 1.60 1.68 1.61 1.42 1.43 1.38 1.26 1.14 1.11 1.14 1.22 1.20 1.12 1.08 1.12 1.26 1.37 1.53 1.52 1.42 1.34 1.30 1.26 1.20 1.14 1.07

GEFSMW_prec_meanprecacc_186.txt.gz
Total_Precipitation_Accumulation
1.52 1.96 2.43 2.94 3.59 4.45 5.39 5.75 5.44 4.86 4.38 3.89 3.34 2.87 2.56 2.33 2.20 1.93 1.60 1.47 1.45 1.44 1.51 1.25 1.33 1.40 1.41 1.40 1.44 1.51 1.44 1.24 1.40 1.61 1.41 1.14 1.00 0.97 0.87 0.83 0.87 0.80 0.86
1.58 2.07 2.63 3.05 3.40 3.92 4.68 4.95 4.55 3.88 3.29 2.94 2.74 2.50 2.35 2.03 1.80 1.68 1.54 1.32 1.30 1.31 1.31 1.27 1.07 1.10 1.20 1.11 1.14 1.35 1.36 1.15 1.25 1.48 1.53 1.27 1.23 1.05 0.65 0.70 0.75 0.76 0.88
1.43 2.15 2.65 2.91 3.19 3.40 3.41 3.50 3.35 2.82 2.45 2.32 2.26 2.19 2.20 1.96 1.67 1.51 1.33 1.16 1.11 1.08 1.09 1.06 1.02 1.08 1.06 1.10 1.12 1.16 1.26 1.18 1.07 1.16 1.45 1.31 1.14 0.97 0.76 0.68 0.67 0.80 0.99
1.27 2.02 2.27 2.33 2.42 2.53 2.35 2.35 2.39 2.19 2.09 1.99 1.95 1.79 1.60 1.49 1.37 1.34 1.26 1.17 1.10 1.03 0.96 0.95 0.91 0.97 0.99 1.14 0.99 1.02 1.11 1.13 0.96 0.97 1.05 1.05 1.07 1.06 0.92 0.79 0.75 0.79 0.94
0.96 1.31 1.35 1.46 1.55 1.65 1.70 1.85 2.06 2.05 1.93 1.86 1.92 1.89 1.60 1.42 1.33 1.30 1.32 1.21 1.09 1.02 0.94 0.94 0.97 0.96 0.93 0.95 0.98 1.07 1.04 1.00 0.94 0.92 0.98 1.06 1.06 1.00 0.98 0.97 0.87 0.79 0.71
0.66 0.86 0.91 0.94 1.00 1.07 1.21 1.40 1.75 1.87 1.77 1.70 1.72 1.68 1.58 1.52 1.38 1.22 1.17 1.16 1.10 1.06 1.06 1.01 1.04 0.97 0.92 0.93 0.93 0.97 0.96 1.01 1.05 0.99 0.98 1.12 1.16 1.06 1.03 0.97 0.87 0.81 0.69
0.58 0.69 0.82 0.83 0.77 0.76 0.88 1.06 1.28 1.38 1.41 1.47 1.56 1.60 1.62 1.56 1.38 1.26 1.15 1.14 1.03 1.00 1.10 1.09 1.05 1.03 1.02 0.97 0.96 0.94 0.91 0.99 1.11 1.04 0.95 0.96 0.99 1.05 1.07 1.03 0.91 0.90 0.83
0.44 0.47 0.54 0.53 0.52 0.60 0.69 0.84 0.96 1.03 1.10 1.19 1.31 1.42 1.42 1.39 1.31 1.32 1.24 1.15 1.04 1.00 1.07 1.06 0.98 0.94 0.94 0.92 1.03 0.94 0.91 1.01 1.10 1.07 1.20 1.12 0.98 1.11 1.15 1.13 1.17 1.12 1.11
0.30 0.28 0.28 0.29 0.35 0.49 0.61 0.68 0.76 0.83 0.92 1.00 1.14 1.24 1.27 1.25 1.28 1.28 1.18 1.12 1.13 1.05 1.07 0.98 0.97 0.95 0.91 0.92 1.01 0.96 1.00 1.07 1.05 1.11 1.29 1.30 1.18 1.14 1.16 1.24 1.38 1.52 1.41
0.23 0.22 0.20 0.19 0.20 0.25 0.39 0.52 0.60 0.73 0.88 0.94 0.94 0.97 1.12 1.11 1.14 1.12 1.05 1.10 1.11 1.07 1.12 1.11 1.01 1.00 0.99 1.03 1.12 1.09 1.07 1.19 1.25 1.38 1.48 1.46 1.38 1.36 1.29 1.32 1.40 1.50 1.56
0.26 0.20 0.17 0.16 0.16 0.18 0.27 0.37 0.46 0.59 0.69 0.73 0.76 0.88 0.97 0.98 0.96 0.97 0.93 0.97 0.98 0.99 1.01 1.04 1.05 1.05 1.10 1.27 1.49 1.45 1.39 1.42 1.47 1.54 1.64 1.67 1.72 1.70 1.53 1.47 1.43 1.45 1.55
0.35 0.26 0.22 0.19 0.22 0.22 0.21 0.29 0.32 0.36 0.42 0.50 0.58 0.71 0.85 0.85 0.84 0.87 0.97 1.00 0.96 0.90 0.82 0.87 0.94 0.94 1.04 1.24 1.52 1.64 1.64 1.63 1.56 1.65 1.85 1.86 1.81 1.70 1.57 1.58 1.51 1.48 1.58
0.32 0.41 0.38 0.25 0.26 0.22 0.20 0.23 0.24 0.29 0.34 0.40 0.47 0.57 0.72 0.83 0.87 0.91 0.96 1.01 0.99 0.94 0.92 0.94 0.96 1.04 1.09 1.12 1.30 1.48 1.56 1.60 1.59 1.71 1.77 1.77 1.83 1.75 1.66 1.58 1.53 1.51 1.63
0.29 0.45 0.50 0.28 0.23 0.22 0.22 0.24 0.26 0.30 0.33 0.38 0.48 0.57 0.65 0.79 0.91 0.96 0.99 1.02 1.04 1.01 1.03 1.07 1.11 1.16 1.17 1.17 1.26 1.41 1.51 1.56 1.61 1.70 1.77 1.79 1.79 1.84 1.92 1.80 1.75 1.80 1.86
0.30 0.29 0.34 0.26 0.24 0.25 0.25 0.26 0.29 0.34 0.36 0.42 0.50 0.56 0.65 0.71 0.79 0.94 1.01 1.10 1.12 1.08 1.14 1.24 1.26 1.24 1.18 1.13 1.33 1.46 1.47 1.58 1.66 1.68 1.65 1.71 1.89 1.97 1.98 1.82 1.82 1.92 1.91
0.34 0.35 0.39 0.37 0.35 0.36 0.34 0.29 0.35 0.43 0.50 0.59 0.62 0.65 0.71 0.79 0.83 0.90 0.94 1.06 1.13 1.21 1.31 1.36 1.38 1.32 1.15 1.32 1.46 1.48 1.50 1.58 1.63 1.64 1.57 1.50 1.55 1.65 1.72 1.67 1.61 1.65 1.71
0.51 0.59 0.66 0.58 0.50 0.45 0.41 0.42 0.49 0.56 0.63 0.72 0.83 0.88 0.92 1.00 1.04 1.07 1.06 1.11 1.24 1.34 1.36 1.36 1.37 1.36 1.41 1.45 1.33 1.29 1.21 1.27 1.34 1.34 1.32 1.16 1.09 1.30 1.37 1.51 1.50 1.40 1.37
0.55 0.64 0.70 0.71 0.66 0.63 0.59 0.62 0.68 0.77 0.90 0.99 1.10 1.21 1.28 1.35 1.41 1.47 1.43 1.43 1.48 1.57 1.56 1.48 1.48 1.55 1.55 1.51 1.32 1.24 1.12 1.13 1.15 1.14 1.11 1.10 1.09 1.13 1.22 1.29 1.30 1.26 1.21
0.62 0.74 0.73 0.73 0.73 0.84 0.84 0.82 0.86 0.95 1.13 1.30 1.40 1.51 1.57 1.61 1.63 1.62 1.68 1.74 1.83 1.85 1.85 1.80 1.83 1.83 1.88 1.82 1.55 1.43 1.26 1.21 1.16 1.18 1.21 1.21 1.11 1.16 1.12 1.11 1.14 1.15 1.19
0.69 0.78 0.83 0.82 0.87 1.02 1.05 1.06 1.15 1.24 1.30 1.36 1.45 1.63 1.76 1.84 1.82 1.83 1.93 2.07 2.19 2.16 2.15 2.17 2.17 2.09 2.05 2.01 1.66 1.46 1.27 1.29 1.27 1.30 1.25 1.19 1.06 1.01 0.96 0.96 1.04 1.02 1.03
0.68 0.78 0.82 0.86 0.90 1.03 1.15 1.31 1.46 1.52 1.54 1.58 1.63 1.71 1.81 1.93 1.94 1.99 2.03 2.14 2.25 2.24 2.19 2.12 2.04 1.98 1.99 1.96 1.68 1.49 1.31 1.35 1.38 1.30 1.25 1.20 1.10 0.94 0.89 0.84 0.87 0.90 0.95
0.59 0.67 0.81 0.89 0.95 1.08 1.30 1.48 1.61 1.73 1.82 1.83 1.90 1.89 1.93 1.90 1.84 1.96 2.07 2.16 2.26 2.21 2.16 2.16 2.04 1.94 1.91 1.78 1.59 1.43 1.36 1.45 1.51 1.46 1.37 1.30 1.16 0.94 0.87 0.78 0.80 0.83 0.82
0.62 0.66 0.76 0.88 0.95 1.04 1.23 1.54 1.58 1.61 1.65 1.73 1.77 1.84 1.87 1.89 1.89 1.97 2.06 2.18 2.20 2.15 2.07 2.08 2.08 2.01 1.91 1.85 1.66 1.43 1.32 1.34 1.37 1.48 1.55 1.40 1.23 1.05 0.92 0.91 0.88 0.82 0.77
0.61 0.64 0.72 0.83 0.89 0.86 0.94 1.09 1.21 1.29 1.34 1.39 1.45 1.48 1.58 1.67 1.82 2.00 2.03 2.10 2.17 2.19 2.16 2.12 2.07 2.03 1.98 1.97 1.80 1.58 1.40 1.38 1.43 1.50 1.55 1.43 1.30 1.13 0.99 0.96 0.86 0.77 0.75
0.52 0.57 0.67 0.69 0.72 0.78 0.76 0.79 0.86 1.05 1.16 1.19 1.24 1.34 1.47 1.58 1.75 1.95 2.05 1.98 1.99 2.11 2.05 1.94 1.84 1.77 1.72 1.80 1.71 1.52 1.44 1.43 1.51 1.57 1.64 1.58 1.46 1.35 1.21 1.11 1.05 0.99 0.95
0.52 0.57 0.62 0.62 0.61 0.67 0.69 0.69 0.80 0.99 1.12 1.13 1.15 1.20 1.25 1.36 1.48 1.61 1.70 1.63 1.44 1.47 1.41 1.28 1.16 1.12 1.15 1.23 1.20 1.13 1.08 1.13 1.26 1.37 1.53 1.52 1.42 1.34 1.30 1.26 1.20 1.14 1.07

GEFSMW_prec_meanprecacc_192.txt.gz
Total_Precipitation_Accumulation
1.52 1.96 2.43 2.94 3.60 4.47 5.42 5.79 5.49 4.91 4.45 3.99 3.46 3.05 2.69 2.43 2.29 2.00 1.65 1.51 1.48 1.48 1.58 1.32 1.42 1.46 1.49 1.50 1.54 1.61 1.54 1.33 1.47 1.70 1.50 1.21 1.05 1.01 0.91 0.86 0.90 0.83 0.90
1.59 2.08 2.64 3.06 3.40 3.94 4.70 4.97 4.59 3.93 3.34 3.03 2.84 2.60 2.46 2.14 1.90 1.77 1.62 1.37 1.34 1.35 1.37 1.37 1.15 1.18 1.29 1.20 1.23 1.47 1.47 1.25 1.32 1.58 1.66 1.43 1.35 1.13 0.70 0.73 0.79 0.80 0.93
1.44 2.16 2.66 2.92 3.20 3.42 3.42 3.51 3.38 2.86 2.50 2.38 2.34 2.26 2.27 2.05 1.77 1.61 1.43 1.24 1.17 1.12 1.14 1.12 1.09 1.16 1.13 1.18 1.22 1.28 1.36 1.28 1.16 1.24 1.59 1.49 1.30 1.09 0.85 0.75 0.73 0.85 1.03
1.27 2.02 2.27 2.34 2.43 2.54 2.36 2.35 2.41 2.23 2.14 2.04 2.01 1.85 1.67 1.58 1.46 1.44 1.36 1.24 1.17 1.09 1.01 0.99 0.96 1.03 1.05 1.22 1.05 1.11 1.21 1.24 1.08 1.08 1.16 1.16 1.20 1.21 1.09 0.90 0.81 0.85 1.00
0.97 1.32 1.36 1.46 1.55 1.65 1.70 1.86 2.08 2.08 1.97 1.91 1.98 1.95 1.65 1.48 1.39 1.37 1.41 1.28 1.16 1.09 1.02 1.00 1.03 1.04 1.01 1.04 1.07 1.19 1.14 1.11 1.06 1.06 1.10 1.19 1.19 1.12 1.14 1.12 0.98 0.88 0.78
0.67 0.86 0.92 0.94 1.00 1.07 1.21 1.41 1.77 1.90 1.81 1.75 1.77 1.73 1.63 1.56 1.42 1.28 1.26 1.24 1.16 1.14 1.14 1.08 1.11 1.06 1.03 1.03 1.03 1.08 1.07 1.12 1.16 1.08 1.07 1.22 1.28 1.19 1.19 1.13 1.03 0.94 0.77
0.58 0.70 0.82 0.83 0.77 0.76 0.88 1.07 1.30 1.41 1.45 1.51 1.58 1.62 1.66 1.59 1.42 1.30 1.22 1.20 1.09 1.07 1.17 1.15 1.11 1.10 1.09 1.05 1.05 1.04 1.01 1.10 1.22 1.15 1.05 1.05 1.07 1.15 1.19 1.16 1.05 1.02 0.91
0.44 0.47 0.54 0.53 0.52 0.60 0.70 0.85 0.97 1.04 1.13 1.21 1.33 1.44 1.44 1.43 1.34 1.36 1.28 1.19 1.08 1.05 1.12 1.12 1.04 0.99 0.99 0.98 1.10 1.01 1.00 1.12 1.20 1.15 1.30 1.21 1.07 1.19 1.23 1.24 1.29 1.21 1.18
0.30 0.28 0.28 0.29 0.35 0.50 0.62 0.69 0.77 0.84 0.93 1.02 1.17 1.27 1.30 1.29 1.32 1.31 1.20 1.14 1.15 1.08 1.11 1.02 1.02 1.00 0.96 0.97 1.06 1.04 1.08 1.16 1.14 1.21 1.39 1.39 1.27 1.23 1.25 1.34 1.51 1.64 1.50
0.23 0.22 0.20 0.19 0.21 0.26 0.39 0.54 0.62 0.75 0.89 0.95 0.97 1.00 1.15 1.13 1.16 1.13 1.06 1.11 1.13 1.09 1.15 1.14 1.04 1.04 1.04 1.08 1.17 1.15 1.15 1.26 1.32 1.46 1.56 1.55 1.48 1.46 1.38 1.41 1.50 1.63 1.68
0.26 0.20 0.18 0.17 0.16 0.18 0.27 0.38 0.47 0.60 0.70 0.73 0.77 0.89 0.98 0.99 0.98 0.98 0.94 0.98 1.00 1.02 1.04 1.07 1.09 1.09 1.13 1.30 1.54 1.51 1.44 1.46 1.52 1.61 1.72 1.75 1.82 1.81 1.63 1.57 1.52 1.54 1.67
0.35 0.27 0.23 0.19 0.23 0.23 0.22 0.29 0.33 0.36 0.42 0.51 0.58 0.71 0.86 0.87 0.86 0.88 0.99 1.03 1.00 0.93 0.85 0.90 0.98 0.97 1.07 1.29 1.60 1.73 1.70 1.68 1.62 1.70 1.92 1.93 1.89 1.80 1.67 1.68 1.60 1.58 1.71
0.32 0.41 0.38 0.25 0.27 0.23 0.22 0.24 0.25 0.29 0.34 0.40 0.47 0.58 0.72 0.84 0.88 0.93 0.98 1.04 1.03 0.97 0.96 0.99 1.00 1.08 1.15 1.20 1.37 1.55 1.62 1.65 1.64 1.75 1.82 1.83 1.88 1.80 1.73 1.65 1.62 1.60 1.74
0.29 0.45 0.50 0.28 0.23 0.23 0.23 0.24 0.27 0.30 0.33 0.38 0.48 0.57 0.66 0.80 0.92 0.98 1.01 1.04 1.08 1.07 1.08 1.11 1.15 1.21 1.24 1.24 1.32 1.46 1.55 1.61 1.65 1.75 1.82 1.83 1.82 1.88 1.96 1.85 1.80 1.85 1.92
0.30 0.30 0.34 0.26 0.25 0.25 0.26 0.27 0.30 0.34 0.36 0.43 0.51 0.57 0.66 0.72 0.80 0.95 1.04 1.14 1.20 1.13 1.17 1.27 1.29 1.28 1.21 1.16 1.36 1.49 1.50 1.62 1.70 1.71 1.68 1.73 1.90 1.99 2.00 1.85 1.86 1.97 1.96
0.34 0.35 0.40 0.37 0.35 0.36 0.34 0.29 0.35 0.44 0.51 0.59 0.63 0.66 0.74 0.82 0.85 0.92 0.96 1.12 1.19 1.25 1.33 1.40 1.42 1.36 1.18 1.35 1.48 1.50 1.52 1.60 1.65 1.66 1.59 1.52 1.56 1.65 1.73 1.69 1.63 1.67 1.74
0.51 0.59 0.66 0.59 0.50 0.45 0.42 0.42 0.49 0.57 0.64 0.73 0.84 0.90 0.95 1.04 1.07 1.09 1.08 1.13 1.27 1.37 1.39 1.40 1.42 1.40 1.45 1.47 1.35 1.30 1.22 1.28 1.35 1.36 1.33 1.16 1.09 1.31 1.39 1.53 1.52 1.42 1.39
0.56 0.65 0.70 0.71 0.67 0.63 0.59 0.63 0.69 0.78 0.91 1.00 1.11 1.23 1.30 1.36 1.43 1.49 1.46 1.47 1.51 1.60 1.59 1.50 1.51 1.58 1.58 1.55 1.34 1.25 1.13 1.13 1.15 1.15 1.11 1.10 1.09 1.15 1.25 1.31 1.32 1.28 1.23
0.62 0.75 0.74 0.73 0.74 0.84 0.85 0.83 0.87 0.95 1.14 1.31 1.42 1.52 1.59 1.63 1.65 1.65 1.71 1.77 1.86 1.87 1.86 1.82 1.85 1.87 1.92 1.85 1.57 1.43 1.26 1.21 1.17 1.19 1.22 1.22 1.13 1.18 1.14 1.13 1.16 1.17 1.22
0.70 0.79 0.84 0.83 0.88 1.03 1.06 1.07 1.16 1.25 1.31 1.37 1.47 1.65 1.79 1.86 1.83 1.85 1.95 2.09 2.21 2.17 2.16 2.18 2.19 2.11 2.07 2.03 1.67 1.46 1.27 1.30 1.28 1.32 1.27 1.21 1.08 1.04 0.98 0.99 1.06 1.04 1.04
0.69 0.78 0.83 0.88 0.92 1.06 1.16 1.32 1.47 1.53 1.55 1.58 1.64 1.72 1.83 1.94 1.95 2.00 2.04 2.15 2.26 2.26 2.21 2.13 2.05 1.99 2.00 1.97 1.69 1.50 1.32 1.36 1.39 1.30 1.26 1.21 1.12 0.96 0.91 0.86 0.89 0.92 0.97
0.60 0.68 0.83 0.92 0.99 1.11 1.33 1.50 1.63 1.75 1.83 1.84 1.92 1.91 1.95 1.91 1.85 1.98 2.08 2.17 2.27 2.23 2.18 2.18 2.06 1.96 1.93 1.80 1.61 1.45 1.37 1.45 1.51 1.46 1.37 1.30 1.17 0.95 0.88 0.79 0.81 0.84 0.83
0.63 0.68 0.79 0.90 0.98 1.06 1.26 1.57 1.61 1.63 1.68 1.75 1.79 1.86 1.88 1.90 1.91 1.98 2.07 2.19 2.21 2.18 2.11 2.11 2.10 2.03 1.93 1.87 1.67 1.44 1.32 1.35 1.37 1.48 1.55 1.40 1.23 1.05 0.92 0.91 0.88 0.82 0.77
0.63 0.66 0.74 0.85 0.92 0.88 0.97 1.12 1.25 1.33 1.37 1.42 1.47 1.50 1.60 1.69 1.84 2.01 2.04 2.11 2.18 2.20 2.19 2.15 2.10 2.05 2.00 1.99 1.81 1.59 1.41 1.39 1.44 1.51 1.56 1.43 1.31 1.14 0.99 0.96 0.87 0.77 0.75
0.55 0.59 0.70 0.73 0.76 0.82 0.80 0.83 0.90 1.08 1.19 1.22 1.26 1.35 1.48 1.59 1.76 1.96 2.06 1.99 2.00 2.13 2.07 1.96 1.87 1.81 1.76 1.83 1.72 1.53 1.44 1.44 1.51 1.57 1.65 1.58 1.47 1.35 1.21 1.11 1.05 0.99 0.95
0.55 0.60 0.66 0.65 0.64 0.71 0.72 0.73 0.83 1.01 1.14 1.14 1.17 1.21 1.26 1.37 1.48 1.62 1.70 1.64 1.45 1.48 1.42 1.29 1.17 1.14 1.17 1.24 1.21 1.13 1.09 1.13 1.27 1.38 1.54 1.53 1.43 1.35 1.30 1.27 1.20 1.14 1.07

GEFSMW_prec_meanprecacc_198.txt.gz
Total_Precipitation_Accumulation
1.54 1.97 2.45 2.97 3.65 4.55 5.46 5.81 5.52 4.93 4.47 4.01 3.49 3.08 2.72 2.48 2.35 2.05 1.71 1.56 1.53 1.52 1.62 1.36 1.46 1.49 1.51 1.52 1.57 1.64 1.57 1.37 1.52 1.76 1.58 1.29 1.15 1.09 1.00 0.95 1.02 0.94 0.99
1.61 2.09 2.65 3.07 3.42 3.95 4.70 4.98 4.61 3.95 3.36 3.04 2.86 2.63 2.49 2.18 1.97 1.83 1.69 1.44 1.41 1.41 1.41 1.41 1.20 1.21 1.31 1.22 1.26 1.51 1.50 1.28 1.39 1.68 1.75 1.51 1.45 1.24 0.80 0.82 0.89 0.90 1.02
1.45 2.16 2.66 2.92 3.21 3.42 3.43 3.53 3.40 2.88 2.52 2.40 2.37 2.31 2.32 2.10 1.84 1.69 1.50 1.29 1.23 1.19 1.20 1.16 1.13 1.20 1.16 1.20 1.25 1.33 1.40 1.32 1.24 1.36 1.72 1.60 1.39 1.19 0.97 0.89 0.84 0.95 1.13
1.29 2.03 2.28 2.34 2.44 2.55 2.37 2.37 2.43 2.24 2.17 2.07 2.05 1.90 1.72 1.64 1.51 1.49 1.40 1.28 1.21 1.15 1.06 1.05 1.01 1.07 1.08 1.25 1.10 1.16 1.27 1.29 1.15 1.19 1.30 1.33 1.36 1.32 1.18 1.03 0.94 1.00 1.12
0.99 1.32 1.37 1.47 1.56 1.66 1.71 1.88 2.09 2.09 1.99 1.93 2.00 1.97 1.69 1.51 1.41 1.41 1.44 1.31 1.19 1.12 1.05 1.05 1.08 1.08 1.05 1.08 1.11 1.26 1.21 1.17 1.12 1.13 1.20 1.32 1.34 1.24 1.24 1.19 1.05 0.99 0.89
0.68 0.88 0.93 0.95 1.01 1.07 1.22 1.42 1.78 1.91 1.83 1.77 1.79 1.74 1.65 1.57 1.43 1.30 1.29 1.27 1.18 1.15 1.17 1.13 1.17 1.11 1.07 1.06 1.06 1.13 1.13 1.17 1.22 1.14 1.12 1.29 1.36 1.28 1.28 1.19 1.07 0.99 0.84
0.60 0.71 0.83 0.85 0.78 0.76 0.88 1.07 1.30 1.42 1.46 1.52 1.59 1.63 1.66 1.60 1.42 1.31 1.23 1.22 1.11 1.09 1.21 1.19 1.17 1.16 1.16 1.11 1.10 1.10 1.06 1.14 1.27 1.20 1.10 1.10 1.12 1.19 1.24 1.21 1.08 1.05 0.96
0.45 0.48 0.55 0.54 0.53 0.60 0.70 0.85 0.97 1.05 1.14 1.23 1.34 1.45 1.45 1.43 1.35 1.37 1.29 1.21 1.10 1.06 1.15 1.18 1.11 1.08 1.07 1.04 1.19 1.09 1.05 1.16 1.24 1.20 1.35 1.26 1.12 1.25 1.30 1.31 1.35 1.26 1.24
0.31 0.29 0.29 0.30 0.35 0.50 0.62 0.70 0.78 0.85 0.94 1.02 1.18 1.28 1.30 1.29 1.32 1.32 1.21 1.15 1.16 1.09 1.13 1.05 1.09 1.08 1.03 1.04 1.16 1.14 1.16 1.22 1.19 1.26 1.44 1.44 1.32 1.30 1.33 1.43 1.59 1.72 1.58
0.24 0.23 0.22 0.20 0.21 0.26 0.40 0.54 0.63 0.76 0.89 0.96 0.97 1.01 1.15 1.14 1.16 1.14 1.07 1.12 1.14 1.10 1.16 1.17 1.07 1.07 1.07 1.14 1.26 1.23 1.21 1.31 1.37 1.51 1.62 1.60 1.54 1.52 1.44 1.47 1.57 1.70 1.75
0.27 0.21 0.20 0.19 0.18 0.20 0.28 0.39 0.49 0.60 0.70 0.74 0.77 0.89 0.99 0.99 0.98 0.98 0.95 0.99 1.01 1.03 1.07 1.09 1.10 1.10 1.16 1.34 1.58 1.53 1.48 1.50 1.56 1.65 1.77 1.79 1.88 1.87 1.69 1.62 1.58 1.63 1.75
0.37 0.28 0.24 0.20 0.25 0.25 0.24 0.31 0.34 0.37 0.42 0.51 0.58 0.71 0.86 0.87 0.86 0.88 1.00 1.05 1.02 0.95 0.88 0.92 0.98 0.98 1.09 1.31 1.62 1.75 1.75 1.75 1.67 1.74 1.96 1.97 1.94 1.85 1.72 1.73 1.65 1.61 1.76
0.36 0.43 0.39 0.26 0.28 0.25 0.23 0.25 0.26 0.30 0.34 0.40 0.47 0.58 0.73 0.84 0.89 0.94 1.00 1.06 1.06 1.00 0.98 1.00 1.01 1.09 1.17 1.23 1.42 1.60 1.68 1.71 1.68 1.80 1.86 1.86 1.92 1.83 1.77 1.69 1.65 1.62 1.76
0.34 0.47 0.51 0.29 0.24 0.24 0.24 0.25 0.27 0.31 0.33 0.39 0.48 0.58 0.66 0.80 0.93 0.99 1.04 1.07 1.11 1.10 1.11 1.12 1.16 1.23 1.27 1.27 1.36 1.49 1.59 1.64 1.69 1.78 1.85 1.87 1.86 1.91 1.99 1.87 1.83 1.87 1.94
0.36 0.33 0.36 0.28 0.26 0.26 0.27 0.28 0.31 0.35 0.37 0.43 0.51 0.58 0.67 0.73 0.83 0.98 1.07 1.18 1.23 1.17 1.20 1.30 1.32 1.31 1.25 1.19 1.39 1.53 1.53 1.64 1.72 1.74 1.70 1.76 1.93 2.01 2.03 1.88 1.88 1.99 1.98
0.43 0.46 0.46 0.40 0.38 0.38 0.36 0.31 0.37 0.45 0.52 0.60 0.64 0.68 0.75 0.85 0.89 0.96 1.01 1.15 1.23 1.28 1.37 1.43 1.45 1.39 1.21 1.39 1.52 1.53 1.54 1.62 1.67 1.68 1.61 1.54 1.57 1.67 1.76 1.72 1.65 1.69 1.76
0.58 0.66 0.70 0.62 0.54 0.48 0.44 0.45 0.52 0.58 0.65 0.74 0.86 0.92 0.97 1.07 1.09 1.12 1.12 1.16 1.30 1.40 1.43 1.43 1.45 1.43 1.48 1.52 1.39 1.33 1.24 1.30 1.37 1.38 1.34 1.17 1.10 1.32 1.40 1.54 1.53 1.43 1.40
0.59 0.69 0.76 0.75 0.69 0.65 0.63 0.70 0.74 0.80 0.92 1.02 1.14 1.25 1.31 1.38 1.45 1.51 1.48 1.49 1.53 1.62 1.61 1.53 1.54 1.62 1.63 1.60 1.38 1.28 1.15 1.14 1.16 1.16 1.11 1.11 1.10 1.15 1.26 1.32 1.33 1.29 1.25
0.66 0.82 0.82 0.78 0.79 0.90 0.92 0.91 0.93 0.99 1.16 1.34 1.45 1.56 1.62 1.65 1.67 1.67 1.72 1.78 1.87 1.88 1.88 1.83 1.87 1.89 1.93 1.87 1.58 1.45 1.27 1.22 1.17 1.19 1.23 1.23 1.13 1.19 1.15 1.14 1.16 1.17 1.23
0.75 0.87 0.92 0.91 0.98 1.20 1.23 1.23 1.26 1.32 1.37 1.41 1.52 1.69 1.82 1.89 1.85 1.86 1.97 2.10 2.22 2.19 2.18 2.20 2.20 2.12 2.08 2.04 1.68 1.47 1.28 1.31 1.28 1.33 1.28 1.21 1.08 1.04 0.98 0.99 1.07 1.05 1.06
0.72 0.82 0.86 0.92 0.98 1.14 1.26 1.48 1.60 1.62 1.63 1.66 1.69 1.76 1.86 1.97 1.97 2.02 2.07 2.17 2.28 2.28 2.23 2.14 2.07 2.00 2.02 1.99 1.71 1.52 1.34 1.37 1.40 1.31 1.26 1.21 1.12 0.96 0.91 0.86 0.89 0.92 0.98
0.62 0.71 0.87 0.97 1.06 1.21 1.42 1.60 1.73 1.85 1.93 1.92 1.98 1.96 1.99 1.95 1.89 2.03 2.13 2.21 2.32 2.25 2.19 2.20 2.07 1.97 1.95 1.82 1.63 1.47 1.38 1.46 1.52 1.47 1.37 1.30 1.17 0.95 0.89 0.80 0.81 0.84 0.83
0.67 0.71 0.82 0.96 1.04 1.13 1.33 1.64 1.69 1.71 1.76 1.82 1.86 1.92 1.92 1.94 1.95 2.03 2.11 2.23 2.25 2.20 2.13 2.13 2.11 2.04 1.95 1.89 1.70 1.46 1.34 1.35 1.38 1.49 1.56 1.40 1.24 1.06 0.93 0.92 0.89 0.82 0.77
0.71 0.76 0.83 0.93 1.00 0.95 1.04 1.21 1.34 1.42 1.45 1.49 1.52 1.54 1.63 1.71 1.86 2.04 2.07 2.14 2.21 2.23 2.21 2.16 2.11 2.07 2.02 2.01 1.83 1.61 1.42 1.40 1.44 1.51 1.56 1.43 1.31 1.14 0.99 0.96 0.87 0.77 0.76
0.59 0.66 0.81 0.81 0.83 0.89 0.89 0.93 0.99 1.15 1.26 1.30 1.33 1.40 1.51 1.62 1.78 1.97 2.08 2.00 2.01 2.14 2.08 1.97 1.88 1.82 1.78 1.85 1.74 1.54 1.45 1.44 1.52 1.58 1.65 1.59 1.47 1.36 1.22 1.12 1.05 1.00 0.95
0.57 0.62 0.69 0.68 0.67 0.74 0.75 0.77 0.89 1.08 1.20 1.21 1.22 1.25 1.28 1.38 1.49 1.63 1.71 1.65 1.46 1.50 1.43 1.30 1.18 1.15 1.18 1.25 1.22 1.14 1.09 1.14 1.27 1.38 1.55 1.54 1.44 1.36 1.32 1.28 1.21 1.15 1.07

GEFSMW_prec_meanprecacc_204.txt.gz
Total_Precipitation_Accumulation
1.55 2.00 2.50 3.01 3.69 4.60 5.51 5.83 5.54 4.94 4.48 4.04 3.52 3.12 2.76 2.52 2.42 2.11 1.77 1.61 1.57 1.56 1.67 1.43 1.53 1.56 1.57 1.57 1.61 1.67 1.59 1.39 1.56 1.81 1.63 1.33 1.19 1.14 1.05 1.01 1.08 1.00 1.04
1.61 2.11 2.69 3.10 3.45 3.98 4.72 4.99 4.61 3.95 3.37 3.06 2.89 2.67 2.55 2.25 2.04 1.91 1.76 1.49 1.46 1.47 1.47 1.47 1.26 1.28 1.37 1.28 1.31 1.55 1.53 1.30 1.43 1.72 1.79 1.55 1.49 1.28 0.83 0.87 0.96 0.98 1.10
1.46 2.17 2.67 2.94 3.24 3.44 3.44 3.54 3.41 2.89 2.53 2.42 2.39 2.35 2.38 2.17 1.91 1.74 1.54 1.34 1.28 1.22 1.23 1.20 1.17 1.25 1.20 1.23 1.28 1.37 1.44 1.35 1.28 1.39 1.76 1.63 1.41 1.22 1.01 0.94 0.92 1.05 1.23
1.30 2.04 2.29 2.36 2.45 2.57 2.38 2.38 2.43 2.25 2.17 2.07 2.07 1.92 1.74 1.66 1.54 1.53 1.44 1.32 1.24 1.17 1.08 1.08 1.04 1.11 1.12 1.29 1.14 1.19 1.30 1.32 1.18 1.23 1.35 1.38 1.39 1.35 1.20 1.05 0.98 1.05 1.18
1.00 1.34 1.38 1.49 1.58 1.67 1.72 1.88 2.10 2.09 2.00 1.94 2.01 1.98 1.70 1.52 1.42 1.43 1.46 1.33 1.21 1.14 1.07 1.06 1.10 1.11 1.09 1.11 1.15 1.30 1.25 1.21 1.16 1.16 1.24 1.37 1.38 1.27 1.26 1.21 1.08 1.02 0.93
0.69 0.88 0.93 0.97 1.03 1.09 1.22 1.42 1.78 1.92 1.83 1.77 1.79 1.75 1.65 1.58 1.44 1.32 1.31 1.28 1.19 1.17 1.20 1.16 1.20 1.15 1.12 1.12 1.12 1.18 1.18 1.21 1.25 1.17 1.15 1.31 1.40 1.31 1.30 1.21 1.09 1.01 0.86
0.61 0.71 0.84 0.85 0.79 0.78 0.90 1.08 1.31 1.42 1.46 1.52 1.60 1.64 1.68 1.61 1.43 1.34 1.25 1.23 1.12 1.10 1.23 1.24 1.22 1.22 1.22 1.17 1.17 1.16 1.11 1.19 1.30 1.22 1.13 1.13 1.16 1.23 1.27 1.24 1.10 1.06 0.98
0.46 0.48 0.56 0.55 0.54 0.62 0.72 0.87 0.98 1.06 1.14 1.23 1.34 1.45 1.46 1.45 1.36 1.38 1.29 1.21 1.11 1.08 1.18 1.25 1.21 1.16 1.12 1.10 1.26 1.16 1.11 1.20 1.27 1.22 1.39 1.31 1.16 1.29 1.35 1.35 1.38 1.29 1.25
0.31 0.29 0.29 0.30 0.36 0.52 0.65 0.72 0.79 0.86 0.94 1.03 1.18 1.28 1.31 1.30 1.33 1.33 1.22 1.16 1.17 1.12 1.16 1.09 1.14 1.15 1.10 1.10 1.21 1.19 1.19 1.24 1.22 1.29 1.47 1.46 1.36 1.36 1.39 1.49 1.64 1.76 1.61
0.25 0.23 0.22 0.21 0.22 0.28 0.43 0.58 0.66 0.77 0.90 0.97 0.98 1.02 1.16 1.15 1.17 1.15 1.08 1.14 1.15 1.12 1.18 1.19 1.09 1.09 1.10 1.16 1.28 1.26 1.25 1.35 1.42 1.55 1.64 1.62 1.58 1.57 1.49 1.53 1.62 1.75 1.79
0.27 0.22 0.20 0.19 0.19 0.22 0.33 0.45 0.53 0.63 0.73 0.76 0.79 0.91 1.00 1.00 0.99 0.99 0.96 1.01 1.02 1.05 1.09 1.11 1.12 1.11 1.17 1.35 1.60 1.55 1.50 1.53 1.59 1.68 1.79 1.82 1.92 1.92 1.74 1.67 1.63 1.67 1.79
0.37 0.28 0.25 0.21 0.26 0.27 0.29 0.37 0.39 0.41 0.47 0.53 0.60 0.73 0.87 0.88 0.88 0.90 1.02 1.07 1.04 0.98 0.89 0.93 0.99 0.99 1.10 1.32 1.63 1.77 1.77 1.78 1.70 1.77 1.99 2.00 1.97 1.88 1.76 1.77 1.69 1.66 1.80
0.37 0.44 0.40 0.27 0.30 0.27 0.29 0.31 0.29 0.34 0.37 0.43 0.48 0.59 0.74 0.85 0.91 0.96 1.03 1.10 1.10 1.03 0.99 1.00 1.02 1.10 1.18 1.24 1.43 1.62 1.69 1.73 1.70 1.81 1.87 1.87 1.94 1.85 1.79 1.71 1.67 1.65 1.78
0.34 0.48 0.52 0.31 0.26 0.27 0.30 0.29 0.31 0.35 0.36 0.41 0.49 0.58 0.67 0.82 0.94 1.01 1.07 1.14 1.16 1.12 1.12 1.13 1.18 1.24 1.28 1.28 1.37 1.51 1.61 1.66 1.70 1.80 1.86 1.88 1.87 1.92 2.02 1.90 1.84 1.89 1.95
0.36 0.33 0.37 0.30 0.29 0.31 0.30 0.32 0.36 0.41 0.40 0.45 0.53 0.59 0.68 0.75 0.84 1.00 1.12 1.23 1.29 1.20 1.23 1.33 1.34 1.32 1.25 1.20 1.40 1.54 1.55 1.67 1.75 1.75 1.72 1.77 1.95 2.04 2.06 1.91 1.91 2.02 2.00
0.43 0.47 0.47 0.43 0.45 0.43 0.39 0.39 0.46 0.49 0.54 0.62 0.66 0.69 0.77 0.86 0.90 0.98 1.04 1.19 1.26 1.31 1.39 1.46 1.47 1.40 1.22 1.40 1.53 1.54 1.56 1.65 1.70 1.71 1.64 1.56 1.60 1.70 1.79 1.75 1.70 1.75 1.80
0.59 0.67 0.71 0.66 0.61 0.53 0.47 0.48 0.54 0.61 0.68 0.77 0.89 0.95 1.00 1.11 1.13 1.15 1.14 1.18 1.32 1.41 1.44 1.45 1.46 1.44 1.50 1.54 1.42 1.36 1.28 1.33 1.41 1.41 1.38 1.21 1.13 1.34 1.42 1.56 1.54 1.45 1.41
0.60 0.70 0.78 0.80 0.73 0.68 0.66 0.73 0.78 0.84 0.96 1.06 1.19 1.32 1.38 1.45 1.50 1.55 1.51 1.51 1.55 1.63 1.62 1.54 1.55 1.64 1.67 1.65 1.43 1.32 1.19 1.18 1.19 1.18 1.14 1.13 1.11 1.17 1.26 1.33 1.34 1.29 1.25
0.67 0.83 0.83 0.82 0.81 0.92 0.94 0.95 0.99 1.06 1.22 1.40 1.52 1.63 1.68 1.72 1.73 1.71 1.75 1.80 1.89 1.90 1.90 1.86 1.90 1.91 1.97 1.94 1.64 1.49 1.30 1.25 1.19 1.21 1.26 1.25 1.14 1.19 1.16 1.15 1.17 1.18 1.23
0.76 0.88 0.94 0.93 1.00 1.22 1.25 1.26 1.30 1.38 1.44 1.49 1.60 1.77 1.88 1.94 1.89 1.88 1.99 2.13 2.25 2.21 2.21 2.23 2.23 2.15 2.11 2.06 1.71 1.50 1.30 1.32 1.30 1.34 1.30 1.23 1.09 1.05 0.99 0.99 1.07 1.05 1.06
0.73 0.83 0.88 0.94 1.00 1.16 1.29 1.52 1.66 1.70 1.74 1.76 1.77 1.82 1.90 2.01 2.01 2.06 2.09 2.21 2.32 2.31 2.27 2.19 2.11 2.04 2.05 2.01 1.72 1.54 1.35 1.39 1.42 1.33 1.28 1.22 1.13 0.97 0.91 0.86 0.89 0.92 0.98
0.63 0.73 0.89 0.99 1.09 1.25 1.47 1.65 1.79 1.91 1.99 1.97 2.03 2.01 2.03 1.98 1.93 2.06 2.17 2.26 2.37 2.32 2.26 2.26 2.13 2.03 2.00 1.86 1.65 1.49 1.40 1.48 1.53 1.48 1.38 1.31 1.18 0.96 0.89 0.80 0.81 0.85 0.84
0.69 0.73 0.85 0.99 1.09 1.19 1.40 1.71 1.76 1.78 1.81 1.86 1.89 1.94 1.95 1.97 1.99 2.06 2.15 2.26 2.29 2.26 2.19 2.20 2.19 2.09 1.99 1.93 1.73 1.49 1.36 1.36 1.39 1.50 1.57 1.41 1.24 1.06 0.93 0.92 0.89 0.83 0.78
0.73 0.79 0.86 0.97 1.04 1.01 1.11 1.28 1.41 1.48 1.51 1.53 1.56 1.56 1.66 1.74 1.89 2.07 2.09 2.16 2.23 2.26 2.26 2.21 2.15 2.10 2.04 2.04 1.86 1.63 1.44 1.41 1.46 1.53 1.57 1.44 1.31 1.14 1.00 0.96 0.87 0.77 0.76
0.62 0.69 0.84 0.85 0.89 0.96 0.96 0.99 1.04 1.19 1.29 1.32 1.35 1.41 1.53 1.63 1.80 1.99 2.10 2.02 2.03 2.17 2.10 1.99 1.89 1.83 1.80 1.87 1.77 1.56 1.46 1.46 1.53 1.59 1.66 1.60 1.48 1.36 1.22 1.12 1.06 1.01 0.96
0.61 0.66 0.72 0.72 0.71 0.79 0.80 0.81 0.92 1.10 1.21 1.22 1.23 1.25 1.28 1.39 1.50 1.64 1.73 1.67 1.48 1.52 1.45 1.32 1.20 1.17 1.21 1.28 1.24 1.15 1.10 1.14 1.28 1.39 1.55 1.55 1.44 1.36 1.32 1.28 1.22 1.15 1.08

GEFSMW_prec_meanprecacc_210.txt.gz
Total_Precipitation_Accumulation
1.55 2.01 2.52 3.03 3.70 4.62 5.52 5.84 5.55 4.95 4.51 4.07 3.56 3.16 2.81 2.56 2.46 2.15 1.80 1.64 1.59 1.59 1.73 1.49 1.59 1.62 1.65 1.64 1.68 1.76 1.66 1.45 1.62 1.87 1.68 1.36 1.21 1.16 1.07 1.03 1.12 1.03 1.07
1.61 2.11 2.69 3.11 3.46 3.99 4.73 5.00 4.62 3.96 3.39 3.08 2.91 2.70 2.59 2.28 2.06 1.95 1.80 1.52 1.48 1.51 1.52 1.54 1.31 1.34 1.45 1.35 1.39 1.64 1.61 1.38 1.48 1.79 1.86 1.61 1.52 1.30 0.85 0.89 0.99 1.02 1.15
1.46 2.17 2.68 2.95 3.24 3.45 3.44 3.54 3.41 2.90 2.54 2.43 2.41 2.36 2.41 2.20 1.93 1.77 1.59 1.38 1.30 1.25 1.27 1.26 1.23 1.32 1.26 1.30 1.37 1.45 1.53 1.43 1.34 1.46 1.85 1.72 1.49 1.28 1.05 0.96 0.94 1.08 1.30
1.30 2.04 2.29 2.36 2.45 2.57 2.38 2.38 2.44 2.26 2.18 2.08 2.08 1.94 1.77 1.70 1.58 1.57 1.48 1.36 1.27 1.20 1.10 1.12 1.10 1.17 1.18 1.36 1.20 1.23 1.38 1.41 1.26 1.31 1.43 1.46 1.47 1.43 1.26 1.09 1.00 1.07 1.20
1.00 1.34 1.39 1.49 1.59 1.68 1.72 1.88 2.11 2.10 2.01 1.95 2.03 2.00 1.72 1.55 1.45 1.46 1.50 1.37 1.24 1.18 1.08 1.09 1.14 1.16 1.14 1.19 1.22 1.36 1.33 1.30 1.25 1.25 1.32 1.44 1.44 1.34 1.33 1.27 1.13 1.06 0.97
0.69 0.88 0.94 0.97 1.04 1.10 1.23 1.43 1.79 1.93 1.84 1.79 1.81 1.77 1.67 1.60 1.46 1.35 1.34 1.31 1.23 1.21 1.22 1.18 1.23 1.20 1.18 1.19 1.19 1.25 1.27 1.29 1.33 1.25 1.23 1.40 1.48 1.40 1.40 1.31 1.17 1.08 0.92
0.61 0.71 0.84 0.86 0.80 0.79 0.90 1.09 1.32 1.43 1.47 1.54 1.62 1.65 1.70 1.63 1.46 1.36 1.26 1.24 1.14 1.13 1.26 1.28 1.28 1.31 1.31 1.24 1.23 1.22 1.17 1.25 1.38 1.30 1.20 1.22 1.24 1.32 1.37 1.35 1.18 1.12 1.02
0.46 0.48 0.56 0.55 0.54 0.63 0.72 0.88 0.99 1.07 1.16 1.24 1.35 1.46 1.48 1.47 1.38 1.39 1.30 1.22 1.12 1.10 1.21 1.30 1.28 1.24 1.19 1.15 1.30 1.19 1.15 1.25 1.32 1.26 1.44 1.36 1.21 1.37 1.45 1.45 1.48 1.35 1.30
0.31 0.29 0.29 0.30 0.37 0.52 0.65 0.72 0.80 0.87 0.96 1.04 1.19 1.29 1.33 1.31 1.34 1.33 1.23 1.16 1.19 1.13 1.18 1.13 1.19 1.21 1.15 1.15 1.25 1.22 1.24 1.29 1.26 1.34 1.52 1.51 1.40 1.42 1.46 1.57 1.72 1.83 1.67
0.25 0.23 0.22 0.21 0.23 0.28 0.44 0.59 0.67 0.78 0.91 0.97 0.99 1.03 1.18 1.16 1.17 1.15 1.08 1.15 1.17 1.14 1.21 1.22 1.12 1.12 1.13 1.19 1.31 1.29 1.27 1.38 1.45 1.59 1.69 1.67 1.63 1.61 1.53 1.57 1.67 1.82 1.86
0.27 0.22 0.21 0.20 0.19 0.23 0.34 0.48 0.56 0.66 0.75 0.78 0.80 0.92 1.02 1.02 0.99 0.99 0.97 1.02 1.04 1.07 1.12 1.14 1.14 1.13 1.19 1.37 1.62 1.58 1.52 1.55 1.61 1.70 1.83 1.87 1.97 1.96 1.78 1.71 1.67 1.71 1.83
0.37 0.28 0.25 0.21 0.26 0.27 0.31 0.41 0.42 0.45 0.50 0.55 0.62 0.75 0.88 0.89 0.88 0.91 1.04 1.09 1.06 1.00 0.91 0.94 1.00 1.00 1.11 1.33 1.65 1.79 1.78 1.79 1.71 1.79 2.01 2.03 2.01 1.92 1.81 1.83 1.74 1.70 1.84
0.37 0.44 0.40 0.28 0.30 0.27 0.30 0.34 0.30 0.35 0.39 0.44 0.50 0.60 0.75 0.86 0.92 0.97 1.04 1.11 1.12 1.05 1.01 1.02 1.03 1.12 1.19 1.25 1.45 1.63 1.70 1.74 1.71 1.83 1.89 1.90 1.97 1.89 1.83 1.76 1.72 1.68 1.82
0.34 0.48 0.52 0.31 0.26 0.27 0.30 0.29 0.31 0.35 0.37 0.42 0.50 0.59 0.68 0.84 0.96 1.02 1.09 1.16 1.19 1.15 1.16 1.16 1.19 1.26 1.30 1.30 1.39 1.53 1.63 1.68 1.72 1.81 1.88 1.90 1.91 1.96 2.06 1.93 1.88 1.93 2.00
0.36 0.33 0.37 0.30 0.30 0.31 0.31 0.32 0.37 0.41 0.41 0.47 0.55 0.61 0.70 0.76 0.87 1.04 1.15 1.25 1.31 1.24 1.28 1.34 1.34 1.33 1.27 1.22 1.43 1.57 1.57 1.70 1.77 1.78 1.74 1.80 1.99 2.08 2.10 1.94 1.94 2.05 2.03
0.43 0.47 0.47 0.43 0.45 0.43 0.39 0.39 0.46 0.49 0.55 0.64 0.68 0.71 0.79 0.89 0.95 1.03 1.07 1.21 1.27 1.32 1.40 1.47 1.48 1.41 1.23 1.41 1.54 1.56 1.58 1.67 1.73 1.74 1.67 1.59 1.62 1.72 1.81 1.78 1.72 1.76 1.81
0.59 0.67 0.71 0.66 0.61 0.53 0.47 0.48 0.54 0.61 0.69 0.78 0.90 0.97 1.02 1.13 1.17 1.18 1.16 1.19 1.33 1.43 1.46 1.46 1.47 1.44 1.51 1.55 1.42 1.37 1.29 1.35 1.43 1.43 1.40 1.23 1.15 1.36 1.44 1.57 1.56 1.46 1.43
0.60 0.70 0.78 0.80 0.73 0.69 0.66 0.73 0.78 0.84 0.97 1.08 1.20 1.32 1.38 1.46 1.51 1.56 1.52 1.51 1.56 1.64 1.63 1.56 1.57 1.65 1.68 1.67 1.44 1.33 1.20 1.20 1.21 1.20 1.17 1.16 1.14 1.19 1.29 1.35 1.36 1.31 1.27
0.67 0.84 0.83 0.82 0.82 0.93 0.95 0.95 1.00 1.07 1.24 1.41 1.53 1.63 1.69 1.73 1.74 1.72 1.75 1.81 1.90 1.91 1.91 1.88 1.92 1.94 2.00 1.97 1.68 1.54 1.33 1.28 1.23 1.24 1.29 1.28 1.18 1.24 1.20 1.18 1.20 1.20 1.25
0.76 0.88 0.94 0.93 1.00 1.23 1.26 1.27 1.32 1.39 1.45 1.50 1.61 1.77 1.89 1.94 1.90 1.89 2.00 2.15 2.27 2.24 2.24 2.28 2.29 2.22 2.19 2.14 1.79 1.60 1.38 1.39 1.37 1.41 1.36 1.29 1.14 1.09 1.04 1.04 1.10 1.07 1.07
0.73 0.83 0.88 0.95 1.02 1.18 1.32 1.53 1.67 1.71 1.75 1.76 1.78 1.83 1.90 2.01 2.02 2.07 2.13 2.26 2.36 2.34 2.32 2.26 2.19 2.13 2.14 2.09 1.79 1.62 1.46 1.48 1.50 1.41 1.36 1.29 1.17 1.00 0.96 0.90 0.91 0.94 0.99
0.63 0.73 0.90 1.01 1.11 1.26 1.48 1.67 1.81 1.93 2.01 1.99 2.04 2.02 2.03 1.98 1.94 2.08 2.20 2.30 2.41 2.37 2.32 2.35 2.23 2.14 2.10 1.94 1.74 1.58 1.49 1.55 1.59 1.53 1.42 1.34 1.20 0.97 0.90 0.81 0.82 0.85 0.84
0.70 0.74 0.86 1.00 1.09 1.19 1.41 1.73 1.78 1.80 1.84 1.89 1.91 1.96 1.96 1.99 2.01 2.09 2.18 2.30 2.32 2.28 2.21 2.21 2.20 2.12 2.02 1.96 1.77 1.54 1.44 1.44 1.44 1.54 1.59 1.42 1.25 1.06 0.93 0.93 0.90 0.83 0.78
0.74 0.80 0.87 0.98 1.06 1.02 1.12 1.29 1.43 1.51 1.54 1.57 1.60 1.61 1.70 1.78 1.93 2.10 2.13 2.20 2.26 2.27 2.27 2.22 2.15 2.10 2.06 2.05 1.87 1.64 1.46 1.44 1.49 1.55 1.59 1.45 1.32 1.15 1.00 0.97 0.87 0.78 0.76
0.64 0.71 0.86 0.86 0.90 0.97 0.97 1.00 1.06 1.22 1.33 1.37 1.40 1.46 1.57 1.66 1.82 2.02 2.12 2.04 2.05 2.18 2.11 2.00 1.91 1.85 1.81 1.89 1.78 1.56 1.47 1.46 1.54 1.60 1.67 1.60 1.48 1.37 1.22 1.12 1.06 1.01 0.96
0.64 0.69 0.75 0.75 0.73 0.81 0.83 0.85 0.97 1.15 1.26 1.26 1.26 1.28 1.30 1.40 1.52 1.65 1.74 1.69 1.50 1.53 1.46 1.34 1.22 1.19 1.23 1.29 1.25 1.16 1.10 1.15 1.29 1.40 1.57 1.56 1.46 1.37 1.33 1.29 1.22 1.16 1.08

GEFSMW_prec_meanprecacc_216.txt.gz
Total_Precipitation_Accumulation
1.55 2.01 2.52 3.03 3.71 4.62 5.53 5.85 5.57 4.98 4.55 4.14 3.64 3.25 2.89 2.62 2.50 2.20 1.85 1.69 1.62 1.62 1.79 1.56 1.67 1.69 1.74 1.74 1.77 1.85 1.74 1.53 1.70 1.97 1.78 1.43 1.25 1.20 1.11 1.08 1.17 1.08 1.12
1.61 2.11 2.69 3.11 3.46 3.99 4.73 5.01 4.63 3.98 3.41 3.13 2.96 2.76 2.66 2.34 2.12 2.01 1.88 1.58 1.52 1.54 1.57 1.62 1.39 1.41 1.54 1.46 1.48 1.74 1.70 1.47 1.57 1.88 1.99 1.74 1.65 1.40 0.91 0.95 1.05 1.07 1.21
1.46 2.17 2.68 2.95 3.24 3.45 3.44 3.55 3.42 2.91 2.56 2.45 2.44 2.40 2.46 2.27 2.01 1.86 1.69 1.44 1.35 1.28 1.32 1.31 1.30 1.40 1.35 1.39 1.46 1.54 1.64 1.53 1.43 1.54 1.95 1.86 1.65 1.41 1.15 1.04 1.00 1.14 1.38
1.30 2.04 2.29 2.36 2.45 2.57 2.38 2.38 2.45 2.27 2.20 2.10 2.11 1.97 1.83 1.77 1.66 1.65 1.55 1.42 1.32 1.24 1.14 1.17 1.15 1.23 1.24 1.45 1.26 1.32 1.50 1.53 1.37 1.40 1.52 1.56 1.60 1.58 1.39 1.18 1.06 1.13 1.26
1.00 1.34 1.39 1.49 1.59 1.68 1.72 1.88 2.12 2.13 2.03 1.97 2.06 2.04 1.77 1.60 1.50 1.51 1.57 1.43 1.30 1.23 1.12 1.15 1.21 1.23 1.22 1.27 1.29 1.47 1.46 1.42 1.38 1.36 1.42 1.53 1.57 1.47 1.47 1.41 1.20 1.12 1.02
0.69 0.89 0.94 0.97 1.04 1.10 1.23 1.43 1.80 1.95 1.86 1.82 1.85 1.81 1.72 1.64 1.49 1.38 1.39 1.37 1.28 1.25 1.25 1.22 1.29 1.28 1.26 1.26 1.27 1.35 1.36 1.40 1.45 1.37 1.34 1.50 1.60 1.53 1.55 1.45 1.27 1.16 0.97
0.61 0.72 0.84 0.86 0.80 0.79 0.90 1.09 1.32 1.45 1.49 1.55 1.64 1.69 1.74 1.66 1.49 1.39 1.29 1.27 1.17 1.15 1.28 1.30 1.31 1.36 1.37 1.30 1.31 1.30 1.25 1.34 1.47 1.39 1.31 1.31 1.31 1.42 1.49 1.47 1.29 1.21 1.09
0.46 0.48 0.56 0.55 0.54 0.63 0.72 0.88 1.00 1.08 1.17 1.25 1.38 1.50 1.52 1.51 1.41 1.42 1.31 1.24 1.13 1.11 1.23 1.32 1.30 1.27 1.22 1.19 1.37 1.27 1.23 1.34 1.40 1.34 1.53 1.45 1.26 1.43 1.54 1.56 1.60 1.45 1.40
0.31 0.29 0.30 0.30 0.37 0.52 0.65 0.72 0.80 0.89 0.98 1.06 1.22 1.34 1.36 1.34 1.35 1.35 1.23 1.17 1.20 1.15 1.20 1.15 1.21 1.22 1.17 1.19 1.31 1.30 1.31 1.36 1.33 1.41 1.60 1.57 1.45 1.47 1.52 1.65 1.82 1.94 1.77
0.25 0.24 0.22 0.22 0.23 0.28 0.44 0.59 0.69 0.81 0.93 0.99 1.01 1.06 1.21 1.18 1.19 1.16 1.09 1.16 1.19 1.17 1.23 1.24 1.14 1.14 1.16 1.24 1.35 1.34 1.33 1.43 1.50 1.64 1.74 1.73 1.69 1.68 1.59 1.64 1.76 1.93 1.97
0.28 0.22 0.21 0.20 0.19 0.23 0.34 0.49 0.58 0.68 0.77 0.80 0.82 0.94 1.05 1.04 1.01 1.00 0.98 1.03 1.06 1.10 1.14 1.17 1.17 1.17 1.23 1.40 1.65 1.61 1.55 1.58 1.64 1.73 1.87 1.92 2.05 2.03 1.84 1.78 1.75 1.80 1.92
0.37 0.28 0.25 0.21 0.26 0.27 0.31 0.42 0.44 0.47 0.51 0.57 0.64 0.76 0.90 0.90 0.90 0.92 1.05 1.10 1.08 1.02 0.95 0.99 1.05 1.04 1.14 1.36 1.68 1.81 1.81 1.81 1.74 1.82 2.05 2.08 2.08 2.00 1.89 1.90 1.82 1.78 1.92
0.37 0.44 0.40 0.28 0.30 0.27 0.30 0.34 0.31 0.36 0.40 0.44 0.50 0.62 0.76 0.88 0.94 0.98 1.05 1.13 1.13 1.08 1.07 1.08 1.09 1.19 1.24 1.28 1.47 1.65 1.73 1.76 1.73 1.86 1.93 1.95 2.03 1.95 1.90 1.83 1.78 1.74 1.89
0.35 0.48 0.52 0.31 0.26 0.27 0.30 0.29 0.31 0.36 0.37 0.42 0.51 0.60 0.69 0.86 0.97 1.03 1.10 1.17 1.21 1.19 1.22 1.21 1.24 1.33 1.35 1.32 1.41 1.55 1.65 1.70 1.74 1.84 1.91 1.96 1.96 2.01 2.11 2.00 1.95 2.00 2.08
0.37 0.34 0.37 0.30 0.30 0.31 0.31 0.32 0.37 0.42 0.41 0.47 0.55 0.61 0.70 0.77 0.87 1.04 1.15 1.26 1.31 1.25 1.31 1.37 1.36 1.35 1.29 1.25 1.45 1.60 1.60 1.73 1.80 1.81 1.78 1.85 2.03 2.11 2.14 1.98 2.00 2.11 2.09
0.44 0.47 0.47 0.43 0.45 0.43 0.39 0.39 0.46 0.49 0.55 0.65 0.69 0.72 0.80 0.90 0.95 1.03 1.07 1.21 1.28 1.33 1.41 1.48 1.50 1.42 1.24 1.42 1.55 1.58 1.61 1.70 1.76 1.77 1.70 1.62 1.65 1.73 1.83 1.81 1.75 1.79 1.85
0.59 0.67 0.71 0.66 0.62 0.54 0.47 0.48 0.54 0.61 0.69 0.79 0.91 0.98 1.03 1.13 1.17 1.18 1.16 1.19 1.33 1.43 1.47 1.48 1.48 1.46 1.53 1.57 1.43 1.38 1.31 1.38 1.47 1.47 1.43 1.25 1.17 1.38 1.46 1.59 1.58 1.47 1.44
0.60 0.71 0.79 0.80 0.73 0.69 0.67 0.74 0.79 0.85 0.98 1.09 1.21 1.33 1.39 1.46 1.52 1.56 1.52 1.52 1.56 1.65 1.64 1.56 1.57 1.67 1.69 1.68 1.45 1.34 1.21 1.22 1.24 1.23 1.19 1.18 1.16 1.21 1.30 1.37 1.37 1.32 1.28
0.68 0.84 0.84 0.82 0.82 0.93 0.95 0.95 1.00 1.08 1.25 1.42 1.54 1.64 1.69 1.73 1.74 1.72 1.76 1.81 1.90 1.92 1.91 1.88 1.93 1.95 2.01 1.98 1.69 1.55 1.35 1.30 1.25 1.26 1.31 1.32 1.21 1.26 1.22 1.20 1.21 1.21 1.26
0.77 0.89 0.95 0.94 1.02 1.24 1.27 1.28 1.33 1.41 1.46 1.51 1.62 1.78 1.90 1.96 1.91 1.90 2.01 2.16 2.28 2.24 2.25 2.28 2.30 2.24 2.20 2.15 1.80 1.63 1.42 1.43 1.41 1.44 1.39 1.32 1.17 1.12 1.07 1.06 1.13 1.09 1.09
0.74 0.84 0.89 0.97 1.04 1.21 1.34 1.56 1.69 1.73 1.76 1.78 1.79 1.84 1.93 2.04 2.04 2.09 2.14 2.27 2.37 2.35 2.32 2.26 2.20 2.14 2.15 2.10 1.79 1.63 1.48 1.51 1.55 1.49 1.42 1.34 1.22 1.05 0.99 0.94 0.94 0.97 1.01
0.64 0.74 0.91 1.02 1.12 1.28 1.51 1.69 1.84 1.96 2.04 2.02 2.07 2.05 2.06 2.01 1.96 2.11 2.23 2.32 2.43 2.38 2.34 2.36 2.25 2.15 2.11 1.95 1.74 1.58 1.50 1.59 1.65 1.61 1.53 1.45 1.30 1.06 0.98 0.88 0.87 0.88 0.86
0.71 0.75 0.88 1.02 1.11 1.21 1.43 1.75 1.80 1.83 1.87 1.92 1.94 1.99 2.00 2.03 2.06 2.14 2.23 2.34 2.35 2.31 2.24 2.24 2.23 2.14 2.04 1.97 1.77 1.55 1.45 1.47 1.48 1.58 1.65 1.50 1.33 1.14 1.00 0.98 0.93 0.85 0.79
0.76 0.82 0.89 1.00 1.08 1.04 1.14 1.32 1.46 1.53 1.57 1.59 1.62 1.64 1.75 1.83 1.98 2.16 2.19 2.25 2.30 2.32 2.31 2.25 2.18 2.13 2.08 2.07 1.88 1.64 1.46 1.45 1.50 1.56 1.61 1.47 1.35 1.18 1.03 1.00 0.91 0.80 0.78
0.67 0.74 0.89 0.89 0.93 1.01 1.00 1.03 1.09 1.25 1.36 1.40 1.44 1.51 1.62 1.72 1.88 2.07 2.18 2.11 2.12 2.25 2.16 2.03 1.93 1.87 1.83 1.90 1.79 1.57 1.47 1.47 1.55 1.61 1.68 1.62 1.50 1.39 1.24 1.14 1.09 1.04 0.99
0.67 0.72 0.79 0.79 0.79 0.88 0.89 0.90 1.02 1.20 1.31 1.29 1.29 1.32 1.35 1.46 1.58 1.75 1.84 1.78 1.56 1.58 1.49 1.36 1.24 1.21 1.24 1.30 1.25 1.17 1.11 1.15 1.29 1.41 1.58 1.58 1.47 1.39 1.35 1.31 1.24 1.18 1.10

GEFSMW_prec_meanprecacc_222.txt.gz
Total_Precipitation_Accumulation
1.56 2.01 2.52 3.03 3.71 4.62 5.53 5.85 5.57 4.99 4.56 4.15 3.65 3.26 2.91 2.64 2.52 2.22 1.88 1.74 1.68 1.66 1.82 1.58 1.69 1.72 1.77 1.78 1.81 1.87 1.77 1.56 1.74 2.03 1.85 1.51 1.34 1.28 1.22 1.18 1.28 1.20 1.23
1.62 2.12 2.69 3.11 3.46 3.99 4.73 5.01 4.64 3.99 3.42 3.13 2.96 2.77 2.67 2.35 2.14 2.03 1.91 1.62 1.57 1.59 1.61 1.65 1.42 1.44 1.57 1.50 1.52 1.77 1.73 1.50 1.60 1.92 2.04 1.82 1.74 1.48 1.01 1.07 1.22 1.22 1.33
1.46 2.18 2.71 2.99 3.25 3.45 3.44 3.55 3.42 2.92 2.57 2.46 2.44 2.40 2.47 2.29 2.03 1.89 1.71 1.46 1.38 1.33 1.37 1.36 1.33 1.43 1.38 1.43 1.51 1.58 1.67 1.57 1.47 1.58 2.00 1.92 1.71 1.47 1.26 1.18 1.15 1.28 1.51
1.32 2.06 2.34 2.44 2.47 2.57 2.38 2.38 2.45 2.27 2.20 2.10 2.11 1.98 1.84 1.79 1.68 1.67 1.59 1.45 1.35 1.27 1.17 1.19 1.18 1.26 1.27 1.49 1.33 1.39 1.55 1.57 1.42 1.47 1.59 1.64 1.67 1.64 1.44 1.25 1.16 1.22 1.35
1.01 1.35 1.41 1.52 1.60 1.68 1.72 1.88 2.12 2.13 2.03 1.97 2.06 2.06 1.79 1.62 1.53 1.54 1.58 1.46 1.33 1.25 1.14 1.17 1.23 1.26 1.26 1.31 1.37 1.55 1.52 1.47 1.44 1.45 1.50 1.60 1.63 1.52 1.51 1.45 1.26 1.18 1.08
0.70 0.89 0.95 0.98 1.04 1.10 1.23 1.43 1.81 1.95 1.87 1.82 1.86 1.83 1.75 1.66 1.52 1.40 1.40 1.38 1.30 1.27 1.27 1.24 1.31 1.30 1.29 1.30 1.32 1.41 1.40 1.45 1.50 1.42 1.39 1.55 1.64 1.57 1.59 1.50 1.31 1.20 1.02
0.62 0.73 0.86 0.87 0.81 0.79 0.90 1.10 1.33 1.45 1.49 1.56 1.65 1.72 1.77 1.70 1.51 1.41 1.31 1.28 1.18 1.17 1.30 1.32 1.32 1.38 1.39 1.32 1.33 1.34 1.29 1.38 1.51 1.43 1.34 1.35 1.35 1.46 1.54 1.52 1.33 1.25 1.14
0.47 0.49 0.56 0.56 0.55 0.64 0.73 0.88 1.00 1.09 1.18 1.26 1.40 1.53 1.56 1.54 1.45 1.46 1.34 1.26 1.15 1.14 1.25 1.35 1.32 1.28 1.24 1.21 1.41 1.31 1.26 1.37 1.43 1.38 1.57 1.50 1.33 1.48 1.58 1.61 1.64 1.48 1.43
0.33 0.30 0.30 0.31 0.38 0.55 0.66 0.73 0.81 0.91 1.00 1.08 1.25 1.38 1.41 1.38 1.40 1.39 1.26 1.18 1.22 1.17 1.22 1.18 1.23 1.24 1.19 1.22 1.35 1.34 1.34 1.39 1.36 1.46 1.64 1.60 1.50 1.52 1.58 1.70 1.86 1.97 1.80
0.26 0.27 0.25 0.23 0.24 0.31 0.46 0.60 0.70 0.84 0.97 1.03 1.05 1.10 1.25 1.22 1.21 1.18 1.10 1.18 1.21 1.19 1.26 1.27 1.17 1.17 1.20 1.28 1.39 1.37 1.35 1.45 1.52 1.66 1.78 1.75 1.71 1.70 1.63 1.70 1.80 1.96 2.00
0.29 0.24 0.25 0.23 0.21 0.24 0.36 0.51 0.60 0.72 0.82 0.84 0.85 0.97 1.08 1.07 1.03 1.02 0.99 1.05 1.07 1.11 1.16 1.18 1.19 1.19 1.26 1.44 1.68 1.63 1.57 1.59 1.66 1.75 1.89 1.94 2.07 2.05 1.87 1.83 1.80 1.84 1.96
0.39 0.32 0.29 0.24 0.28 0.29 0.32 0.44 0.46 0.50 0.55 0.60 0.66 0.79 0.92 0.92 0.91 0.94 1.06 1.11 1.09 1.03 0.96 0.99 1.06 1.06 1.17 1.39 1.70 1.82 1.81 1.82 1.75 1.83 2.07 2.10 2.09 2.02 1.91 1.93 1.86 1.82 1.95
0.40 0.47 0.44 0.30 0.32 0.29 0.32 0.36 0.33 0.40 0.47 0.50 0.52 0.63 0.78 0.90 0.95 0.99 1.06 1.13 1.14 1.08 1.07 1.08 1.10 1.22 1.29 1.32 1.49 1.66 1.74 1.77 1.75 1.87 1.96 1.97 2.04 1.96 1.92 1.85 1.81 1.77 1.91
0.40 0.52 0.55 0.34 0.29 0.29 0.31 0.30 0.32 0.37 0.38 0.43 0.52 0.61 0.71 0.87 0.98 1.04 1.10 1.17 1.21 1.19 1.22 1.21 1.25 1.34 1.37 1.34 1.42 1.56 1.67 1.71 1.75 1.84 1.92 1.97 1.98 2.03 2.12 2.01 1.97 2.04 2.11
0.44 0.39 0.42 0.35 0.34 0.35 0.33 0.33 0.38 0.42 0.42 0.48 0.56 0.62 0.72 0.78 0.88 1.04 1.16 1.26 1.32 1.25 1.31 1.37 1.36 1.36 1.31 1.26 1.47 1.61 1.62 1.74 1.81 1.81 1.79 1.86 2.05 2.14 2.16 2.00 2.02 2.13 2.12
0.49 0.56 0.56 0.50 0.49 0.46 0.41 0.41 0.48 0.51 0.57 0.66 0.71 0.74 0.82 0.91 0.96 1.04 1.08 1.22 1.28 1.34 1.42 1.48 1.51 1.44 1.25 1.44 1.58 1.59 1.62 1.72 1.77 1.78 1.71 1.64 1.67 1.75 1.85 1.83 1.77 1.81 1.87
0.65 0.73 0.78 0.72 0.66 0.59 0.51 0.50 0.56 0.64 0.72 0.81 0.93 1.00 1.04 1.15 1.18 1.19 1.17 1.20 1.34 1.44 1.47 1.48 1.49 1.47 1.54 1.58 1.43 1.38 1.32 1.38 1.47 1.48 1.45 1.27 1.18 1.39 1.47 1.60 1.60 1.50 1.47
0.65 0.76 0.85 0.84 0.75 0.73 0.74 0.82 0.84 0.89 1.01 1.11 1.23 1.36 1.41 1.47 1.53 1.57 1.53 1.54 1.59 1.66 1.65 1.57 1.58 1.67 1.70 1.68 1.45 1.34 1.22 1.22 1.24 1.24 1.20 1.20 1.17 1.22 1.31 1.38 1.39 1.35 1.31
0.70 0.87 0.88 0.85 0.84 0.95 1.00 1.01 1.06 1.13 1.30 1.47 1.57 1.66 1.72 1.75 1.76 1.73 1.78 1.85 1.95 1.95 1.93 1.89 1.94 1.96 2.03 1.99 1.69 1.55 1.35 1.31 1.26 1.27 1.32 1.33 1.22 1.27 1.23 1.21 1.22 1.23 1.29
0.80 0.91 0.97 0.96 1.03 1.26 1.31 1.34 1.38 1.46 1.52 1.57 1.67 1.81 1.92 1.98 1.94 1.93 2.04 2.20 2.33 2.29 2.28 2.31 2.32 2.26 2.22 2.17 1.81 1.64 1.43 1.44 1.42 1.45 1.39 1.33 1.18 1.13 1.07 1.07 1.13 1.10 1.11
0.76 0.87 0.92 0.98 1.05 1.22 1.36 1.60 1.75 1.79 1.81 1.85 1.86 1.89 1.98 2.09 2.09 2.14 2.19 2.33 2.44 2.42 2.39 2.32 2.26 2.19 2.19 2.12 1.81 1.65 1.49 1.53 1.56 1.49 1.43 1.36 1.23 1.06 1.00 0.94 0.95 0.97 1.02
0.65 0.76 0.92 1.03 1.13 1.30 1.53 1.72 1.87 2.01 2.09 2.08 2.17 2.16 2.16 2.07 2.01 2.17 2.29 2.40 2.51 2.47 2.44 2.47 2.36 2.26 2.18 2.00 1.77 1.60 1.52 1.60 1.65 1.61 1.54 1.47 1.32 1.09 1.00 0.89 0.88 0.89 0.88
0.72 0.76 0.88 1.03 1.12 1.23 1.45 1.79 1.87 1.90 1.94 2.01 2.05 2.13 2.12 2.10 2.12 2.21 2.30 2.42 2.44 2.41 2.33 2.34 2.33 2.23 2.13 2.05 1.83 1.58 1.47 1.48 1.49 1.58 1.65 1.50 1.34 1.17 1.04 1.01 0.97 0.89 0.82
0.77 0.82 0.90 1.01 1.09 1.06 1.17 1.37 1.56 1.67 1.68 1.68 1.71 1.73 1.84 1.91 2.06 2.23 2.27 2.33 2.38 2.40 2.40 2.36 2.30 2.26 2.22 2.19 1.97 1.70 1.49 1.47 1.51 1.58 1.62 1.48 1.36 1.19 1.06 1.04 0.96 0.85 0.82
0.68 0.75 0.89 0.90 0.94 1.03 1.03 1.08 1.15 1.33 1.47 1.50 1.51 1.58 1.69 1.78 1.93 2.13 2.25 2.18 2.20 2.34 2.26 2.13 2.03 1.95 1.90 1.96 1.83 1.60 1.50 1.48 1.56 1.62 1.70 1.63 1.50 1.39 1.25 1.16 1.11 1.08 1.03
0.67 0.73 0.80 0.81 0.81 0.91 0.94 0.97 1.10 1.27 1.36 1.35 1.36 1.39 1.42 1.51 1.63 1.79 1.90 1.85 1.61 1.63 1.55 1.41 1.29 1.26 1.29 1.34 1.29 1.19 1.13 1.17 1.30 1.42 1.60 1.59 1.48 1.40 1.36 1.32 1.25 1.20 1.12

GEFSMW_prec_meanprecacc_228.txt.gz
Total_Precipitation_Accumulation
1.57 2.01 2.53 3.03 3.71 4.62 5.53 5.85 5.58 5.00 4.56 4.15 3.66 3.27 2.92 2.66 2.55 2.26 1.92 1.79 1.72 1.70 1.85 1.62 1.73 1.75 1.79 1.81 1.84 1.91 1.81 1.59 1.76 2.05 1.89 1.55 1.39 1.34 1.28 1.23 1.33 1.24 1.31
1.63 2.12 2.70 3.12 3.47 3.99 4.73 5.01 4.64 4.00 3.42 3.13 2.96 2.77 2.67 2.36 2.16 2.06 1.94 1.66 1.61 1.62 1.63 1.69 1.45 1.47 1.59 1.52 1.57 1.82 1.77 1.52 1.62 1.94 2.07 1.84 1.77 1.50 1.04 1.11 1.26 1.28 1.42
1.46 2.19 2.71 3.00 3.25 3.45 3.45 3.55 3.42 2.92 2.57 2.46 2.44 2.40 2.47 2.29 2.04 1.90 1.73 1.50 1.42 1.36 1.39 1.39 1.36 1.46 1.40 1.46 1.55 1.63 1.71 1.60 1.50 1.60 2.02 1.95 1.73 1.48 1.27 1.21 1.20 1.34 1.57
1.32 2.06 2.34 2.45 2.49 2.58 2.39 2.38 2.45 2.27 2.20 2.11 2.11 1.98 1.84 1.79 1.68 1.67 1.62 1.49 1.38 1.29 1.20 1.23 1.24 1.33 1.34 1.54 1.38 1.44 1.58 1.61 1.45 1.50 1.62 1.67 1.69 1.66 1.46 1.27 1.18 1.27 1.39
1.02 1.35 1.42 1.54 1.61 1.69 1.73 1.89 2.12 2.13 2.03 1.97 2.07 2.07 1.80 1.63 1.53 1.54 1.60 1.49 1.37 1.27 1.17 1.20 1.27 1.32 1.32 1.37 1.42 1.59 1.55 1.50 1.46 1.47 1.55 1.64 1.65 1.53 1.53 1.46 1.27 1.20 1.12
0.70 0.90 0.95 0.99 1.04 1.10 1.23 1.43 1.81 1.96 1.87 1.82 1.86 1.84 1.76 1.68 1.52 1.41 1.41 1.40 1.33 1.30 1.31 1.26 1.34 1.34 1.32 1.32 1.35 1.46 1.45 1.48 1.53 1.46 1.43 1.58 1.65 1.59 1.62 1.52 1.32 1.21 1.04
0.62 0.73 0.86 0.88 0.81 0.79 0.90 1.10 1.33 1.45 1.49 1.56 1.66 1.73 1.80 1.73 1.54 1.44 1.33 1.31 1.21 1.20 1.32 1.33 1.35 1.40 1.41 1.34 1.35 1.38 1.32 1.41 1.53 1.45 1.36 1.37 1.37 1.48 1.55 1.54 1.35 1.26 1.15
0.47 0.50 0.57 0.57 0.56 0.64 0.73 0.88 1.00 1.09 1.19 1.28 1.43 1.57 1.60 1.58 1.48 1.50 1.38 1.30 1.19 1.17 1.28 1.37 1.34 1.30 1.26 1.25 1.46 1.34 1.28 1.38 1.45 1.39 1.58 1.51 1.36 1.50 1.60 1.62 1.65 1.49 1.43
0.33 0.31 0.32 0.32 0.39 0.56 0.66 0.73 0.82 0.91 1.02 1.12 1.30 1.44 1.47 1.45 1.45 1.43 1.30 1.22 1.25 1.19 1.24 1.21 1.26 1.26 1.21 1.26 1.40 1.37 1.36 1.41 1.37 1.47 1.65 1.62 1.52 1.55 1.62 1.74 1.89 1.99 1.81
0.27 0.28 0.26 0.23 0.24 0.32 0.46 0.61 0.70 0.85 1.00 1.08 1.10 1.17 1.32 1.29 1.26 1.20 1.14 1.21 1.23 1.21 1.27 1.28 1.18 1.18 1.22 1.30 1.43 1.40 1.38 1.47 1.54 1.68 1.79 1.77 1.73 1.73 1.67 1.73 1.84 1.99 2.02
0.30 0.25 0.25 0.23 0.21 0.25 0.36 0.51 0.61 0.73 0.84 0.86 0.88 1.00 1.11 1.10 1.06 1.04 1.01 1.08 1.10 1.14 1.17 1.20 1.20 1.20 1.27 1.46 1.71 1.66 1.59 1.61 1.68 1.77 1.92 1.97 2.09 2.07 1.90 1.86 1.85 1.89 2.01
0.41 0.33 0.30 0.24 0.29 0.30 0.33 0.44 0.47 0.52 0.58 0.63 0.70 0.82 0.94 0.94 0.94 0.96 1.08 1.14 1.11 1.04 0.97 1.00 1.07 1.08 1.18 1.41 1.73 1.87 1.86 1.86 1.78 1.87 2.10 2.12 2.12 2.04 1.94 1.96 1.90 1.87 2.01
0.42 0.48 0.44 0.31 0.33 0.30 0.33 0.37 0.36 0.44 0.51 0.55 0.59 0.67 0.80 0.92 0.97 1.01 1.08 1.16 1.16 1.09 1.08 1.09 1.10 1.23 1.31 1.35 1.52 1.69 1.77 1.80 1.78 1.90 1.98 1.98 2.06 1.98 1.93 1.86 1.83 1.80 1.93
0.42 0.54 0.58 0.38 0.31 0.31 0.34 0.35 0.36 0.40 0.41 0.47 0.56 0.64 0.74 0.91 1.02 1.06 1.12 1.19 1.23 1.20 1.23 1.22 1.25 1.34 1.37 1.35 1.44 1.59 1.70 1.75 1.79 1.87 1.94 1.99 2.00 2.04 2.14 2.03 2.00 2.07 2.13
0.46 0.43 0.47 0.40 0.38 0.38 0.36 0.38 0.43 0.47 0.46 0.53 0.63 0.69 0.78 0.84 0.93 1.08 1.19 1.28 1.33 1.27 1.33 1.38 1.37 1.36 1.31 1.27 1.49 1.63 1.63 1.76 1.82 1.83 1.80 1.88 2.07 2.15 2.18 2.02 2.04 2.16 2.13
0.50 0.58 0.59 0.56 0.54 0.52 0.47 0.48 0.55 0.58 0.65 0.74 0.79 0.82 0.89 0.96 1.01 1.07 1.11 1.25 1.31 1.36 1.44 1.50 1.52 1.44 1.26 1.46 1.59 1.60 1.64 1.73 1.79 1.79 1.72 1.65 1.68 1.76 1.87 1.86 1.80 1.82 1.87
0.65 0.74 0.80 0.77 0.74 0.67 0.62 0.62 0.66 0.73 0.82 0.90 1.02 1.07 1.10 1.19 1.21 1.22 1.21 1.25 1.39 1.49 1.51 1.50 1.50 1.48 1.55 1.60 1.46 1.41 1.34 1.40 1.48 1.49 1.46 1.28 1.19 1.41 1.49 1.63 1.62 1.51 1.48
0.65 0.77 0.87 0.87 0.78 0.76 0.79 0.88 0.91 0.97 1.08 1.16 1.27 1.40 1.45 1.52 1.57 1.62 1.59 1.60 1.66 1.75 1.70 1.60 1.60 1.68 1.72 1.72 1.48 1.36 1.23 1.24 1.25 1.25 1.21 1.21 1.18 1.23 1.33 1.40 1.40 1.36 1.32
0.71 0.88 0.89 0.86 0.85 0.97 1.01 1.03 1.08 1.15 1.33 1.49 1.60 1.69 1.75 1.80 1.80 1.79 1.85 1.91 2.01 2.05 1.98 1.93 1.97 1.99 2.06 2.02 1.72 1.58 1.37 1.32 1.27 1.28 1.33 1.34 1.23 1.28 1.24 1.22 1.24 1.24 1.30
0.81 0.93 0.98 0.97 1.05 1.28 1.33 1.36 1.40 1.47 1.54 1.60 1.71 1.88 1.99 2.04 1.98 1.99 2.12 2.28 2.40 2.38 2.36 2.38 2.40 2.33 2.28 2.21 1.85 1.69 1.47 1.46 1.44 1.46 1.40 1.33 1.19 1.14 1.08 1.07 1.14 1.11 1.12
0.78 0.89 0.94 1.00 1.08 1.26 1.39 1.62 1.78 1.81 1.82 1.87 1.89 1.95 2.06 2.16 2.17 2.23 2.31 2.44 2.54 2.53 2.49 2.43 2.36 2.27 2.24 2.17 1.86 1.69 1.52 1.54 1.57 1.51 1.44 1.37 1.25 1.07 1.01 0.95 0.95 0.98 1.03
0.70 0.80 0.98 1.08 1.18 1.35 1.58 1.77 1.92 2.06 2.12 2.11 2.21 2.22 2.22 2.14 2.11 2.28 2.41 2.52 2.63 2.59 2.53 2.54 2.42 2.31 2.24 2.05 1.83 1.65 1.55 1.62 1.67 1.63 1.56 1.49 1.34 1.10 1.01 0.90 0.89 0.90 0.88
0.79 0.82 0.93 1.08 1.17 1.27 1.49 1.85 1.94 1.95 1.98 2.05 2.10 2.18 2.20 2.22 2.23 2.36 2.49 2.62 2.65 2.56 2.42 2.40 2.37 2.27 2.16 2.08 1.87 1.63 1.53 1.53 1.52 1.62 1.68 1.52 1.36 1.19 1.06 1.03 0.98 0.90 0.84
0.82 0.86 0.93 1.04 1.12 1.08 1.19 1.39 1.59 1.69 1.70 1.72 1.76 1.78 1.90 2.02 2.18 2.34 2.38 2.44 2.50 2.51 2.48 2.41 2.33 2.30 2.26 2.24 2.03 1.77 1.56 1.52 1.55 1.61 1.64 1.50 1.38 1.20 1.08 1.07 0.98 0.86 0.83
0.72 0.79 0.92 0.93 0.96 1.04 1.05 1.09 1.16 1.34 1.49 1.52 1.54 1.61 1.72 1.83 1.98 2.18 2.31 2.25 2.26 2.41 2.32 2.18 2.07 2.01 1.96 2.02 1.89 1.65 1.55 1.52 1.60 1.65 1.71 1.64 1.52 1.41 1.27 1.18 1.15 1.11 1.05
0.72 0.76 0.83 0.83 0.83 0.92 0.95 0.98 1.11 1.29 1.39 1.37 1.38 1.41 1.45 1.54 1.67 1.83 1.95 1.91 1.67 1.69 1.60 1.46 1.33 1.29 1.32 1.37 1.31 1.21 1.15 1.19 1.32 1.43 1.60 1.61 1.50 1.42 1.39 1.34 1.27 1.22 1.15

GEFSMW_prec_meanprecacc_234.txt.gz
Total_Precipitation_Accumulation
1.57 2.01 2.53 3.04 3.71 4.62 5.54 5.87 5.61 5.02 4.59 4.18 3.68 3.30 2.96 2.70 2.59 2.30 1.98 1.85 1.78 1.74 1.91 1.66 1.77 1.80 1.84 1.86 1.90 1.97 1.87 1.65 1.82 2.11 1.95 1.59 1.42 1.40 1.33 1.29 1.39 1.28 1.34
1.63 2.12 2.70 3.12 3.47 3.99 4.73 5.02 4.66 4.03 3.45 3.16 3.00 2.80 2.69 2.38 2.19 2.09 1.99 1.70 1.67 1.67 1.68 1.75 1.51 1.52 1.65 1.59 1.64 1.90 1.83 1.57 1.68 2.02 2.15 1.90 1.82 1.54 1.07 1.15 1.29 1.32 1.45
1.46 2.19 2.71 3.00 3.25 3.46 3.45 3.55 3.44 2.94 2.59 2.48 2.46 2.41 2.49 2.31 2.06 1.94 1.78 1.54 1.46 1.40 1.44 1.46 1.45 1.55 1.49 1.54 1.64 1.72 1.79 1.67 1.55 1.66 2.10 2.02 1.81 1.55 1.32 1.23 1.23 1.36 1.59
1.32 2.06 2.34 2.45 2.49 2.58 2.39 2.38 2.46 2.28 2.21 2.12 2.13 2.00 1.86 1.81 1.71 1.70 1.65 1.52 1.41 1.32 1.23 1.28 1.30 1.42 1.42 1.61 1.44 1.49 1.65 1.68 1.50 1.55 1.68 1.74 1.76 1.72 1.51 1.31 1.21 1.29 1.41
1.02 1.35 1.42 1.54 1.61 1.69 1.73 1.89 2.12 2.13 2.04 1.98 2.09 2.09 1.82 1.65 1.56 1.57 1.65 1.52 1.40 1.31 1.20 1.24 1.33 1.39 1.41 1.46 1.48 1.65 1.62 1.57 1.53 1.54 1.62 1.69 1.69 1.58 1.58 1.52 1.31 1.23 1.14
0.70 0.90 0.95 0.99 1.05 1.10 1.24 1.43 1.81 1.96 1.87 1.83 1.88 1.86 1.78 1.70 1.56 1.45 1.45 1.45 1.38 1.35 1.35 1.30 1.39 1.38 1.38 1.38 1.41 1.53 1.54 1.56 1.62 1.53 1.49 1.63 1.70 1.65 1.67 1.58 1.37 1.25 1.07
0.62 0.73 0.86 0.88 0.81 0.79 0.91 1.10 1.33 1.46 1.50 1.57 1.67 1.75 1.82 1.76 1.58 1.48 1.38 1.35 1.26 1.24 1.36 1.36 1.39 1.45 1.46 1.37 1.39 1.44 1.39 1.47 1.62 1.56 1.45 1.44 1.43 1.53 1.60 1.59 1.40 1.30 1.17
0.47 0.50 0.57 0.57 0.56 0.64 0.73 0.89 1.01 1.10 1.20 1.30 1.45 1.60 1.63 1.64 1.59 1.61 1.47 1.35 1.23 1.21 1.31 1.40 1.38 1.34 1.29 1.28 1.50 1.39 1.33 1.43 1.50 1.44 1.66 1.60 1.43 1.56 1.65 1.67 1.71 1.54 1.47
0.33 0.32 0.32 0.32 0.39 0.56 0.66 0.74 0.82 0.93 1.05 1.15 1.33 1.48 1.51 1.48 1.51 1.53 1.42 1.28 1.29 1.24 1.29 1.25 1.31 1.31 1.25 1.30 1.45 1.43 1.40 1.44 1.42 1.51 1.71 1.68 1.60 1.62 1.67 1.80 1.97 2.09 1.89
0.27 0.28 0.26 0.23 0.24 0.32 0.46 0.61 0.71 0.86 1.01 1.09 1.12 1.19 1.35 1.33 1.29 1.24 1.19 1.26 1.28 1.25 1.31 1.32 1.22 1.21 1.25 1.33 1.46 1.44 1.43 1.52 1.59 1.72 1.84 1.82 1.78 1.78 1.71 1.77 1.90 2.07 2.10
0.30 0.25 0.25 0.23 0.21 0.25 0.36 0.51 0.61 0.74 0.84 0.87 0.90 1.02 1.12 1.11 1.08 1.06 1.04 1.12 1.13 1.16 1.20 1.21 1.22 1.22 1.29 1.48 1.74 1.68 1.63 1.66 1.71 1.80 1.96 2.01 2.12 2.11 1.95 1.91 1.90 1.95 2.07
0.42 0.33 0.30 0.25 0.29 0.30 0.33 0.45 0.47 0.52 0.59 0.65 0.72 0.84 0.96 0.95 0.95 0.98 1.11 1.17 1.13 1.06 0.98 1.01 1.09 1.09 1.20 1.43 1.76 1.89 1.89 1.91 1.85 1.92 2.13 2.16 2.15 2.08 1.98 2.00 1.94 1.91 2.05
0.42 0.49 0.45 0.32 0.33 0.30 0.33 0.38 0.37 0.45 0.52 0.57 0.62 0.69 0.82 0.94 0.98 1.03 1.10 1.17 1.17 1.11 1.09 1.10 1.12 1.24 1.33 1.37 1.54 1.71 1.78 1.82 1.81 1.94 2.02 2.02 2.09 2.02 1.97 1.90 1.86 1.83 1.97
0.42 0.54 0.58 0.38 0.32 0.31 0.34 0.35 0.37 0.40 0.41 0.48 0.57 0.66 0.77 0.94 1.05 1.09 1.15 1.22 1.24 1.21 1.25 1.24 1.27 1.36 1.39 1.36 1.46 1.61 1.72 1.77 1.80 1.89 1.98 2.03 2.03 2.07 2.17 2.06 2.03 2.10 2.17
0.47 0.44 0.47 0.41 0.39 0.39 0.37 0.38 0.44 0.48 0.46 0.54 0.65 0.72 0.84 0.90 0.99 1.14 1.23 1.32 1.35 1.28 1.34 1.40 1.39 1.39 1.33 1.29 1.50 1.65 1.65 1.78 1.85 1.85 1.82 1.90 2.09 2.17 2.20 2.04 2.07 2.19 2.17
0.51 0.59 0.60 0.56 0.55 0.53 0.48 0.49 0.55 0.58 0.65 0.75 0.81 0.85 0.93 1.02 1.06 1.14 1.17 1.29 1.33 1.39 1.46 1.52 1.53 1.45 1.27 1.47 1.60 1.62 1.65 1.75 1.80 1.80 1.73 1.66 1.69 1.77 1.89 1.89 1.83 1.86 1.91
0.66 0.75 0.81 0.78 0.74 0.67 0.62 0.63 0.67 0.74 0.84 0.92 1.05 1.10 1.12 1.22 1.24 1.26 1.25 1.29 1.42 1.52 1.53 1.52 1.52 1.48 1.56 1.61 1.48 1.42 1.35 1.41 1.49 1.49 1.47 1.28 1.20 1.43 1.52 1.66 1.65 1.54 1.51
0.66 0.78 0.87 0.87 0.79 0.77 0.79 0.89 0.92 0.99 1.10 1.19 1.31 1.43 1.47 1.55 1.60 1.67 1.65 1.65 1.70 1.79 1.73 1.62 1.62 1.69 1.72 1.72 1.49 1.37 1.24 1.24 1.26 1.25 1.22 1.22 1.20 1.26 1.37 1.43 1.43 1.39 1.35
0.71 0.88 0.90 0.86 0.85 0.97 1.02 1.04 1.09 1.17 1.35 1.52 1.62 1.71 1.78 1.82 1.84 1.84 1.92 1.98 2.08 2.11 2.02 1.96 1.98 1.99 2.06 2.02 1.72 1.58 1.37 1.33 1.28 1.29 1.34 1.36 1.25 1.30 1.27 1.26 1.27 1.27 1.33
0.81 0.93 0.99 0.97 1.05 1.28 1.33 1.37 1.41 1.49 1.55 1.61 1.73 1.90 2.01 2.07 2.06 2.07 2.19 2.34 2.46 2.43 2.39 2.41 2.43 2.35 2.29 2.22 1.86 1.69 1.48 1.47 1.45 1.49 1.43 1.36 1.21 1.16 1.11 1.10 1.18 1.15 1.16
0.78 0.90 0.95 1.01 1.09 1.27 1.41 1.64 1.79 1.83 1.83 1.88 1.90 1.96 2.07 2.19 2.22 2.28 2.35 2.50 2.59 2.57 2.52 2.46 2.40 2.30 2.28 2.21 1.89 1.71 1.54 1.56 1.60 1.53 1.46 1.40 1.28 1.10 1.03 0.97 0.98 1.01 1.05
0.71 0.81 0.98 1.09 1.19 1.36 1.59 1.78 1.93 2.06 2.13 2.12 2.22 2.23 2.23 2.16 2.13 2.31 2.45 2.57 2.69 2.65 2.58 2.59 2.46 2.36 2.29 2.09 1.86 1.67 1.57 1.65 1.70 1.67 1.61 1.54 1.40 1.14 1.03 0.91 0.90 0.91 0.89
0.80 0.82 0.94 1.09 1.18 1.28 1.50 1.86 1.95 1.96 1.99 2.07 2.12 2.19 2.22 2.23 2.24 2.38 2.54 2.67 2.69 2.60 2.47 2.45 2.41 2.31 2.19 2.11 1.89 1.66 1.56 1.58 1.58 1.68 1.75 1.59 1.42 1.23 1.09 1.05 1.00 0.91 0.85
0.85 0.88 0.94 1.05 1.14 1.11 1.22 1.42 1.61 1.71 1.72 1.73 1.77 1.78 1.91 2.03 2.18 2.36 2.41 2.48 2.53 2.54 2.51 2.44 2.36 2.32 2.28 2.26 2.06 1.79 1.60 1.56 1.59 1.65 1.68 1.53 1.40 1.23 1.10 1.09 1.00 0.88 0.85
0.75 0.81 0.94 0.94 0.98 1.06 1.06 1.10 1.17 1.35 1.51 1.54 1.55 1.62 1.73 1.83 1.99 2.20 2.33 2.28 2.28 2.43 2.34 2.20 2.10 2.03 1.99 2.05 1.91 1.66 1.56 1.54 1.62 1.67 1.73 1.66 1.54 1.43 1.29 1.20 1.16 1.13 1.08
0.74 0.77 0.84 0.84 0.84 0.93 0.96 0.99 1.13 1.30 1.41 1.39 1.40 1.43 1.46 1.55 1.67 1.84 1.97 1.93 1.69 1.72 1.64 1.49 1.36 1.32 1.35 1.40 1.32 1.22 1.16 1.20 1.34 1.45 1.62 1.63 1.53 1.44 1.40 1.35 1.29 1.24 1.17

GEFSMW_prec_meanprecacc_240.txt.gz
Total_Precipitation_Accumulation
1.57 2.02 2.53 3.04 3.71 4.62 5.55 5.89 5.64 5.06 4.63 4.23 3.75 3.36 3.02 2.76 2.64 2.35 2.03 1.92 1.83 1.78 1.96 1.70 1.84 1.85 1.91 1.93 1.96 2.06 1.98 1.74 1.89 2.20 2.03 1.65 1.48 1.45 1.39 1.37 1.46 1.34 1.43
1.63 2.12 2.70 3.12 3.47 4.00 4.74 5.03 4.68 4.06 3.49 3.22 3.05 2.85 2.75 2.43 2.24 2.15 2.05 1.76 1.73 1.72 1.73 1.81 1.56 1.59 1.72 1.67 1.71 2.00 1.93 1.67 1.77 2.13 2.25 2.00 1.93 1.64 1.15 1.24 1.38 1.37 1.50
1.47 2.19 2.71 3.00 3.25 3.46 3.45 3.56 3.46 2.97 2.62 2.53 2.50 2.46 2.54 2.35 2.11 1.99 1.83 1.59 1.50 1.42 1.47 1.49 1.50 1.60 1.53 1.61 1.71 1.80 1.89 1.78 1.65 1.74 2.21 2.15 1.95 1.67 1.41 1.29 1.29 1.40 1.63
1.32 2.07 2.35 2.45 2.49 2.58 2.39 2.39 2.47 2.30 2.24 2.15 2.17 2.05 1.91 1.85 1.75 1.74 1.68 1.56 1.44 1.36 1.27 1.31 1.34 1.46 1.47 1.68 1.50 1.58 1.76 1.80 1.61 1.64 1.78 1.83 1.85 1.84 1.62 1.38 1.26 1.33 1.44
1.02 1.36 1.42 1.54 1.61 1.69 1.73 1.89 2.13 2.15 2.05 2.01 2.12 2.13 1.86 1.69 1.59 1.61 1.68 1.57 1.45 1.34 1.22 1.26 1.36 1.43 1.47 1.51 1.53 1.74 1.71 1.65 1.63 1.64 1.71 1.77 1.77 1.67 1.68 1.61 1.37 1.28 1.18
0.70 0.90 0.95 0.99 1.05 1.10 1.24 1.44 1.82 1.99 1.90 1.85 1.90 1.89 1.82 1.74 1.61 1.49 1.50 1.49 1.42 1.38 1.37 1.31 1.41 1.41 1.43 1.43 1.45 1.59 1.61 1.64 1.70 1.62 1.57 1.71 1.79 1.72 1.76 1.68 1.46 1.33 1.14
0.62 0.73 0.86 0.88 0.81 0.79 0.91 1.11 1.36 1.49 1.52 1.59 1.70 1.78 1.85 1.79 1.62 1.52 1.42 1.41 1.30 1.28 1.41 1.39 1.42 1.47 1.49 1.41 1.45 1.49 1.46 1.54 1.68 1.63 1.52 1.51 1.50 1.59 1.68 1.69 1.50 1.39 1.22
0.47 0.50 0.57 0.57 0.56 0.65 0.74 0.90 1.04 1.13 1.22 1.32 1.48 1.63 1.67 1.67 1.62 1.67 1.52 1.40 1.28 1.25 1.34 1.43 1.41 1.36 1.32 1.31 1.57 1.45 1.38 1.48 1.55 1.50 1.73 1.67 1.48 1.61 1.71 1.74 1.79 1.63 1.54
0.33 0.32 0.32 0.32 0.39 0.56 0.67 0.74 0.84 0.95 1.06 1.16 1.37 1.52 1.55 1.52 1.54 1.60 1.51 1.34 1.34 1.27 1.32 1.28 1.35 1.35 1.28 1.33 1.49 1.48 1.45 1.50 1.48 1.58 1.77 1.74 1.66 1.67 1.72 1.86 2.04 2.17 1.98
0.27 0.28 0.26 0.24 0.25 0.32 0.47 0.61 0.71 0.87 1.04 1.12 1.15 1.21 1.38 1.37 1.33 1.28 1.25 1.31 1.32 1.29 1.34 1.35 1.25 1.25 1.28 1.36 1.50 1.49 1.46 1.56 1.64 1.78 1.89 1.87 1.84 1.83 1.75 1.82 1.96 2.14 2.19
0.31 0.26 0.26 0.24 0.22 0.25 0.37 0.52 0.62 0.74 0.86 0.89 0.91 1.04 1.15 1.14 1.11 1.10 1.07 1.15 1.16 1.19 1.22 1.23 1.24 1.24 1.31 1.51 1.77 1.72 1.67 1.69 1.75 1.84 2.01 2.07 2.18 2.16 2.00 1.96 1.95 2.01 2.14
0.43 0.34 0.31 0.25 0.29 0.31 0.34 0.45 0.48 0.53 0.60 0.66 0.74 0.86 0.97 0.97 0.97 1.01 1.13 1.20 1.16 1.09 1.00 1.03 1.11 1.11 1.22 1.47 1.79 1.92 1.91 1.93 1.88 1.96 2.19 2.22 2.21 2.13 2.03 2.05 1.99 1.98 2.14
0.45 0.52 0.47 0.34 0.34 0.31 0.33 0.38 0.38 0.46 0.53 0.58 0.64 0.71 0.83 0.95 1.00 1.05 1.12 1.20 1.20 1.14 1.12 1.13 1.15 1.27 1.34 1.39 1.57 1.74 1.82 1.86 1.85 1.98 2.06 2.06 2.13 2.05 2.01 1.93 1.89 1.87 2.02
0.47 0.59 0.64 0.42 0.34 0.33 0.36 0.36 0.38 0.41 0.43 0.49 0.59 0.68 0.79 0.96 1.06 1.11 1.17 1.24 1.27 1.25 1.28 1.28 1.30 1.39 1.42 1.38 1.48 1.63 1.74 1.80 1.84 1.91 2.00 2.05 2.05 2.09 2.19 2.08 2.05 2.12 2.20
0.50 0.47 0.50 0.43 0.41 0.41 0.39 0.39 0.44 0.48 0.48 0.57 0.66 0.74 0.85 0.91 1.00 1.15 1.25 1.34 1.38 1.31 1.38 1.44 1.43 1.42 1.36 1.31 1.52 1.66 1.67 1.81 1.87 1.87 1.84 1.92 2.11 2.19 2.22 2.05 2.09 2.22 2.20
0.55 0.62 0.62 0.58 0.56 0.54 0.50 0.50 0.55 0.60 0.69 0.79 0.84 0.88 0.95 1.03 1.08 1.15 1.19 1.31 1.37 1.42 1.50 1.56 1.58 1.50 1.32 1.50 1.62 1.64 1.67 1.77 1.81 1.81 1.74 1.67 1.70 1.78 1.89 1.89 1.85 1.88 1.94
0.67 0.76 0.82 0.78 0.74 0.68 0.63 0.64 0.68 0.77 0.86 0.95 1.08 1.13 1.15 1.24 1.26 1.28 1.27 1.31 1.45 1.55 1.58 1.56 1.56 1.53 1.59 1.64 1.49 1.43 1.36 1.42 1.50 1.50 1.47 1.29 1.20 1.44 1.53 1.67 1.66 1.55 1.53
0.66 0.78 0.88 0.87 0.79 0.77 0.80 0.90 0.94 1.00 1.12 1.20 1.33 1.46 1.50 1.57 1.63 1.69 1.67 1.68 1.73 1.81 1.76 1.65 1.65 1.73 1.75 1.75 1.50 1.38 1.24 1.25 1.27 1.26 1.23 1.23 1.21 1.27 1.38 1.45 1.45 1.40 1.36
0.72 0.89 0.90 0.87 0.86 0.97 1.02 1.05 1.10 1.18 1.36 1.53 1.64 1.73 1.81 1.85 1.86 1.87 1.95 2.01 2.11 2.14 2.06 1.99 2.02 2.03 2.10 2.05 1.75 1.60 1.38 1.34 1.29 1.30 1.35 1.37 1.26 1.31 1.28 1.28 1.29 1.30 1.35
0.82 0.93 0.99 0.98 1.06 1.29 1.34 1.38 1.42 1.49 1.56 1.63 1.75 1.92 2.04 2.10 2.08 2.10 2.22 2.38 2.50 2.47 2.43 2.45 2.47 2.39 2.34 2.27 1.89 1.72 1.50 1.49 1.47 1.51 1.44 1.37 1.22 1.17 1.12 1.12 1.20 1.17 1.19
0.79 0.90 0.95 1.02 1.09 1.27 1.42 1.65 1.80 1.84 1.84 1.89 1.92 1.98 2.09 2.21 2.25 2.32 2.39 2.54 2.64 2.62 2.58 2.51 2.45 2.36 2.33 2.25 1.93 1.74 1.57 1.59 1.63 1.57 1.50 1.42 1.29 1.11 1.06 1.00 1.02 1.04 1.09
0.72 0.82 0.99 1.09 1.20 1.37 1.60 1.79 1.94 2.07 2.14 2.13 2.23 2.24 2.26 2.19 2.16 2.35 2.48 2.60 2.72 2.69 2.63 2.64 2.52 2.41 2.34 2.13 1.89 1.70 1.60 1.67 1.73 1.70 1.64 1.57 1.42 1.17 1.07 0.95 0.94 0.94 0.91
0.81 0.83 0.95 1.10 1.19 1.29 1.52 1.88 1.96 1.97 2.00 2.08 2.13 2.21 2.24 2.25 2.27 2.40 2.56 2.69 2.73 2.64 2.51 2.49 2.46 2.35 2.24 2.15 1.92 1.68 1.58 1.59 1.59 1.70 1.78 1.61 1.44 1.26 1.11 1.08 1.02 0.93 0.86
0.86 0.90 0.96 1.07 1.16 1.12 1.24 1.44 1.63 1.73 1.74 1.75 1.78 1.80 1.92 2.04 2.20 2.38 2.43 2.51 2.58 2.58 2.56 2.50 2.42 2.38 2.33 2.30 2.09 1.82 1.61 1.57 1.60 1.66 1.69 1.55 1.41 1.24 1.11 1.11 1.02 0.90 0.87
0.77 0.84 0.97 0.96 1.00 1.07 1.08 1.12 1.19 1.37 1.52 1.56 1.57 1.64 1.75 1.85 2.00 2.22 2.36 2.31 2.32 2.47 2.38 2.24 2.13 2.07 2.03 2.09 1.95 1.69 1.58 1.55 1.63 1.69 1.75 1.67 1.56 1.45 1.31 1.22 1.19 1.15 1.10
0.76 0.81 0.88 0.88 0.86 0.94 0.97 1.00 1.13 1.32 1.43 1.41 1.41 1.44 1.47 1.57 1.69 1.85 1.98 1.95 1.71 1.74 1.67 1.52 1.39 1.34 1.37 1.43 1.35 1.24 1.18 1.21 1.35 1.46 1.64 1.66 1.55 1.47 1.43 1.38 1.31 1.27 1.20

GEFSMW_prec_meanprecacc_246.txt.gz
Total_Precipitation_Accumulation
1.57 2.02 2.53 3.04 3.72 4.65 5.59 5.94 5.69 5.12 4.68 4.26 3.77 3.38 3.05 2.79 2.67 2.37 2.05 1.96 1.88 1.82 1.99 1.72 1.86 1.88 1.94 1.97 2.00 2.11 2.05 1.81 1.97 2.29 2.11 1.72 1.55 1.54 1.47 1.45 1.54 1.40 1.48
1.63 2.12 2.70 3.12 3.47 4.01 4.76 5.06 4.72 4.09 3.51 3.23 3.07 2.88 2.77 2.45 2.27 2.17 2.06 1.79 1.77 1.75 1.75 1.83 1.58 1.60 1.74 1.69 1.75 2.05 2.00 1.73 1.84 2.20 2.30 2.05 2.00 1.72 1.24 1.34 1.49 1.47 1.57
1.47 2.19 2.71 3.00 3.26 3.46 3.47 3.58 3.48 2.99 2.64 2.54 2.52 2.48 2.55 2.37 2.14 2.01 1.86 1.61 1.53 1.45 1.50 1.53 1.53 1.63 1.55 1.63 1.74 1.84 1.94 1.83 1.70 1.80 2.25 2.19 1.99 1.74 1.50 1.35 1.35 1.47 1.70
1.32 2.07 2.35 2.46 2.49 2.58 2.39 2.40 2.48 2.32 2.26 2.16 2.18 2.07 1.92 1.86 1.76 1.76 1.70 1.58 1.47 1.39 1.30 1.35 1.36 1.48 1.48 1.71 1.53 1.61 1.81 1.84 1.64 1.68 1.82 1.87 1.88 1.89 1.68 1.45 1.32 1.36 1.47
1.02 1.36 1.42 1.54 1.61 1.69 1.73 1.90 2.14 2.16 2.07 2.02 2.14 2.15 1.88 1.71 1.61 1.62 1.70 1.59 1.48 1.38 1.26 1.30 1.38 1.44 1.49 1.53 1.56 1.77 1.74 1.67 1.64 1.66 1.74 1.81 1.81 1.71 1.72 1.65 1.43 1.33 1.21
0.71 0.90 0.96 1.00 1.05 1.12 1.25 1.45 1.83 2.01 1.91 1.87 1.92 1.90 1.84 1.76 1.63 1.52 1.53 1.52 1.47 1.45 1.44 1.35 1.43 1.43 1.44 1.45 1.47 1.61 1.64 1.66 1.72 1.64 1.60 1.75 1.82 1.75 1.79 1.70 1.49 1.36 1.16
0.63 0.74 0.88 0.93 0.84 0.82 0.95 1.15 1.39 1.52 1.54 1.60 1.72 1.80 1.87 1.80 1.64 1.55 1.45 1.44 1.36 1.37 1.48 1.44 1.43 1.48 1.50 1.42 1.46 1.51 1.49 1.57 1.70 1.64 1.54 1.53 1.53 1.63 1.72 1.72 1.52 1.40 1.24
0.48 0.51 0.60 0.62 0.59 0.66 0.75 0.92 1.06 1.14 1.23 1.35 1.53 1.66 1.69 1.68 1.63 1.68 1.54 1.43 1.31 1.30 1.39 1.47 1.43 1.38 1.33 1.33 1.59 1.47 1.40 1.51 1.58 1.53 1.75 1.69 1.50 1.64 1.75 1.77 1.81 1.66 1.57
0.35 0.33 0.35 0.37 0.42 0.58 0.69 0.76 0.86 0.97 1.07 1.18 1.39 1.53 1.56 1.53 1.55 1.62 1.54 1.38 1.37 1.31 1.37 1.31 1.38 1.37 1.30 1.35 1.53 1.52 1.48 1.52 1.50 1.60 1.79 1.77 1.69 1.69 1.75 1.90 2.07 2.20 2.02
0.29 0.30 0.28 0.26 0.27 0.34 0.50 0.64 0.73 0.89 1.05 1.12 1.15 1.22 1.40 1.37 1.34 1.29 1.27 1.34 1.35 1.32 1.38 1.39 1.28 1.28 1.31 1.40 1.53 1.51 1.48 1.58 1.66 1.79 1.91 1.89 1.87 1.88 1.79 1.87 2.00 2.17 2.22
0.32 0.27 0.29 0.28 0.26 0.30 0.40 0.54 0.63 0.76 0.87 0.90 0.92 1.05 1.16 1.15 1.12 1.11 1.08 1.18 1.20 1.22 1.25 1.27 1.27 1.26 1.34 1.55 1.79 1.74 1.69 1.71 1.77 1.85 2.02 2.08 2.21 2.20 2.04 2.02 2.00 2.04 2.16
0.45 0.39 0.38 0.35 0.37 0.35 0.37 0.48 0.50 0.55 0.62 0.69 0.76 0.86 0.98 0.98 0.98 1.02 1.14 1.21 1.18 1.11 1.03 1.06 1.13 1.13 1.25 1.50 1.82 1.95 1.95 1.97 1.92 1.99 2.21 2.24 2.24 2.19 2.08 2.11 2.07 2.02 2.17
0.48 0.58 0.55 0.41 0.40 0.34 0.36 0.41 0.42 0.50 0.58 0.64 0.66 0.72 0.85 0.97 1.02 1.07 1.14 1.22 1.23 1.17 1.16 1.17 1.18 1.31 1.39 1.43 1.61 1.79 1.87 1.91 1.89 2.01 2.09 2.08 2.15 2.10 2.06 1.97 1.93 1.90 2.05
0.49 0.63 0.68 0.47 0.39 0.38 0.41 0.41 0.44 0.44 0.44 0.52 0.61 0.69 0.82 0.99 1.10 1.14 1.20 1.27 1.31 1.28 1.32 1.31 1.34 1.43 1.47 1.44 1.53 1.70 1.81 1.88 1.90 1.97 2.04 2.09 2.09 2.12 2.21 2.09 2.06 2.14 2.23
0.52 0.49 0.52 0.46 0.45 0.46 0.45 0.48 0.52 0.51 0.50 0.62 0.70 0.77 0.89 0.97 1.05 1.19 1.29 1.38 1.42 1.35 1.41 1.46 1.45 1.45 1.39 1.35 1.57 1.71 1.72 1.87 1.92 1.91 1.87 1.94 2.12 2.20 2.22 2.06 2.10 2.23 2.21
0.57 0.64 0.65 0.61 0.61 0.60 0.55 0.56 0.60 0.62 0.72 0.82 0.89 0.94 1.01 1.08 1.12 1.19 1.23 1.35 1.40 1.45 1.53 1.58 1.60 1.53 1.35 1.54 1.65 1.66 1.70 1.80 1.85 1.84 1.75 1.68 1.71 1.79 1.90 1.90 1.85 1.89 1.95
0.70 0.79 0.84 0.82 0.81 0.75 0.69 0.68 0.72 0.80 0.90 1.01 1.14 1.19 1.22 1.30 1.32 1.34 1.33 1.36 1.49 1.59 1.61 1.59 1.58 1.55 1.62 1.68 1.52 1.46 1.38 1.44 1.51 1.51 1.48 1.29 1.21 1.44 1.53 1.68 1.67 1.56 1.53
0.70 0.82 0.92 0.93 0.83 0.81 0.84 0.93 0.97 1.04 1.15 1.25 1.38 1.51 1.57 1.64 1.68 1.74 1.72 1.74 1.78 1.86 1.81 1.70 1.68 1.76 1.79 1.79 1.54 1.42 1.28 1.28 1.29 1.27 1.24 1.24 1.23 1.28 1.40 1.46 1.46 1.42 1.37
0.78 0.94 0.95 0.91 0.90 1.01 1.05 1.07 1.13 1.20 1.38 1.56 1.68 1.78 1.85 1.89 1.89 1.90 2.00 2.07 2.18 2.20 2.10 2.03 2.06 2.08 2.17 2.14 1.82 1.67 1.44 1.38 1.33 1.35 1.40 1.41 1.29 1.33 1.29 1.29 1.30 1.31 1.36
0.87 1.00 1.04 1.01 1.08 1.32 1.37 1.40 1.44 1.52 1.59 1.65 1.77 1.95 2.06 2.11 2.10 2.11 2.25 2.41 2.53 2.50 2.47 2.49 2.51 2.46 2.43 2.37 2.00 1.83 1.60 1.58 1.55 1.57 1.50 1.42 1.25 1.19 1.14 1.14 1.21 1.19 1.20
0.82 0.95 1.00 1.04 1.11 1.30 1.45 1.69 1.83 1.86 1.86 1.90 1.93 1.99 2.11 2.23 2.26 2.33 2.39 2.56 2.66 2.64 2.60 2.55 2.50 2.42 2.41 2.35 2.04 1.87 1.69 1.69 1.71 1.62 1.54 1.46 1.32 1.14 1.08 1.02 1.03 1.06 1.11
0.79 0.89 1.05 1.13 1.22 1.39 1.63 1.81 1.97 2.10 2.16 2.14 2.24 2.25 2.27 2.20 2.17 2.36 2.50 2.62 2.75 2.72 2.66 2.68 2.56 2.46 2.40 2.20 1.97 1.78 1.68 1.74 1.80 1.77 1.69 1.60 1.46 1.20 1.10 0.97 0.96 0.97 0.93
0.84 0.89 1.00 1.13 1.22 1.32 1.54 1.90 1.98 1.99 2.02 2.09 2.14 2.22 2.25 2.27 2.28 2.41 2.57 2.71 2.74 2.67 2.54 2.52 2.49 2.38 2.28 2.20 1.97 1.74 1.63 1.65 1.65 1.77 1.83 1.66 1.48 1.28 1.14 1.10 1.05 0.96 0.88
0.88 0.92 0.99 1.10 1.19 1.15 1.26 1.45 1.65 1.75 1.76 1.77 1.81 1.83 1.94 2.07 2.22 2.40 2.45 2.53 2.59 2.60 2.57 2.53 2.44 2.40 2.36 2.34 2.13 1.87 1.67 1.64 1.69 1.74 1.76 1.59 1.45 1.26 1.13 1.13 1.04 0.92 0.89
0.81 0.86 0.99 0.99 1.03 1.10 1.10 1.14 1.21 1.39 1.55 1.58 1.60 1.68 1.78 1.89 2.04 2.25 2.39 2.34 2.35 2.51 2.41 2.27 2.16 2.09 2.04 2.11 1.98 1.73 1.63 1.61 1.70 1.77 1.82 1.73 1.60 1.47 1.33 1.24 1.21 1.17 1.12
0.82 0.85 0.91 0.92 0.92 0.99 1.00 1.03 1.16 1.34 1.45 1.43 1.44 1.47 1.51 1.60 1.73 1.89 2.01 1.99 1.75 1.78 1.70 1.55 1.41 1.37 1.39 1.45 1.36 1.26 1.21 1.25 1.39 1.50 1.69 1.70 1.59 1.50 1.45 1.40 1.34 1.29 1.22